     2              OBSERVATION DATA    GPS                 RINEX VERSION / TYPE
teqc 2000Feb29 20021016 17:29:46UTC                         PGM / RUN BY / DATE
                                                            COMMENT
L2: 1 -> 1; 5 -> 5; 60 -> 9                                 COMMENT
L2: 1 -> 1; 5 -> 5; 60 -> 9                                 COMMENT
L2: 1 -> 1; 5 -> 5; 60 -> 9                                 COMMENT
L2: 1 -> 1; 5 -> 5; 60 -> 9                                 COMMENT
L2: 1 -> 1; 5 -> 5; 60 -> 9                                 COMMENT
Original Marker Name: DUFO                                  COMMENT
Campaign Name: Yolo County Subsidence 2002                  COMMENT
4-Character Station Name: DUFO                              COMMENT
6-Character Antenna Code: TRMCMP                            COMMENT
Vertical Measurement Point: BPA                             COMMENT
Vertical Offset to Rinex Ref. Point: 0.0000                 COMMENT
Radial Measurement Point: RRP                               COMMENT
Radial Offset to Rinex Ref. Point: 0.0000                   COMMENT
Antenna Height from Field Measurement: 2.0000 m             COMMENT
Additional Antenna Identification Info.:                    COMMENT
Model 22020.00+GP                                           COMMENT
Original XYZ: -2627402.4711 -4230276.3491 3971862.9748      COMMENT
New XYZ position is based on association with SCEC monument COMMENT
E1O4H0I9+0011. Position of that monument is believed to be  COMMENT
valid to within 1 m horizontally; vertical accuracy         COMMENT
should be no worse than 3-times this value.                 COMMENT
                                                            COMMENT
Revised Rinex header created by UCSD GPS archive for        COMMENT
GSAC on 27-Jun-2003 (2003:178) 16:39:07 GMT                 COMMENT
For assistance contact dagnew@ucsd.edu                      COMMENT
or anderson@python.ucsd.edu                                 COMMENT
                                                            COMMENT
DUFOUR 1959                                                 MARKER NAME
DUFO                                                        MARKER NUMBER
-Unknown- YOLO_COUNTY                                       OBSERVER / AGENCY
16898 TRIMBLE 4000 SSI NP 7.32; SP 3.08                     REC # / TYPE / VERS
68628 TR GEOD L1/L2 GP                                      ANT # / TYPE
 -2627403.2046 -4230277.5489  3971860.7844                  APPROX POSITION XYZ
        2.0000        0.0000        0.0000                  ANTENNA: DELTA H/E/N
     1     1     0                                          WAVELENGTH FACT L1/2
     7    C1    L1    L2    P1    P2    S1    S2            # / TYPES OF OBSERV
     0                                                      INTERVAL
  2002     7    11    16    40   30.000000                  TIME OF FIRST OBS
  2002     7    11    17    32    0.000000                  TIME OF LAST OBS
                                                            END OF HEADER
 02  7 11 16 40 30.0000000  0  9G26G29G 6G15G17G18G21G22G23
  22407351.6954     162312.42957     75652.75556                  22407360.0554
        20.0004         18.7504
  23303375.8754     214592.32556    103962.72956                  23303384.5744
        16.5004         15.5004
  21935106.9694     343712.95757    156835.85356                  21935115.5744
        24.2504         24.2504
  20648763.9614      42753.73658     22952.58157                  20648771.3594
        30.2504         29.2504
  20744339.4614      97659.42157     48558.07157                  20744346.7774
        27.5004         27.2504
  20745707.3444     -13208.30257     -4477.80357                  20745713.4734
        25.2504         27.7504
  22820054.8054    -145635.24556    -73707.90456                  22820064.5824
        19.5004         19.2504
  23544082.3984     234328.69155    113569.53856                  23544092.5864
        11.7504         13.2504
  22662146.8674     352233.24657    175685.44856                  22662155.2034
        23.2504         22.0004
 02  7 11 16 40 45.0000000  0  9G26G29G 6G15G17G18G21G22G23
  22412873.8134     191330.60747     98264.30446                  22412882.1604
        20.2504         18.7504
  23310139.2034     250134.19346    131657.65646                  23310147.4344
        15.7504         15.2504
  21945725.2034     399511.88947    200315.48946                  21945733.6454
        24.7504         24.2504
  20650261.7344      50623.91848     29085.18147                  20650269.1914
        30.5004         29.2504
  20747383.5164     113654.81047     61021.98847                  20747390.8554
        26.7504         27.2504
  20745659.2664     -13460.02647     -4673.95747                  20745665.3714
        25.2504         27.7504
  22816398.8674    -164845.65746    -88677.03346                  22816408.2344
        19.7504         19.2504
  23550790.5634     269580.49146    141038.41446                  23550801.2894
        12.2504         13.0004
  22672376.7424     405991.49647    217574.96346                  22672385.0204
        23.0004         22.0004
 02  7 11 16 41  0.0000000  0  9G26G29G 6G15G17G18G21G22G23
  22418473.1414     220756.87147    121193.83746                  22418481.2664
        20.0004         18.7504
  23316974.6804     286052.54946    159645.96946                  23316983.0634
        16.0004         15.5004
  21956408.2194     455651.68347    244060.73546                  21956416.5314
        24.7504         24.5004
  20651819.0394      58808.18448     35462.52547                  20651826.7304
        30.0004         29.5004
  20750485.4844     129956.56647     73724.63247                  20750492.8364
        27.0004         27.2504
  20745680.4924     -13348.99447     -4587.43847                  20745686.5164
        25.2504         27.5004
  22812803.5634    -183739.22247   -103399.26746                  22812812.8364
        20.0004         19.2504
  23557567.9064     305193.22346    168788.53246                  23557578.6564
        12.2504         13.2504
  22682662.6804     460043.34447    259693.24546                  22682671.1454
        23.7504         22.0004
 02  7 11 16 41 15.0000000  0  9G26G29G 6G15G17G18G21G22G23
  22424147.8984     250576.20047    144429.65746                  22424156.1644
        20.0004         18.5004
  23323878.5004     322332.63546    187916.13946                  23323887.0704
        16.0004         15.7504
  21967153.3674     512117.31747    288059.88646                  21967161.3634
        24.5004         24.0004
  20653433.4454      67291.63348     42073.00647                  20653441.1844
        29.5004         29.5004
  20753643.1094     146549.89347     86654.47747                  20753650.5314
        27.0004         27.2504
  20745767.8134     -12890.05847     -4229.82547                  20745774.0354
        25.0004         27.5004
  22809265.6724    -202331.01747   -117886.35946                  22809274.8984
        20.0004         19.7504
  23564410.4694     341151.71846    196808.07846                  23564420.9384
        12.2504         12.7504
  22693001.4224     514373.72947    302028.57346                  22693009.5474
        23.2504         22.0004
 02  7 11 16 41 30.0000000  0  9G26G29G 6G15G17G18G21G22G23
  22429893.3444     280769.24147    167956.69046                  22429901.6454
        20.0004         18.7504
  23330847.6724     358954.80146    216452.87046                  23330856.0904
        16.0004         15.7504
  21977956.8834     568889.30947    332297.75246                  21977965.0314
        24.2504         23.5004
  20655101.1414      76054.95748     48901.56447                  20655108.8324
        29.5004         29.2504
  20756852.4924     163415.50647     99796.49847                  20756859.8914
        26.5004         27.2504
  20745917.7034     -12102.53347     -3616.17047                  20745923.8554
        24.7504         27.5004
  22805781.4844    -220640.18947   -132153.21746                  22805790.9574
        20.0004         19.7504
  23571315.0314     377436.47746    225081.87346                  23571325.0434
        12.2504         12.7504
  22703389.4774     568963.04547    344565.66046                  22703397.7664
        22.7504         22.0004
 02  7 11 16 41 45.0000000  0  9G26G29G 6G15G17G18G21G22G23
  22435706.7034     311318.91747    191761.60146                  22435714.7114
        20.2504         19.0004
  23337878.1724     395901.88846    245242.77746                  23337886.8244
        15.2504         15.0004
  21988815.1334     625950.43947    376760.92346                  21988823.1764
        24.2504         24.0004
  20656818.5944      85081.22748     55935.00747                  20656826.2974
        30.0004         29.2504
  20760110.3984     180536.36847    113137.40847                  20760118.0664
        27.2504         27.5004
  20746126.6724     -11003.44347     -2759.75247                  20746132.7424
        24.5004         27.2504
  22802348.2504    -238683.53847   -146212.94146                  22802357.9694
        20.5004         20.0004
  23578278.3754     414030.13446    253596.36346                  23578288.5274
        12.0004         12.7504
  22713823.4384     623794.03447    387291.07446                  22713831.4804
        23.2504         22.0004
 02  7 11 16 42  0.0000000  0  9G26G29G 6G15G17G18G21G22G23
  22441586.6254     342218.76347    215839.39446                  22441594.8204
        20.5004         18.7504
  23344969.4924     433167.50646    274280.90146                  23344978.1454
        15.2504         15.5004
  21999727.2664     683294.19747    421444.32646                  21999735.7774
        23.2504         23.5004
  20658585.0634      94364.14548     63168.43947                  20658592.6024
        30.5004         29.5004
  20763415.9844     197906.27047    126672.39247                  20763423.5704
        27.0004         27.7504
  20746393.7194      -9599.04247     -1665.41247                  20746399.9304
        24.7504         27.5004
  22798964.1094    -256467.05947   -160070.20646                  22798973.4184
        20.5004         20.0004
  23585299.8914     450926.16746    282346.44246                  23585310.2304
        12.0004         12.7504
  22724302.0784     678860.15247    430199.70446                  22724310.2734
        23.0004         21.7504
 02  7 11 16 42 15.0000000  0  9G26G29G 6G15G17G18G21G22G23
  22447532.3204     373462.93547    240185.48746                  22447540.3284
        20.2504         18.5004
  23352120.6954     470745.70646    303562.58246                  23352129.4184
        15.2504         15.2504
  22010692.2274     740914.60947    466343.29146                  22010700.9144
        23.5004         23.5004
  20660399.5474     103898.04148     70597.43947                  20660407.0044
        30.2504         29.5004
  20766767.5004     215519.57747    140397.03647                  20766775.3094
        27.0004         27.7504
  20746718.0314      -7895.11847      -337.67547                  20746724.3364
        24.7504         27.5004
  22795628.2974    -273996.81047   -173729.73146                  22795638.2734
        20.2504         20.2504
  23592377.2114     488118.55845    311327.49346                  23592387.3054
        11.7504         12.5004
  22734824.4924     734155.35647    473286.84446                  22734833.0044
        23.0004         21.7504
 02  7 11 16 42 30.0000000  0  9G26G29G 6G15G17G18G21G22G23
  22453541.0164     405037.92147    264789.35046                  22453548.9654
        20.5004         18.7504
  23359328.2584     508623.10346    333077.41346                  23359336.6884
        15.2504         15.2504
  22021707.1174     798798.10947    511447.27546                  22021715.5474
        23.5004         23.7504
  20662258.8834     113669.63348     78211.65847                  20662266.3634
        30.5004         29.5004
  20770163.0314     233362.94747    154300.95947                  20770170.5944
        27.2504         27.2504
  20747096.9304      -5905.18347      1212.92347                  20747103.1054
        25.0004         27.5004
  22792338.1724    -291285.96747   -187201.76546                  22792347.9494
        20.2504         20.2504
  23599508.5164     525593.62346    340528.79246                  23599518.2934
        12.0004         12.7504
  22745387.9694     789666.10947    516541.94646                  22745396.4454
        23.0004         21.7504
 02  7 11 16 42 45.0000000  0  9G26G29G 6G15G17G18G21G22G23
  22459611.5634     436939.51447    289647.71746                  22459619.4304
        21.0004         18.5004
  23366592.0864     546795.18746    362821.88546                  23366600.5394
        16.0004         14.5004
  22032771.4064     856940.33647    556752.85646                  22032779.7894
        23.5004         23.5004
  20664162.9064     123674.81448     86007.89547                  20664170.3754
        30.7504         30.0004
  20773601.5084     251432.24247    168380.92647                  20773608.8484
        27.0004         27.5004
  20747529.2664      -3633.28847      2983.23047                  20747535.6414
        25.0004         27.5004
  22789093.1954    -308338.55047   -200489.46646                  22789102.8674
        20.2504         20.2504
  23606693.0234     563347.02245    369946.98046                  23606703.0354
        11.7504         12.0004
  22755991.6094     845388.04647    559961.60746                  22756000.0394
        22.7504         21.5004
 02  7 11 16 43  0.0000000  0  9G26G29G 6G15G17G18G21G22G23
  22465743.0234     469160.30947    314754.80746                  22465750.9144
        20.5004         18.7504
  23373911.2974     585254.67346    392790.28246                  23373919.8674
        15.7504         15.0004
  22043883.3364     915333.80547    602254.21946                  22043891.6604
        23.2504         23.0004
  20666109.6954     133906.22648     93980.41147                  20666117.4694
        30.5004         29.7504
  20777081.7584     269720.10847    182631.20547                  20777088.8404
        27.7504         27.0004
  20748013.8594      -1086.69247      4967.58347                  20748019.9184
        25.2504         27.7504
  22785891.4614    -325161.82747   -213598.48446                  22785900.8284
        20.2504         20.2504
  23613928.4454     601371.17645    399576.13346                  23613938.2344
        11.5004         12.5004
  22766633.8054     901313.50747    603539.85746                  22766642.3524
        22.7504         21.5004
 02  7 11 16 43 15.0000000  0  9G26G29G 6G15G17G18G21G22G23
  22471934.0944     501694.85347    340106.38146                  22471941.5044
        20.2504         18.7504
  23381283.3834     623995.89146    422978.22446                  23381291.8364
        15.7504         15.2504
  22055042.0234     973972.96947    647947.02646                  22055050.5234
        23.0004         23.0004
  20668098.6724     144358.58148    102125.09347                  20668106.3754
        30.0004         29.7504
  20780602.3914     288221.43348    197047.81247                  20780609.4144
        28.0004         27.2504
  20748549.6724       1729.26447      7161.83447                  20748555.7774
        25.2504         27.7504
  22782732.8524    -341761.04947   -226532.91846                  22782742.3954
        20.2504         20.2504
  23621214.8754     639660.41645    429411.86046                  23621224.7114
        11.5004         12.7504
  22777313.6804     957436.97747    647272.38746                  22777322.3204
        22.2504         21.2504
 02  7 11 16 43 30.0000000  0  9G26G29G 6G15G17G18G21G22G23
  22478183.3054     534533.95747    365695.27046                  22478190.9614
        20.2504         18.7504
  23388707.4304     663009.71546    453378.58946                  23388715.9774
        15.7504         15.0004
  22066245.5164    1032848.55047    693824.05646                  22066253.9804
        23.0004         23.2504
  20670128.1644     155022.89448    110434.93947                  20670135.7624
        30.5004         29.5004
  20784162.0394     306927.11847    211623.66747                  20784168.9924
        27.7504         27.5004
  20749134.8984       4805.48047      9558.89347                  20749141.1334
        25.0004         27.7504
  22779615.0634    -358145.18347   -239299.74646                  22779624.7464
        20.0004         20.5004
  23628549.9534     678205.49745    459446.92646                  23628559.9184
        11.5004         12.5004
  22788029.4064    1013749.16847    691152.00246                  22788038.2704
        22.0004         21.2504
 02  7 11 16 43 45.0000000  0  9G26G29G 6G15G17G18G21G22G23
  22484488.8284     567668.98346    391514.75546                  22484496.7424
        19.7504         18.7504
  23396181.1804     702287.62446    483984.73046                  23396189.2814
        15.5004         14.5004
  22077492.8054    1091951.89247    739878.55346                  22077501.4694
        23.7504         23.2504
  20672196.1414     165890.76648    118903.39247                  20672203.6214
        30.5004         29.5004
  20787758.8834     325828.83748    226352.26647                  20787765.8834
        28.0004         27.2504
  20749768.3834       8133.55347     12152.20847                  20749774.4884
        25.0004         27.7504
  22776536.5164    -374322.70547   -251905.57446                  22776546.3634
        20.2504         20.7504
  23635931.9774     716997.58945    489674.47346                  23635941.5084
        11.7504         12.5004
  22798779.5314    1070241.32947    735171.84346                  22798788.1134
        22.0004         21.2504
 02  7 11 16 44  0.0000000  0  9G26G29G 6G15G17G18G21G22G23
  22490851.1954     601103.75546    417567.80546                  22490858.8984
        19.5004         18.2504
  23403707.0314     741833.13646    514799.39246                  23403715.1214
        15.2504         15.0004
  22088783.9534    1151286.67347    786113.40346                  22088792.4184
        23.7504         23.5004
  20674303.8914     176966.15348    127533.54447                  20674311.3134
        30.2504         29.5004
  20791393.6884     344930.39147    241236.58647                  20791400.8634
        27.2504         27.2504
  20750450.3674      11717.26447     14944.71747                  20750456.5664
        25.0004         27.5004
  22773498.1954    -390289.49647   -264347.20746                  22773507.8914
        20.5004         20.7504
  23643361.2274     756040.28245    520097.29446                  23643371.6254
        11.2504         12.2504
  22809564.6884    1126917.09647    779334.74946                  22809573.3164
        22.2504         21.0004
 02  7 11 16 44 15.0000000  0  9G26G29G 6G15G17G18G21G22G23
  22497268.5164     634828.45747    443846.78246                  22497276.3014
        20.0004         18.5004
  23411281.5634     781636.45846    545814.95846                  23411290.2974
        14.7504         15.0004
  22100116.9064    1210842.99447    832520.88246                  22100125.3834
        23.5004         23.5004
  20676449.1724     188239.37848    136317.86647                  20676456.7704
        30.0004         29.7504
  20795064.7734     364222.17747    256269.13347                  20795071.8094
        27.2504         27.2504
  20751178.9534      15546.96747     17928.91147                  20751185.1644
        24.7504         27.5004
  22770498.1334    -406055.21847   -276632.15446                  22770507.8634
        20.2504         21.0004
  23650836.6724     795323.71645    550707.72246                  23650846.8134
        11.2504         12.5004
  22820382.8834    1183766.58247    823633.02446                  22820391.4064
        22.0004         21.0004
 02  7 11 16 44 30.0010000  0  9G26G29G 6G15G17G18G21G22G23
  22503741.9034     668845.35947    470353.45246                  22503750.4034
        20.2504         18.5004
  23418905.3494     821700.37646    577033.56446                  23418913.5444
        15.0004         15.0004
  22111493.0284    1270624.76647    879104.03346                  22111501.7864
        22.7504         23.2504
  20678632.1854     199711.42648    145257.12347                  20678639.8884
        29.5004         29.7504
  20798772.4114     383705.70847    271451.09647                  20798779.2824
        27.7504         27.2504
  20751954.9584      19623.02047     21105.06047                  20751960.9584
        25.0004         27.2504
  22767535.9354    -421620.73947   -288761.10546                  22767545.8884
        20.2504         20.5004
  23658358.8104     834850.25445    581507.55246                  23658369.3964
        11.5004         12.5004
  22831234.8644    1240793.45447    868069.52046                  22831243.5054
        22.2504         21.2504
 02  7 11 16 44 45.0010000  0  9G26G29G 6G15G17G18G21G22G23
  22510268.8564     703145.12547    497080.51946                  22510277.0054
        20.5004         18.5004
  23426576.8254     862014.46046    608447.11546                  23426585.1034
        15.2504         14.7504
  22122909.4504    1330619.14147    925852.83946                  22122918.1384
        23.0004         23.2504
  20680851.8254     211376.09448    154346.47447                  20680859.5524
        30.2504         29.5004
  20802515.1854     403373.69147    286776.76547                  20802522.0444
        27.0004         26.7504
  20752776.2864      23940.13047     24469.04447                  20752782.4744
        25.2504         27.5004
  22764611.4114    -436988.74247   -300736.14946                  22764621.0014
        20.0004         20.5004
  23665924.9034     874609.80945    612488.97046                  23665935.3604
        11.5004         12.5004
  22842118.1144    1297985.16647    912634.45646                  22842127.0244
        22.0004         21.0004
 02  7 11 16 45  0.0010000  0  9G26G29G 6G15G17G18G21G22G23
  22516849.2714     737724.38247    524025.37446                  22516857.7944
        20.2504         18.5004
  23434295.4274     902575.85646    640053.36646                  23434303.8924
        15.0004         14.7504
  22134366.6384    1390824.34347    972765.93846                  22134375.2904
        23.5004         23.2504
  20683107.3024     223228.65848    163582.23047                  20683114.7714
        30.7504         29.5004
  20806292.1614     423222.04547    302243.00047                  20806299.0444
        27.2504         27.0004
  20753642.4194      28493.11447     28016.82347                  20753648.5014
        25.2504         27.5004
  22761723.3804    -452165.66546   -312562.29546                  22761733.1104
        19.7504         20.2504
  23673534.8024     914599.08545    643649.39546                  23673546.1614
        11.5004         12.2504
  22853032.1064    1355339.68947    957326.26446                  22853040.7004
        21.7504         20.7504
 02  7 11 16 45 15.0010000  0  9G26G29G 6G15G17G18G21G22G23
  22523482.4194     772581.79647    551186.96846                  22523491.1184
        20.2504         18.7504
  23442060.6224     943383.22946    671851.30846                  23442068.1854
        15.7504         14.7504
  22145862.8334    1451239.01947   1019842.26346                  22145871.6144
        23.2504         23.2504
  20685398.5054     235268.07448    172963.58147                  20685405.7394
        30.0004         29.2504
  20810103.2244     443249.57447    317848.85547                  20810110.2944
        27.0004         27.0004
  20754553.4744      33280.71047     31747.41047                  20754559.4744
        25.2504         27.2504
  22758871.2244    -467152.49647   -324240.31246                  22758881.0014
        20.0004         20.2504
  23681187.5134     954816.65345    674987.69946                  23681197.6064
        11.5004         12.0004
  22863977.0054    1412855.71147   1002143.91046                  22863985.6464
        21.7504         20.7504
 02  7 11 16 45 30.0010000  0  9G26G29G 6G15G17G18G21G22G23
  22530166.9274     807708.58147    578558.46846                  22530175.0634
        20.2504         18.7504
  23449871.3884     984427.61746    703833.92146                  23449879.2904
        15.7504         14.5004
  22157397.6064    1511854.27447   1067074.88146                  22157405.9664
        23.0004         23.0004
  20687723.3494     247485.67748    182483.78447                  20687730.4544
        30.0004         29.0004
  20813946.6614     463447.64847    333587.60447                  20813953.7784
        26.7504         27.0004
  20755507.7164      38294.22847     35654.03247                  20755513.9384
        24.7504         27.2504
  22756054.1614    -481957.76047   -335776.85546                  22756063.5524
        20.2504         20.2504
  23688882.3334     995253.59845    706496.95046                  23688892.9664
        11.5004         12.7504
  22874951.0214    1470524.29447   1047080.44846                  22874959.8964
        21.5004         20.7504
 02  7 11 16 45 45.0010000  0  9G26G29G 6G15G17G18G21G22G23
  22536900.8494     843097.93947    606134.57146                  22536909.0564
        20.0004         19.0004
  23457725.5604    1025702.19046    735995.89146                  23457734.0244
        15.2504         14.7504
  22168969.0364    1572663.15247   1114458.37346                  22168977.4894
        22.7504         23.0004
  20690081.0604     259874.85648    192137.68647                  20690088.5174
        30.0004         29.2504
  20817821.6144     483809.67447    349454.11147                  20817829.1184
        27.0004         27.2504
  20756503.4274      43526.99347     39731.50147                  20756509.6264
        25.0004         27.0004
  22753269.9034    -496588.21447   -347177.18046                  22753279.6924
        20.2504         20.5004
  23696617.9504    1035902.93745    738171.70346                  23696628.4784
        11.7504         12.2504
  22885952.8964    1528338.47547   1092130.42646                  22885962.0524
        21.2504         20.7504
 02  7 11 16 46  0.0010000  0  9G26G29G 6G15G17G18G21G22G23
  22543685.7394     878752.28447    633917.15046                  22543694.1574
        20.0004         19.0004
  23465624.1464    1067209.46646    768339.20146                  23465632.5994
        15.2504         14.7504
  22180578.2244    1633668.04447   1161994.59946                  22180586.8294
        23.2504         23.2504
  20692471.6534     272438.21648    201927.30947                  20692479.3214
        29.5004         29.2504
  20821728.0364     504338.34447    365450.46047                  20821735.7634
        26.7504         27.2504
  20757541.6384      48981.67947     43981.88747                  20757547.7784
        25.5004         27.2504
  22750519.6384    -511041.36447   -358439.35346                  22750529.1694
        20.5004         20.7504
  23704393.6924    1076767.02445    770013.79846                  23704403.6344
        11.7504         12.2504
  22896982.7784    1586300.64647   1137295.71746                  22896991.5364
        21.5004         20.7504
 02  7 11 16 46 15.0010000  0  9G26G29G 6G15G17G18G21G22G23
  22550520.7164     914669.33846    661904.44946                  22550529.1694
        19.5004         18.7504
  23473566.8564    1108947.07246    800862.00846                  23473575.3334
        15.2504         14.5004
  22192223.9584    1694866.58847   1209681.73046                  22192232.3644
        23.5004         23.0004
  20694895.1464     285173.60448    211850.97947                  20694902.6854
        29.7504         29.0004
  20825665.7314     525031.42847    381574.93347                  20825673.2824
        26.5004         27.2504
  20758621.2474      54655.96747     48403.40847                  20758627.1884
        25.5004         27.5004
  22747802.8254    -525319.15347   -369564.87146                  22747812.5794
        20.5004         20.5004
  23712210.4354    1117843.30445    802021.22946                  23712221.0094
        11.7504         12.2504
  22908040.1064    1644408.31147   1182574.38946                  22908048.9814
        21.7504         20.7504
 02  7 11 16 46 30.0010000  0  9G26G29G 6G15G17G18G21G22G23
  22557405.8104     950851.30746    690098.17146                  22557414.0994
        19.7504         18.5004
  23481553.2714    1150917.06146    833565.86246                  23481561.8884
        15.2504         14.2504
  22203906.8174    1756260.93047   1257521.42646                  22203915.4584
        23.2504         23.0004
  20697351.7244     298083.44748    221910.59047                  20697359.3804
        29.2504         28.7504
  20829635.2314     545891.42047    397829.46347                  20829642.8174
        26.5004         27.2504
  20759743.4114      60552.24747     52997.91247                  20759749.4354
        25.5004         27.2504
  22745119.4034    -539418.95047   -380551.69846                  22745128.9464
        20.2504         20.5004
  23720067.8334    1159133.89245    834195.66146                  23720078.4424
        11.5004         12.5004
  22919125.6854    1702663.64647   1227968.12746                  22919134.2314
        21.5004         20.5004
 02  7 11 16 46 45.0010000  0  9G26G29G 6G15G17G18G21G22G23
  22564341.0754     987295.39847    718496.14546                  22564349.6224
        20.2504         18.5004
  23489583.8884    1193116.73846    866448.70646                  23489592.0834
        15.0004         14.0004
  22215626.7004    1817848.30547   1305511.53646                  22215635.0604
        23.7504         23.0004
  20699840.8564     311165.18548    232104.14647                  20699848.5364
        29.0004         29.0004
  20833636.0994     566915.70047    414212.01347                  20833643.8844
        26.5004         27.2504
  20760907.1064      66667.85847     57763.32347                  20760913.1184
        25.0004         27.5004
  22742469.7634    -553343.51747   -391401.98246                  22742479.2594
        20.5004         20.5004
  23727965.4894    1200635.97845    866534.88846                  23727976.6264
        11.5004         12.0004
  22930239.1304    1761063.77447   1273474.69446                  22930247.7714
        21.5004         20.5004
 02  7 11 16 47  0.0010000  0  9G26G29G 6G15G17G18G21G22G23
  22571323.8724    1023990.58447    747089.76046                  22571332.3494
        20.7504         18.5004
  23497655.4664    1235534.79146    899501.70946                  23497663.7784
        15.5004         14.5004
  22227380.8644    1879617.46047   1353643.30046                  22227389.4814
        23.2504         23.0004
  20702361.0754     324407.84748    242423.08747                  20702368.5674
        29.7504         28.7504
  20837666.0834     588093.35147    430714.06647                  20837673.4704
        26.5004         27.2504
  20762110.3414      72991.78647     62691.07147                  20762116.5404
        24.7504         27.5004
  22739851.0754    -567103.86947   -402124.31546                  22739860.6064
        20.5004         20.5004
  23735901.1694    1242338.14545    899030.02245                  23735911.7784
        11.5004         11.5004
  22941377.6854    1819597.40047   1319085.27246                  22941386.8414
        21.5004         20.7504
 02  7 11 16 47 15.0010000  0  9G26G29G 6G15G17G18G21G22G23
  22578356.1064    1060943.96347    775884.58546                  22578364.3604
        21.0004         18.7504
  23505770.1384    1278178.54146    932730.56146                  23505777.9934
        14.7504         14.2504
  22239170.9744    1941575.51147   1401922.24446                  22239179.7434
        22.7504         22.7504
  20704913.1144     337818.93048    252873.27447                  20704920.8884
        29.5004         29.0004
  20841726.6144     609431.68947    447341.33247                  20841734.1884
        26.5004         27.0004
  20763354.7394      79531.32347     67786.83147                  20763360.8104
        25.0004         27.5004
  22737265.2314    -580692.52447   -412712.84846                  22737274.9974
        20.0004         20.5004
  23743876.2084    1284247.51345    931686.63345                  23743886.2434
        11.0004         11.2504
  22952542.9034    1878271.65147   1364805.43346                  22952551.6964
        21.2504         20.5004
 02  7 11 16 47 30.0010000  0  9G26G29G 6G15G17G18G21G22G23
  22585437.1464    1098155.41547    804880.49846                  22585445.1774
        21.2504         18.5004
  23513927.8104    1321047.88146    966135.22346                  23513935.8644
        15.0004         14.2504
  22250997.3174    2003722.21247   1450348.20146                  22251005.9464
        23.0004         22.5004
  20707497.3334     351398.43448    263454.69947                  20707504.8964
        29.7504         29.0004
  20845817.6384     630930.78647    464093.86447                  20845825.2714
        26.5004         27.2504
  20764640.3174      86286.44547     73050.57047                  20764646.4814
        25.0004         27.5004
  22734712.1464    -594109.44847   -423167.56346                  22734721.7944
        20.2504         20.5004
  23751890.9584    1326363.69945    964504.38945                  23751901.3454
        10.5004         11.7504
  22963734.9424    1937086.29147   1410634.99246                  22963743.8174
        21.0004         20.2504
 02  7 11 16 47 45.0010000  0  9G26G29G 6G15G17G18G21G22G23
  22592566.2314    1135619.56247    834073.31246                  22592574.8724
        20.2504         18.7504
  23522127.7394    1364137.22746    999711.32046                  23522136.4384
        14.7504         14.0004
  22262858.4354    2066052.13447   1498916.92046                  22262867.1104
        22.2504         22.2504
  20710112.3964     365141.21048    274163.34247                  20710119.7824
        30.0004         29.0004
  20849938.4194     652585.54747    480967.68947                  20849946.2634
        26.5004         27.2504
  20765965.7084      93251.80847     78478.13247                  20765971.7554
        25.0004         27.5004
  22732190.5284    -607359.89247   -433492.55746                  22732200.0714
        20.2504         20.2504
  23759943.5134    1368681.25345    997479.03445                  23759954.5444
        10.7504         11.7504
  22974952.9664    1996035.80147   1456569.64746                  22974961.8644
        21.0004         20.5004
 02  7 11 16 48  0.0010000  0  9G26G29G 6G15G17G18G21G22G23
  22599742.6854    1173330.13847    863458.15546                  22599751.2674
        20.5004         18.5004
  23530368.0754    1407440.30546   1033453.94946                  23530376.5994
        15.0004         14.0004
  22274753.0444    2128558.90547   1547623.44146                  22274761.7904
        22.2504         22.5004
  20712757.5754     379040.99948    284994.34147                  20712765.1384
        30.0004         29.0004
  20854087.7714     674389.80547    497958.01747                  20854095.5794
        26.5004         27.2504
  20767329.9814     100421.26647     84064.73047                  20767336.0994
        24.7504         27.5004
  22729699.8494    -620449.83747   -443692.48546                  22729709.5214
        20.5004         20.5004
  23768033.4974    1411193.83345   1030605.66845                  23768045.1614
        11.0004         11.2504
  22986194.9114    2055113.88947   1502604.49346                  22986203.9384
        20.7504         20.5004
 02  7 11 16 48 15.0010000  0  9G26G29G 6G15G17G18G21G22G23
  22606964.9034    1211284.13047    893032.67446                  22606973.3684
        20.5004         18.7504
  23538648.2634    1450954.11246   1067360.78546                  23538656.2944
        14.7504         14.5004
  22286680.7864    2191239.52047   1596465.43046                  22286690.0134
        22.2504         22.2504
  20715431.8494     393095.14848    295945.61347                  20715439.3764
        30.0004         29.0004
  20858264.7314     696340.70347    515062.61147                  20858272.4234
        26.5004         27.5004
  20768732.6854     107792.05847     89808.22247                  20768739.0834
        24.2504         27.7504
  22727238.9034    -633382.01847   -453769.48746                  22727248.2944
        21.0004         20.5004
  23776160.5604    1453898.11245   1063881.67145                  23776170.8414
        11.2504         11.7504
  22997461.0054    2114317.50247   1548737.14946                  22997469.7394
        21.0004         20.2504
 02  7 11 16 48 30.0010000  0  9G26G29G 6G15G17G18G21G22G23
  22614234.1144    1249483.40447    922798.31746                  22614242.2744
        21.2504         18.7504
  23546969.5834    1494680.47546   1101433.24946                  23546978.2004
        14.7504         14.5004
  22298641.8724    2254095.68447   1645444.20846                  22298650.8064
        22.0004         22.5004
  20718136.2004     407305.61648    307018.69747                  20718143.7514
        29.7504         29.5004
  20862470.2474     718440.40847    532283.15247                  20862477.9274
        26.5004         27.2504
  20770173.9664     115366.21247     95710.16947                  20770180.2944
        24.7504         27.5004
  22724808.1144    -646154.38447   -463721.94846                  22724817.1534
        21.0004         20.2504
  23784323.4584    1496795.93445   1097308.49746                  23784333.5994
        11.5004         12.2504
  23008751.3724    2173648.36347   1594968.96646                  23008760.4704
        20.7504         20.0004
 02  7 11 16 48 45.0010000  0  9G26G29G 6G15G17G18G21G22G23
  22621548.6064    1287922.13347    952750.54146                  22621556.5094
        20.7504         18.7504
  23555329.5134    1538613.59246   1135666.81246                  23555337.9074
        14.5004         14.2504
  22310635.2864    2317121.61047   1694555.26046                  22310644.4074
        22.0004         22.2504
  20720868.9744     421666.89348    318209.29947                  20720876.6304
        29.7504         29.0004
  20866703.2004     740683.24447    549615.22047                  20866710.9504
        26.7504         27.5004
  20771652.5754     123138.00547    101766.11347                  20771658.8564
        24.7504         27.5004
  22722407.0134    -658772.53547   -473554.25046                  22722416.2394
        21.2504         20.7504
  23792522.4424    1539881.31245   1130881.45046                  23792532.2084
        11.7504         12.2504
  23020064.7944    2233100.60247   1641295.35046                  23020073.9034
        21.0004         20.0004
 02  7 11 16 49  0.0010000  0  9G26G29G 6G15G17G18G21G22G23
  22628908.6924    1326598.82147    982888.19846                  22628916.7824
        20.7504         18.5004
  23563728.9894    1582751.82446   1170060.22146                  23563737.1854
        15.0004         14.5004
  22322660.6774    2380315.55747   1743797.24546                  22322669.6694
        21.5004         22.0004
  20723630.3564     436177.63948    329516.36447                  20723638.0244
        30.0004         29.0004
  20870962.8104     763067.93547    567057.83247                  20870970.5244
        26.7504         27.2504
  20773169.0674     131105.90447    107974.87747                  20773175.1734
        25.0004         27.2504
  22720034.9974    -671237.93347   -483267.52646                  22720044.4354
        21.5004         21.0004
  23800757.0214    1583152.62346   1164599.32245                  23800766.7514
        12.0004         11.7504
  23031400.7714    2292672.49647   1687714.98046                  23031409.8804
        21.0004         19.7504
 02  7 11 16 49 15.0010000  0  9G26G29G 6G15G17G18G21G22G23
  22636313.7084    1365513.63947   1013211.40146                  22636321.9034
        20.7504         18.5004
  23572166.8884    1627095.29546   1204613.53546                  23572175.3414
        15.0004         14.0004
  22334718.3964    2443677.75747   1793170.33346                  22334727.2004
        22.0004         22.0004
  20726420.0364     450838.27048    340940.22947                  20726427.4704
        29.7504         29.0004
  20875249.4114     785594.95447    584611.34447                  20875257.1034
        26.7504         27.2504
  20774722.9034     139270.30247    114336.74847                  20774729.0444
        25.0004         27.5004
  22717692.1064    -683549.88147   -492861.22846                  22717701.2394
        21.5004         21.0004
  23809026.4504    1626609.93846   1198462.10446                  23809036.9314
        12.0004         12.2504
  23042760.0134    2352364.22847   1734227.98246                  23042768.8064
        20.5004         19.7504
 02  7 11 16 49 30.0010000  0  9G26G29G 6G15G17G18G21G22G23
  22643764.7244    1404667.68147   1043721.00146                  22643772.6734
        20.0004         18.2504
  23580644.7554    1671645.14046   1239327.67546                  23580653.2674
        15.0004         14.5004
  22346808.0674    2507209.16247   1842675.27446                  22346816.9544
        21.7504         22.0004
  20729238.6064     465650.02148    352481.85047                  20729246.0524
        29.5004         29.0004
  20879563.3494     808265.49547    602276.69547                  20879570.8174
        26.7504         27.2504
  20776314.0134     147632.41447    120852.68747                  20776320.0954
        25.0004         27.2504
  22715378.7634    -695707.37247   -502334.56846                  22715388.1184
        21.5004         21.0004
  23817331.6464    1670254.02445   1232470.42846                  23817341.8334
        11.7504         12.0004
  23054142.0994    2412176.81347   1780835.16446                  23054151.0564
        20.2504         19.7504
 02  7 11 16 49 45.0010000  0  9G26G29G 6G15G17G18G21G22G23
  22651260.4504    1444059.47447   1074415.89646                  22651268.6574
        21.2504         18.5004
  23589161.0914    1716399.76446   1274201.36646                  23589169.6034
        15.2504         14.0004
  22358929.5054    2570908.30447   1892310.91246                  22358938.4624
        21.5004         21.5004
  20732085.7474     480611.72348    364140.31047                  20732093.2514
        29.0004         28.7504
  20883904.7784     831078.29447    620052.89347                  20883912.1774
        26.7504         27.2504
  20777942.6774     156190.91947    127521.65047                  20777948.8064
        24.7504         27.2504
  22713094.0674    -707711.56747   -511688.46346                  22713103.2944
        21.2504         21.0004
  23825672.0444    1714083.45345   1266623.17846                  23825682.5244
        11.7504         12.0004
  23065546.8254    2472108.70947   1827535.30846                  23065555.5244
        20.5004         19.5004
 02  7 11 16 50  0.0010000  0  9G26G29G 6G15G17G18G21G22G23
  22658800.4354    1483680.99847   1105289.78346                  22658808.5604
        20.0004         18.5004
  23597715.0134    1761351.11046   1309228.36646                  23597722.9974
        14.7504         14.5004
  22371081.5994    2634767.13447   1942070.98446                  22371090.1104
        21.7504         21.5004
  20734959.9424     495715.51448    375909.50047                  20734967.7284
        29.2504         29.0004
  20888271.4584     854025.60447    637933.90447                  20888278.8214
        26.7504         27.0004
  20779607.2714     164937.87847    134337.47347                  20779613.5174
        24.7504         27.2504
  22710837.5914    -719570.30047   -520929.01046                  22710847.0174
        21.2504         21.0004
  23834046.1384    1758090.04546   1300913.96846                  23834056.6534
        12.0004         12.2504
  23076972.3724    2532151.83447   1874322.13246                  23076981.2354
        20.5004         20.0004
 02  7 11 16 50 15.0010000  0  9G26G29G 6G15G17G18G21G22G23
  22666384.2314    1523533.51747   1136343.66046                  22666392.2744
        21.0004         18.2504
  23606306.9744    1806500.62446   1344409.76646                  23606314.6884
        15.0004         14.2504
  22383264.2004    2698786.85647   1991956.43146                  22383273.1814
        21.2504         21.5004
  20737861.2474     510962.90848    387790.58347                  20737868.8214
        29.7504         28.7504
  20892664.0524     877108.82247    655920.81847                  20892671.5444
        26.7504         27.2504
  20781307.7004     173874.59247    141301.15647                  20781313.7244
        24.7504         27.2504
  22708608.9974    -731282.02247   -530054.99346                  22708618.0364
        21.5004         21.0004
  23842454.4114    1802274.87246   1335343.65446                  23842465.7824
        12.0004         12.0004
  23088419.9354    2592307.37247   1921196.55246                  23088429.0564
        20.5004         19.5004
 02  7 11 16 50 30.0010000  0  9G26G29G 6G15G17G18G21G22G23
  22674013.2314    1563624.02347   1167582.98146                  22674020.8644
        21.0004         18.5004
  23614937.5754    1851855.07346   1379750.86746                  23614945.5834
        14.5004         14.0004
  22395478.5834    2762974.34347   2041972.58946                  22395487.4934
        21.0004         21.2504
  20740791.7314     526361.02348    399789.10347                  20740799.3174
        29.2504         28.5004
  20897083.7634     900335.26147    674019.32647                  20897091.2434
        26.7504         27.2504
  20783045.7944     183008.32547    148418.36147                  20783051.8764
        24.7504         27.2504
  22706409.5754    -742839.37347   -539060.69546                  22706418.7434
        22.0004         21.2504
  23850897.9664    1846644.72645   1369917.50246                  23850908.7164
        11.7504         12.2504
  23099889.9194    2652582.18147   1968163.90246                  23099898.8414
        20.5004         19.7504
 02  7 11 16 50 45.0010000  0  9G26G29G 6G15G17G18G21G22G23
  22681685.4274    1603943.15747   1199000.46346                  22681693.1774
        21.0004         18.2504
  23623605.4744    1897405.22146   1415244.45346                  23623613.8334
        14.5004         14.2504
  22407723.3414    2827320.21547   2092112.17746                  22407731.8884
        21.0004         20.7504
  20743748.6384     541900.72648    411897.95847                  20743756.2004
        29.2504         28.7504
  20901529.1924     923695.73847    692222.27947                  20901536.6034
        26.7504         27.2504
  20784819.5674     192329.87147    155681.92447                  20784825.6144
        24.7504         27.2504
  22704237.9034    -754251.51947   -547953.25246                  22704247.0134
        22.2504         21.5004
  23859374.3414    1891190.27945   1404628.28146                  23859384.9854
        11.7504         12.0004
  23111380.6224    2712966.86747   2015216.86446                  23111389.1924
        20.0004         19.2504
 02  7 11 16 51  0.0010000  0  9G26G29G 6G15G17G18G21G22G23
  22689401.1064    1644489.02547   1230594.62646                  22689409.2314
        20.5004         18.2504
  23632310.1384    1943149.12446   1450889.02346                  23632319.0484
        14.5004         14.2504
  22419997.7314    2891822.49547   2142373.63446                  22420006.5484
        21.2504         21.0004
  20746732.4194     557580.35848    424115.84347                  20746739.8884
        29.5004         28.7504
  20905999.8024     947188.53947    710528.34247                  20906007.1774
        27.0004         27.2504
  20786628.7244     201837.30147    163090.31347                  20786634.7594
        24.7504         27.2504
  22702093.4504    -765520.38447   -556734.15846                  22702102.5604
        22.2504         21.5004
  23867884.3564    1935909.37045   1439474.26146                  23867894.7084
        11.7504         12.5004
  23122892.0214    2773459.47047   2062353.92946                  23122900.5914
        20.0004         19.2504
 02  7 11 16 51 15.0010000  0  9G26G29G 6G15G17G18G21G22G23
  22697160.7394    1685265.94947   1262368.81846                  22697168.8064
        20.2504         18.2504
  23641052.7634    1989090.87846   1486687.76446                  23641061.9314
        14.5004         14.0004
  22432302.5134    2956485.33547   2192760.20646                  22432311.2594
        21.0004         21.0004
  20749743.7244     573404.39348    436446.24547                  20749751.2164
        29.7504         28.2504
  20910496.3174     970818.13147    728941.00847                  20910503.6814
        27.0004         27.2504
  20788474.1774     211535.08147    170647.02447                  20788480.2714
        24.7504         27.2504
  22699977.2084    -776641.23647   -565399.73146                  22699986.3174
        22.7504         21.7504
  23876427.9744    1980806.22845   1474458.75845                  23876437.6574
        11.2504         11.7504
  23134424.7474    2834064.15647   2109578.32546                  23134433.3174
        20.0004         19.5004
 02  7 11 16 51 30.0010000  0  9G26G29G 6G15G17G18G21G22G23
  22704963.7864    1726270.73146   1294320.57446                  22704971.6774
        19.7504         18.0004
  23649832.4034    2035227.43846   1522638.29446                  23649841.5954
        14.5004         14.2504
  22444637.5834    3021305.67647   2243269.50146                  22444646.6814
        20.5004         20.7504
  20752781.7714     589370.02048    448886.98847                  20752789.0404
        30.0004         28.5004
  20915018.2314     994581.71347    747458.07847                  20915025.5484
        27.0004         27.2504
  20790355.3414     221420.25547    178349.76747                  20790361.4354
        24.5004         27.0004
  22697888.5754    -787617.20447   -573952.40646                  22697897.7674
        22.7504         21.7504
  23885004.4354    2025877.60545   1509579.24745                  23885014.5284
        11.0004         11.7504
  23145977.9194    2894777.75147   2156887.59446                  23145986.4544
        20.0004         19.2504
 02  7 11 16 51 45.0010000  0  9G26G29G 6G15G17G18G21G22G23
  22712808.7474    1767497.32146   1326445.15646                  22712816.6144
        19.7504         18.0004
  23658647.8724    2081552.68246   1558735.85746                  23658656.4784
        14.7504         14.2504
  22457001.3804    3086277.40647   2293896.76646                  22457010.3374
        21.0004         21.0004
  20755845.8024     605471.44848    461433.54347                  20755853.2474
        30.0004         28.7504
  20919564.8334    1018473.58447    766075.12047                  20919572.1614
        27.2504         27.2504
  20792270.7394     231487.00447    186193.98747                  20792276.7634
        24.5004         27.0004
  22695826.4584    -798453.97347   -582396.61646                  22695835.9074
        23.0004         21.7504
  23893613.6304    2071117.34845   1544830.95145                  23893624.0524
        11.0004         11.2504
  23157551.3804    2955594.24547   2204277.03446                  23157560.0214
        20.0004         19.2504
 02  7 11 16 52  0.0010000  0  9G26G29G 6G15G17G18G21G22G23
  22720696.7554    1808948.63146   1358744.84346                  22720704.5994
        19.5004         18.0004
  23667499.5284    2128069.46746   1594982.66446                  23667508.0634
        14.5004         14.5004
  22469394.3964    3151403.16447   2344644.04646                  22469403.5054
        20.5004         20.7504
  20758936.2164     621711.69948    474088.27747                  20758943.7084
        30.0004         28.7504
  20924136.1304    1042496.43347    784794.21547                  20924143.4234
        27.2504         27.2504
  20794221.6464     241738.18847    194181.92447                  20794227.8104
        24.7504         27.2504
  22693791.2784    -809148.37547   -590729.89946                  22693800.2244
        23.0004         21.7504
  23902255.0754    2116528.01745   1580215.83645                  23902267.0564
        11.2504         11.0004
  23169144.1854    3016516.29247   2251748.72646                  23169152.5674
        20.0004         19.0004
 02  7 11 16 52 15.0010000  0  9G26G29G 6G15G17G18G21G22G23
  22728626.7164    1850620.11046   1391216.10446                  22728634.7824
        19.2504         18.0004
  23676387.4814    2174773.28046   1631375.22046                  23676397.0484
        14.7504         14.5004
  22481815.9034    3216678.55747   2395507.92746                  22481824.6034
        21.2504         20.5004
  20762052.3104     638086.51748    486847.87447                  20762059.7434
        30.0004         28.7504
  20928731.9274    1066646.36847    803612.33947                  20928739.2204
        27.2504         27.2504
  20796206.8174     252169.45547    202310.18347                  20796212.9704
        25.0004         27.2504
  22691782.6064    -819704.76647   -598955.64046                  22691791.6464
        22.5004         21.7504
  23910928.3104    2162105.06345   1615730.36245                  23910939.5404
        11.7504         11.5004
  23180756.3494    3077539.42146   2299299.18746                  23180764.5674
        19.7504         18.7504
 02  7 11 16 52 30.0010000  0  9G26G29G 6G15G17G18G21G22G23
  22736598.7634    1892515.30947   1423861.69646                  22736607.3214
        20.0004         17.7504
  23685310.7244    2221667.48246   1667916.11846                  23685319.6814
        14.5004         14.0004
  22494266.6614    3282106.95447   2446491.03846                  22494275.8764
        20.2504         20.5004
  20765194.4744     654599.59948    499715.20447                  20765201.8964
        30.2504         29.0004
  20933352.2314    1090926.86647    822532.19347                  20933359.6774
        27.0004         27.0004
  20798226.7784     262784.49347    210581.64847                  20798232.8604
        24.7504         27.2504
  22689800.6224    -830119.64447   -607071.09946                  22689809.9314
        22.2504         21.7504
  23919633.5214    2207851.88046   1651377.17345                  23919645.1734
        12.5004         11.7504
  23192388.6854    3138667.04546   2346931.06846                  23192397.1854
        19.7504         19.0004
 02  7 11 16 52 45.0010000  0  9G26G29G 6G15G17G18G21G22G23
  22744613.5054    1934631.48747   1456679.47046                  22744621.5834
        20.0004         17.5004
  23694270.6304    2268749.61546   1704603.46046                  23694279.3644
        15.0004         14.2504
  22506746.0214    3347685.70047   2497591.30146                  22506755.1184
        20.2504         20.2504
  20768362.7084     671248.52148    512688.38447                  20768370.3414
        30.2504         29.0004
  20937997.1384    1115335.64247    841552.00447                  20938004.5484
        27.0004         27.2504
  20800281.0214     273580.72747    218994.29347                  20800287.0794
        24.7504         27.2504
  22687845.1534    -840395.13747   -615077.94346                  22687854.2514
        22.2504         21.7504
  23928370.9114    2253765.68946   1687154.10646                  23928381.6854
        12.7504         12.5004
  23204040.3804    3199896.50546   2394642.29846                  23204049.1034
        19.7504         18.7504
 02  7 11 16 53  0.0010000  0  9G26G29G 6G15G17G18G21G22G23
  22752669.6464    1976966.42846   1489667.70146                  22752677.5604
        19.5004         17.7504
  23703264.9194    2316017.19446   1741435.30846                  23703273.5244
        14.5004         14.5004
  22519253.4814    3413412.39747   2548806.84546                  22519262.5564
        20.5004         20.5004
  20771556.4664     688031.13748    525765.74047                  20771563.9114
        30.0004         29.0004
  20942666.0214    1139870.56847    860670.11047                  20942673.5954
        26.7504         27.2504
  20802369.6384     284555.88047    227546.35747                  20802375.7674
        25.0004         27.2504
  22685915.8104    -850533.39947   -622977.86246                  22685924.7204
        22.0004         21.5004
  23937139.4894    2299843.97946   1723059.22246                  23937150.1574
        12.2504         12.0004
  23215710.8644    3261225.33446   2442430.96846                  23215719.4114
        19.7504         19.0004
 02  7 11 16 53 15.0010000  0  9G26G29G 6G15G17G18G21G22G23
  22760766.6064    2019516.86646   1522823.86146                  22760774.9894
        19.5004         18.0004
  23712294.3964    2363466.93546   1778409.09946                  23712303.1774
        14.7504         14.2504
  22531788.3804    3479283.84847   2600135.19546                  22531797.5244
        20.0004         20.5004
  20774775.0994     704944.58448    538945.04347                  20774782.6964
        30.0004         29.2504
  20947358.0284    1164528.67447    879884.21347                  20947365.6734
        26.7504         27.2504
  20804491.7474     295706.92847    236235.48847                  20804497.8064
        25.2504         27.2504
  22684012.3414    -860537.33447   -630773.10946                  22684021.3924
        22.2504         21.5004
  23945938.1854    2346083.52145   1759089.98546                  23945948.7004
        11.7504         12.0004
  23227399.7314    3322650.35946   2490294.59746                  23227408.3724
        19.5004         18.7504
 02  7 11 16 53 30.0010000  0  9G26G29G 6G15G17G18G21G22G23
  22768905.0604    2062284.96146   1556149.62746                  22768913.2314
        19.0004         17.5004
  23721359.2864    2411101.09346   1815526.58646                  23721367.3644
        15.0004         14.0004
  22544351.1694    3545302.09647   2651577.92446                  22544360.3254
        20.5004         20.5004
  20778018.8724     721991.19648    552228.11247                  20778026.3884
        30.2504         29.0004
  20952074.3104    1189312.25847    899196.08747                  20952081.8374
        26.7504         27.2504
  20806647.5994     307036.18547    245063.46747                  20806653.6224
        25.2504         27.2504
  22682134.6384    -870404.59047   -638461.85446                  22682144.0634
        22.2504         21.7504
  23954768.1224    2392486.31545   1795247.94045                  23954778.4624
        11.7504         11.7504
  23239107.1464    3384173.61246   2538234.76746                  23239115.6574
        19.7504         18.7504
 02  7 11 16 53 45.0010000  0  9G26G29G 6G15G17G18G21G22G23
  22777084.0214    2105264.71146   1589640.31446                  22777092.2514
        19.2504         17.2504
  23730457.4034    2458913.53246   1852783.00446                  23730466.0094
        15.0004         14.2504
  22556940.8334    3611461.09147   2703130.33546                  22556949.9074
        20.2504         20.2504
  20781286.8414     739165.13648    565610.38847                  20781294.4504
        30.0004         28.7504
  20956813.3644    1214215.77947    918601.41447                  20956820.9624
        26.7504         27.0004
  20808836.2164     318537.84047    254025.79247                  20808842.2864
        24.7504         27.2504
  22680281.6064    -880141.01147   -646048.64546                  22680290.8334
        23.0004         22.0004
  23963628.6064    2439046.15245   1831528.27346                  23963639.2044
        11.7504         12.0004
  23250832.0284    3445789.07147   2586246.77946                  23250840.7984
        20.0004         18.7504
 02  7 11 16 54  0.0010000  0  9G26G29G 6G15G17G18G21G22G23
  22785303.6614    2148459.93146   1623298.90846                  22785311.8334
        18.5004         17.2504
  23739590.6304    2506908.18846   1890181.40646                  23739599.6574
        14.7504         14.2504
  22569558.1924    3677764.61347   2754795.35146                  22569567.3024
        20.0004         20.2504
  20784579.9034     756470.57948    579095.14047                  20784587.5714
        30.2504         29.0004
  20961575.9424    1239243.21947    938103.31147                  20961583.5174
        26.7504         27.0004
  20811058.4894     330215.82547    263125.51547                  20811064.6884
        24.5004         27.0004
  22678454.6694    -889742.62147   -653530.40146                  22678463.9074
        23.0004         22.0004
  23972519.0914    2485766.77546   1867933.91546                  23972529.6774
        12.2504         12.0004
  23262575.6854    3507500.56446   2634333.62946                  23262584.3494
        19.7504         18.7504
 02  7 11 16 54 15.0010000  0  9G26G29G 6G15G17G18G21G22G23
  22793563.2314    2191864.34546   1657120.49746                  22793571.1814
        19.0004         17.2504
  23748756.9424    2555078.65546   1927716.79246                  23748765.0564
        15.0004         14.2504
  22582201.6774    3744206.28947   2806568.02346                  22582210.5404
        20.5004         20.5004
  20787896.9034     773901.43148    592677.61947                  20787904.7474
        29.7504         29.2504
  20966360.8414    1264388.43847    957696.98047                  20966368.4854
        26.7504         27.0004
  20813313.0444     342064.01447    272357.85947                  20813319.2674
        24.5004         27.2504
  22676651.9274    -899215.53847   -660911.86946                  22676660.9784
        22.7504         22.0004
  23981439.1534    2532641.77546   1904459.82846                  23981449.5054
        12.2504         12.5004
  23274336.1774    3569301.68546   2682490.32046                  23274345.0284
        19.7504         18.7504
 02  7 11 16 54 30.0010000  0  9G26G29G 6G15G17G18G21G22G23
  22801864.1854    2235484.39346   1691110.12246                  22801871.8884
        18.7504         17.5004
  23757958.4274    2603431.31846   1965394.16246                  23757966.2944
        14.7504         14.2504
  22594872.7244    3810792.54847   2858453.36346                  22594881.8334
        20.0004         20.2504
  20791239.3884     791464.41648    606363.05547                  20791247.1614
        30.0004         29.0004
  20971169.5914    1289658.23347    977387.72147                  20971176.9784
        26.5004         26.7504
  20815601.4034     354088.98947    281727.97047                  20815607.5674
        24.5004         27.2504
  22674875.1614    -908552.89847   -668187.70346                  22674884.1424
        23.0004         22.2504
  23990390.3494    2579677.53446   1941110.99746                  23990401.5674
        12.2504         12.5004
  23286114.6854    3631198.87046   2730721.86546                  23286123.2314
        19.7504         18.5004
 02  7 11 16 54 45.0010000  0  9G26G29G 6G15G17G18G21G22G23
  22810205.0134    2279317.39646   1725265.68646                  22810213.1854
        19.2504         17.2504
  23767194.0134    2651963.59246   2003211.48646                  23767202.5714
        15.2504         13.7504
  22607570.4114    3877520.60447   2910449.18546                  22607579.4274
        20.2504         20.2504
  20794606.0214     809157.03048    620149.49747                  20794613.4424
        30.2504         28.7504
  20976001.5674    1315050.00447    997173.50447                  20976009.0954
        26.2504         26.7504
  20817922.8414     366288.13247    291233.79247                  20817929.1344
        24.5004         27.2504
  22673123.5054    -917757.37347   -675359.99646                  22673132.7204
        23.0004         22.0004
  23999370.5444    2626871.13945   1977885.19546                  23999381.2354
        11.2504         12.0004
  23297911.0364    3693189.30146   2779026.06646                  23297919.9934
        19.5004         18.5004
 02  7 11 16 55  0.0010000  0  9G26G29G 6G15G17G18G21G22G23
  22818586.8724    2323364.09946   1759587.75946                  22818595.0094
        19.5004         17.2504
  23776463.0834    2700676.27346   2041169.38946                  23776471.7824
        14.7504         14.0004
  22620295.5444    3944391.32847   2962556.17846                  22620304.8174
        20.0004         20.2504
  20797997.7244     826980.35948    634037.79447                  20798005.0174
        29.5004         28.7504
  20980856.8174    1340564.91847   1017055.24047                  20980864.1574
        26.5004         26.7504
  20820277.6144     378662.41847    300876.08947                  20820283.7554
        23.7504         27.0004
  22671397.5214    -926827.69547   -682427.75046                  22671406.6534
        23.0004         22.2504
  24008381.2314    2674223.32645   2014782.92246                  24008392.4384
        10.5004         12.2504
  23309725.6064    3755273.87346   2827403.63146                  23309734.4114
        19.2504         18.5004
 02  7 11 16 55 15.0010000  0  9G26G29G 6G15G17G18G21G22G23
  22827008.5054    2367619.68446   1794072.60546                  22827017.0174
        19.2504         17.5004
  23785766.5054    2749564.29746   2079263.92446                  23785774.5014
        14.5004         14.0004
  22633046.9034    4011399.75347   3014770.47846                  22633056.2354
        20.0004         20.2504
  20801413.3804     844929.72748    648024.30247                  20801420.7554
        30.5004         29.0004
  20985734.7784    1366198.33447   1037029.31847                  20985742.2244
        26.7504         27.0004
  20822664.7314     391207.08747    310651.15347                  20822670.9194
        23.7504         27.0004
  22669695.9664    -935768.53947   -689394.61846                  22669705.2164
        23.0004         22.0004
  24017420.7474    2721729.07245   2051800.30845                  24017432.0834
        10.0004         11.7504
  23321556.7634    3817447.61246   2875850.66746                  23321565.5094
        19.5004         18.5004
 02  7 11 16 55 30.0010000  0  9G26G29G 6G15G17G18G21G22G23
  22835470.0284    2412084.28946   1828720.32646                  22835478.5284
        19.0004         17.5004
  23795102.9504    2798627.95046   2117495.32846                  23795111.7904
        14.2504         13.7504
  22645824.2554    4078545.99446   3067092.15646                  22645833.5994
        19.5004         20.0004
  20804853.3174     863005.61248    662109.39947                  20804860.7634
        30.7504         29.0004
  20990634.9814    1391950.67247   1057096.05547                  20990642.6854
        26.5004         27.0004
  20825084.2474     403922.39247    320559.17447                  20825090.3644
        24.0004         27.0004
  22668019.3414    -944579.67447   -696260.39846                  22668028.4274
        23.0004         22.2504
  24026490.5834    2769388.53345   2088937.48445                  24026501.6034
        10.2504         11.7504
  23333404.9424    3879710.70946   2924367.34546                  23333413.4894
        19.5004         18.5004
 02  7 11 16 55 45.0010000  0  9G26G29G 6G15G17G18G21G 3G23
  22843970.2314    2456754.21646   1863528.04346                  22843979.2594
        19.2504         17.5004
  23804472.3884    2847863.37946   2155860.55846                  23804480.7244
        14.2504         13.7504
  22658627.6384    4145826.27046   3119518.27846                  22658636.4664
        19.7504         19.7504
  20808316.2084     881204.56548    676290.39647                  20808323.6064
        30.5004         29.0004
  20995557.6304    1417818.40647   1077252.71047                  20995565.3684
        26.5004         27.0004
  20827535.8334     416804.88047    330597.47547                  20827542.1494
        24.2504         27.2504
  22666366.6774    -953264.22447   -703027.55246                  22666375.8214
        23.0004         22.2504
  23906260.8104      -3165.95356
        12.2504
  23345269.6924    3942059.37046   2972950.69646                  23345279.0134
        19.2504         18.5004
 02  7 11 16 56  0.0010000  0  9G26G29G 6G15G17G18G21G 3G23
  22852510.0834    2501630.83646   1898496.81046                  22852518.6064
        18.7504         17.5004
  23813874.4424    2897271.99046   2194360.74046                  23813883.4234
        14.0004         13.5004
  22671456.4814    4213241.88946   3172049.87046                  22671465.6854
        19.5004         19.7504
  20811803.4034     899528.06948    690568.44647                  20811810.9074
        31.0004         28.7504
  21000502.4974    1443803.19647   1097500.57647                  21000510.0014
        26.5004         26.7504
  20830019.2084     429856.02347    340767.19747                  20830025.5714
        24.5004         27.5004
  22664738.3174    -961820.85347   -709695.02546                  22664747.4154
        23.2504         22.5004
  23901751.8884     -26858.35246
        12.5004
  23357150.4664    4004494.90346   3021601.71646                  23357159.3534
        18.7504         18.0004
 02  7 11 16 56 15.0010000  0  9G26G29G 6G15G17G18G21G 3G23
  22861090.3414    2546719.98046   1933631.18646                  22861098.5484
        18.5004         17.7504
  23823310.5674    2946859.64346   2233000.43046                  23823319.2554
        13.2504         14.0004
  22684312.0994    4280798.68646   3224691.45746                  22684321.6654
        19.5004         19.7504
  20815314.8804     917982.31748    704948.37947                  20815322.3494
        30.0004         28.7504
  21005470.7944    1469911.22247   1117844.48347                  21005478.4624
        26.2504         27.0004
  20832536.2634     443081.78347    351072.98847                  20832542.3924
        24.5004         27.5004
  22663135.7244    -970243.39247   -716258.01546                  22663144.9854
        23.2504         22.7504
  23897266.8644     -50428.36046
        12.5004
  23369049.7084    4067023.19746   3070325.02246                  23369058.6424
        19.2504         18.2504
 02  7 11 16 56 30.0010000  0  9G26G29G 6G15G17G18G21G 3G23
  22869710.5994    2592019.37746   1968929.39046                  22869719.0174
        19.2504         17.7504
  23832780.4114    2996624.12446   2271777.92746                  23832789.4154
        13.2504         13.5004
  22697194.2474    4348494.40246   3277441.30246                  22697203.8964
        19.2504         19.7504
  20818850.9974     936565.38448    719428.68147                  20818858.2434
        30.0004         28.7504
  21010461.9504    1496140.39247   1138282.77647                  21010469.4314
        26.2504         26.7504
  20835085.8174     456480.11247    361513.24547                  20835091.9464
        24.7504         27.2504
  22661557.9814    -978533.67847   -722717.95146                  22661566.9274
        23.5004         22.5004
  23892804.4424     -73877.69646     -3646.69456                  23892813.7394
        12.7504         12.2504
  23380965.4974    4129641.92346   3119118.80246                  23380973.9504
        19.2504         18.0004
 02  7 11 16 56 45.0010000  0  9G26G29G 6G15G17G18G21G 3G23
  22878370.1774    2637525.35446   2004388.57946                  22878378.6884
        19.2504         17.7504
  23842283.2084    3046561.68746   2310690.28446                  23842292.8104
        13.0004         13.5004
  22710102.1064    4416325.24646   3330296.43246                  22710111.2634
        19.7504         19.7504
  20822411.1304     955273.70648    734006.58947                  20822418.4354
        30.5004         28.5004
  21015475.4974    1522487.35047   1158812.86447                  21015483.1304
        26.5004         26.7504
  20837667.4974     470047.39547    372085.15947                  20837673.7554
        24.7504         27.5004
  22660004.8964    -986695.44747   -729077.74446                  22660014.0404
        23.2504         22.5004
  23888364.3964     -97209.59346    -21827.37946                  23888373.9154
        13.0004         12.0004
  23392897.9974    4192347.34346   3167980.14046                  23392906.6384
        19.2504         18.2504
 02  7 11 16 57  0.0010000  0  9G26G29G 6G15G17G18G21G 3G23
  22887068.0214    2683232.61146   2040004.61146                  22887076.5094
        19.5004         17.7504
  23851818.2944    3096666.86346   2349733.25746                  23851828.1304
        13.2504         13.2504
  22723034.4814    4484285.97146   3383252.78646                  22723043.6964
        19.2504         19.5004
  20825994.0674     974102.35548    748678.25647                  20826001.3604
        30.2504         28.7504
  21020510.6064    1548947.05347   1179430.80447                  21020518.0174
        26.7504         26.7504
  20840280.5674     483778.48547    382784.70847                  20840286.7904
        25.0004         27.5004
  22658475.1614    -994733.51947   -735341.15046                  22658484.3294
        23.0004         22.2504
  23883945.9894    -120428.85446    -39920.29046                  23883954.6184
        13.2504         12.5004
  23404845.9194    4255134.15546   3216904.89246                  23404854.8764
        19.2504         18.5004
 02  7 11 16 57 15.0010000  0  9G26G29G 6G15G17G18G21G 3G23
  22895805.0914    2729147.55247   2075782.46446                  22895813.3564
        20.0004         18.0004
  23861385.8104    3146946.25246   2388911.98546                  23861395.6574
        13.0004         13.5004
  22735993.1614    4552382.88946   3436315.25546                  22736001.9894
        19.7504         19.2504
  20829601.2784     993057.92948    763448.82447                  20829608.6534
        30.5004         28.7504
  21025568.6464    1575526.14247   1200141.78247                  21025576.0564
        26.5004         26.7504
  20842925.7784     497679.93647    393617.00547                  20842931.8134
        25.0004         27.2504
  22656970.3564   -1002641.60147   -741503.25946                  22656979.5954
        22.7504         22.5004
  23879550.2634    -143528.53246    -57920.02346                  23879559.2084
        13.0004         12.7504
  23416810.5054    4318008.73046   3265898.02146                  23416819.6384
        19.2504         18.2504
 02  7 11 16 57 30.0010000  0  9G26G29G 6G15G17G18G21G 3G23
  22904582.5054    2775273.09347   2111724.42746                  22904590.8174
        20.0004         17.7504
  23870987.4974    3197402.66146   2428228.63246                  23870996.8534
        12.7504         13.2504
  22748977.7714    4620618.88146   3489486.09246                  22748986.9034
        19.0004         19.5004
  20833233.0284    1012143.61848    778320.78847                  20833240.6034
        30.0004         29.0004
  21030649.5834    1602227.77047   1220948.24147                  21030656.9464
        26.7504         26.7504
  20845604.2714     511754.77347    404584.40447                  20845610.2714
        25.0004         27.2504
  22655490.5284   -1010416.33747   -747561.46546                  22655499.8134
        22.5004         22.2504
  23875178.2394    -166505.20046    -75823.89746                  23875187.3254
        13.0004         12.5004
  23428792.5054    4380974.00046   3314961.83546                  23428801.4744
        18.5004         18.2504
 02  7 11 16 57 45.0010000  0  9G26G29G 6G15G17G18G21G 3G23
  22913398.8174    2821600.97547   2147824.05246                  22913406.9424
        20.0004         17.7504
  23880621.1384    3248027.88946   2467676.84946                  23880630.2124
        13.2504         13.2504
  22761987.7944    4688985.66546   3542758.83646                  22761997.1964
        19.2504         19.5004
  20836888.0604    1031351.48048    793287.95347                  20836895.8104
        29.5004         29.0004
  21035752.6464    1629043.95747   1241843.95547                  21035759.9624
        26.7504         26.7504
  20848314.2784     525995.02947    415680.70347                  20848320.3024
        24.7504         27.0004
  22654035.1694   -1018065.60747   -753521.90446                  22654044.4894
        22.7504         22.2504
  23870827.5674    -189366.52746    -93637.91146                  23870837.3924
        13.2504         12.7504
  23440790.1464    4444021.68246   3364089.85646                  23440799.0094
        18.7504         18.2504
 02  7 11 16 58  0.0010000  0  9G26G29G 6G15G17G18G21G 3G23
  22922252.9424    2868131.00046   2184081.18946                  22922260.9624
        19.7504         17.5004
  23890286.3964    3298821.65646   2507256.36846                  23890296.1264
        12.7504         13.0004
  22775022.2164    4757483.06646   3596133.36746                  22775031.7824
        19.0004         19.0004
  20840566.7164    1050681.51848    808350.32147                  20840574.2434
        30.7504         29.0004
  21040877.5524    1655974.86847   1262829.07047                  21040884.9624
        26.5004         26.7504
  20851055.4114     540400.57847    426905.80947                  20851061.5284
        24.5004         27.2504
  22652603.3964   -1025589.41747   -759384.57946                  22652612.5634
        22.2504         22.2504
  23866499.2554    -212112.23446   -111361.81846                  23866509.0324
        13.5004         12.7504
  23452803.1064    4507151.59846   3413281.96846                  23452812.0054
        19.0004         18.0004
 02  7 11 16 58 15.0010000  0  9G26G29G 6G15G17G18G21G 3G23
  22931144.6144    2914857.13746   2220491.15046                  22931153.0214
        19.5004         17.5004
  23899983.5524    3349777.98746   2546962.58346                  23899992.9194
        12.7504         13.2504
  22788080.8804    4826105.03746   3649604.96546                  22788090.3884
        18.7504         19.5004
  20844267.2714    1070127.96048    823503.38747                  20844274.7284
        30.2504         29.2504
  21046023.0674    1683014.63647   1283899.01147                  21046030.6064
        26.5004         27.0004
  20853826.9504     554965.47747    438255.08447                  20853833.0674
        24.2504         27.0004
  22651194.5054   -1032993.54247   -765153.99846                  22651203.7674
        22.0004         22.5004
  23862192.0604    -234747.79646   -128999.88546                  23862200.5714
        13.5004         12.7504
  23464830.9424    4570357.71846   3462533.45346                  23464839.6424
        19.5004         18.5004
 02  7 11 16 58 30.0010000  0  9G26G29G 6G15G17G18G21G 3G23
  22940074.1304    2961782.49046   2257056.33546                  22940082.3724
        19.5004         17.7504
  23909711.7714    3400899.80446   2586797.73646                  23909720.5874
        13.2504         13.5004
  22801163.2164    4894854.53346   3703175.93846                  22801172.4664
        18.2504         19.0004
  20847990.5604    1089694.11048    838749.72247                  20847998.1224
        30.5004         29.0004
  21051189.7944    1710166.63747   1305056.41947                  21051197.3104
        26.7504         26.5004
  20856629.5134     569693.00347    449731.07947                  20856635.6184
        24.2504         27.2504
  22649808.7004   -1040274.70347   -770827.60246                  22649817.8684
        22.0004         22.2504
  23857906.1144    -257269.63646   -146549.35646                  23857914.9074
        13.2504         12.5004
  23476874.0994    4633643.05846   3511846.67346                  23476882.7864
        19.5004         18.0004
 02  7 11 16 58 45.0010000  0  9G26G29G 6G15G17G18G21G 3G23
  22949041.4504    3008905.16246   2293775.27946                  22949050.0794
        19.0004         17.5004
  23919470.7714    3452185.25046   2626760.38846                  23919479.4464
        13.2504         13.2504
  22814269.9814    4963729.73546   3756844.84946                  22814279.2434
        18.2504         18.7504
  20851736.3884    1109378.47448    854088.19047                  20851744.0914
        31.0004         29.2504
  21056377.6534    1737429.26747   1326300.02547                  21056385.1464
        26.7504         27.0004
  20859462.6614     584581.52347    461332.52247                  20859469.0484
        24.0004         27.0004
  22648446.1304   -1047434.58347   -776406.69746                  22648455.2634
        22.0004         22.5004
  23853641.8174    -279678.99646   -164011.17746                  23853651.1494
        13.5004         12.7504
  23488931.3334    4697005.77946   3561220.19446                  23488940.2084
        19.2504         18.2504
 02  7 11 16 59  0.0010000  0  9G26G29G 6G15G17G18G21G 3G23
  22958047.6064    3056232.28546   2330653.53946                  22958056.5874
        19.0004         17.5004
  23929263.0284    3503641.60646   2666856.24146                  23929272.7714
        13.2504         13.2504
  22827401.9974    5032737.64246   3810617.18046                  22827411.7634
        18.5004         18.7504
  20855506.1304    1129188.44648    869524.52347                  20855513.7284
        30.5004         29.0004
  21061588.0364    1764809.91847   1347635.58747                  21061595.5874
        26.5004         26.7504
  20862327.6774     599638.26647    473065.04747                  20862333.9584
        24.2504         27.0004
  22647108.3024   -1054465.77947   -781885.51946                  22647117.5634
        22.0004         22.5004
  23849400.1534    -301968.25346   -181379.40446                  23849409.5674
        13.5004         12.5004
  23501005.0914    4760453.00346   3610659.54746                  23501013.6144
        19.2504         18.2504
 02  7 11 16 59 15.0010000  0  9G26G29G 6G15G17G18G21G 3G23
  22967091.2714    3103758.46446   2367686.91046                  22967100.3104
        19.2504         17.5004
  23939086.2314    3555263.41646   2707080.98546                  23939095.5524
        13.5004         12.7504
  22840557.8024    5101872.86746   3864488.70246                  22840567.1694
        19.0004         19.0004
  20859298.6304    1149118.85848    885054.71147                  20859306.2634
        30.7504         29.2504
  21066819.9194    1792303.43947   1369059.09847                  21066827.5284
        26.5004         27.0004
  20865224.0754     614857.94447    484924.51747                  20865230.2984
        24.2504         27.0004
  22645793.7554   -1061373.55947   -787268.17546                  22645802.9934
        21.7504         22.5004
  23845180.9424    -324142.37346   -198657.92046                  23845189.2784
        13.0004         12.5004
  23513093.7004    4823979.28946   3660160.50946                  23513102.2594
        19.5004         17.7504
 02  7 11 16 59 30.0010000  0  9G26G29G 6G15G17G18G21G 3G23
  22976172.5994    3151480.73446   2404873.06646                  22976181.4624
        19.2504         17.5004
  23948940.2714    3607047.69646   2747432.33846                  23948949.9544
        13.2504         13.0004
  22853737.6464    5171132.50046   3918457.18246                  22853747.0014
        18.7504         19.0004
  20863113.8494    1169167.03848    900676.67747                  20863121.3534
        30.7504         29.2504
  21072072.7784    1819907.23747   1390568.53247                  21072080.2354
        26.2504         26.7504
  20868150.8644     630237.81947    496908.82847                  20868156.9584
        24.5004         27.2504
  22644502.0214   -1068160.28147   -792556.50246                  22644511.3644
        21.7504         22.2504
  23840982.4034    -346203.80346   -215848.62246                  23840991.6774
        13.0004         13.0004
  23525196.8564    4887581.71546   3709720.80946                  23525205.6034
        19.0004         17.7504
 02  7 11 16 59 45.0010000  0  9G26G29G 6G15G17G18G21G 3G23
  22985291.2004    3199399.31346   2442212.20246                  22985300.1344
        18.7504         17.5004
  23958825.5674    3658994.63346   2787910.46246                  23958834.2784
        13.0004         12.7504
  22866941.1064    5240516.65346   3972522.68446                  22866950.3924
        18.7504         19.0004
  20866951.2634    1189333.43148    916390.74347                  20866958.6964
        31.0004         29.2504
  21077346.4114    1847621.82247   1412164.29247                  21077354.0094
        26.0004         26.7504
  20871108.0284     645778.14247    509018.16047                  20871114.2514
        24.2504         27.5004
  22643233.5284   -1074825.59347   -797750.21446                  22643242.6034
        21.7504         22.5004
  23836806.0834    -368151.72846   -232950.87246                  23836815.1464
        13.0004         12.2504
  23537314.5444    4951260.44746   3759340.56346                  23537323.4424
        19.2504         18.0004
 02  7 11 17  0  0.0010000  0  9G26G29G 6G15G17G18G21G 3G23
  22994446.8564    3247511.25346   2479701.99146                  22994455.8254
        18.7504         17.7504
  23968741.2944    3711101.22946   2828512.97946                  23968749.8764
        13.5004         13.0004
  22880167.6614    5310022.32346   4026682.87246                  22880176.8064
        19.2504         18.7504
  20870810.7784    1209615.44848    932194.90347                  20870818.2474
        31.2504         29.2504
  21082641.2164    1875444.36147   1433844.16847                  21082648.7554
        26.0004         26.5004
  20874095.1924     661476.13547    521250.35747                  20874101.6264
        24.2504         27.2504
  22641987.9584   -1081372.23047   -802851.45646                  22641997.1264
        22.5004         22.5004
  23832650.1924    -389988.61646   -249966.60346                  23832659.3494
        13.0004         12.7504
  23549446.5914    5015012.53446   3809017.48146                  23549455.5484
        19.2504         18.2504
 02  7 11 17  0 15.0010000  0  9G26G29G 6G15G17G18G21G 3G23
  23003639.2634    3295817.66846   2517343.33846                  23003647.8564
        18.7504         17.2504
  23978687.4034    3763368.64846   2869240.78846                  23978696.1734
        12.7504         13.0004
  22893417.4424    5379650.62046   4080938.62046                  22893426.8804
        18.7504         19.0004
  20874692.8024    1230014.45148    948090.22647                  20874700.1654
        30.7504         29.2504
  21087956.3804    1903376.37247   1455609.35347                  21087963.9784
        26.0004         26.5004
  20877112.7714     677333.17947    533606.49347                  20877119.0994
        24.5004         27.5004
  22640764.9814   -1087798.94647   -807859.26346                  22640773.9504
        23.0004         23.0004
  23828516.4354    -411712.81746   -266894.53346                  23828525.0404
        12.7504         12.5004
  23561592.0834    5078839.08846   3858752.42046                  23561601.0874
        19.2504         18.2504
 02  7 11 17  0 30.0010000  0  9G26G29G 6G15G17G18G21G 3G23
  23012868.6694    3344319.74446   2555137.14446                  23012877.5444
        18.5004         17.5004
  23988664.3414    3815797.98746   2910094.82146                  23988673.4504
        13.2504         13.0004
  22906691.0754    5449402.75946   4135290.86646                  22906700.5714
        19.2504         19.0004
  20878597.0284    1250531.99448    964077.91847                  20878604.5914
        31.2504         29.2504
  21093292.8724    1931419.28547   1477460.96847                  21093300.3534
        25.5004         26.2504
  20880160.7554     693350.65147    546087.63847                  20880166.8374
        24.7504         27.5004
  22639565.3254   -1094104.26347   -812772.46446                  22639574.5634
        23.2504         22.7504
  23824404.0364    -433322.57746   -283733.27146                  23824412.8064
        13.0004         12.5004
  23573752.1614    5142741.39046   3908546.37746                  23573760.9784
        19.5004         18.0004
 02  7 11 17  0 45.0010000  0  9G26G29G 6G15G17G18G21G 3G23
  23022136.1064    3393019.14446   2593084.71446                  23022144.6534
        19.0004         17.7504
  23998672.7554    3868390.99346   2951076.32446                  23998682.0874
        13.0004         12.7504
  22919988.3644    5519280.33346   4189740.84646                  22919997.7674
        18.2504         18.7504
  20882524.3024    1271169.85748    980159.36047                  20882531.7944
        31.0004         29.2504
  21098650.6534    1959575.17047   1499400.62447                  21098658.2864
        25.5004         26.2504
  20883239.8104     709530.15847    558695.04747                  20883246.1494
        24.7504         27.5004
  22638388.8724   -1100286.25647   -817589.57546                  22638397.8414
        23.5004         22.7504
  23820313.9354    -454815.72346   -300481.13846                  23820323.3134
        13.2504         12.7504
  23585926.9974    5206721.04146   3958400.62746                  23585936.2354
        19.0004         17.7504
 02  7 11 17  1  0.0010000  0  9G26G29G 6G15G17G18G21G 3G23
  23031439.3174    3441909.92846   2631181.41646                  23031447.8174
        19.0004         17.5004
  24008710.6464    3921141.74946   2992180.82746                  24008719.8374
        13.2504         12.7504
  22933308.4034    5589277.43546   4244283.96546                  22933317.5484
        18.7504         18.7504
  20886473.4584    1291922.56148    996330.28547                  20886480.9854
        30.5004         29.0004
  21104028.9974    1987838.25147   1521423.80447                  21104036.7594
        25.5004         26.5004
  20886348.4744     725865.94847    571424.23147                  20886354.6614
        24.5004         27.2504
  22637234.8494   -1106350.36847   -822314.82646                  22637243.6064
        23.5004         23.0004
  23816245.2784    -476197.62146   -317142.33246                  23816254.5054
        13.2504         12.7504
  23598115.6224    5270772.15546   4008310.54746                  23598124.8724
        19.2504         17.7504
 02  7 11 17  1 15.0010000  0  9G26G29G 6G15G17G18G21G 3G23
  23040780.1304    3490994.53046   2669429.15146                  23040788.7244
        18.5004         17.5004
  24018779.3804    3974052.53946   3033409.97946                  24018788.0444
        13.2504         12.7504
  22946651.5604    5659396.41046   4298922.05446                  22946660.9154
        18.7504         18.5004
  20890444.6614    1312792.75448   1012592.76547                  20890452.0604
        30.5004         29.0004
  21109428.2554    2016211.24447   1543532.62547                  21109435.8064
        26.2504         26.2504
  20889487.0994     742360.61147    584277.20847                  20889493.1574
        24.2504         27.2504
  22636103.6064   -1112294.08147   -826946.26046                  22636112.5754
        23.2504         23.0004
  23812197.9194    -497465.35246   -333714.58146                  23812207.1104
        13.5004         12.5004
  23610318.5754    5334897.07546   4058277.98446                  23610327.7204
        18.5004         17.7504
 02  7 11 17  1 30.0010000  0  9G26G29G 6G15G17G18G21G 3G23
  23050156.2634    3540266.92546   2707823.20446                  23050164.7164
        19.0004         17.5004
  24028877.1774    4027117.47446   3074759.26646                  24028885.8884
        13.0004         12.7504
  22960016.8494    5729631.27646   4353650.44446                  22960026.4974
        18.2504         18.7504
  20894437.4034    1333774.67248   1028942.29847                  20894444.9664
        30.2504         29.2504
  21114847.1224    2044688.46547   1565722.65147                  21114854.6384
        26.2504         26.2504
  20892654.9354     759008.43047    597249.52847                  20892660.9464
        24.5004         27.0004
  22634994.4034   -1118123.15147   -831488.36246                  22635003.5484
        23.2504         22.7504
  23808171.6774    -518624.38946   -350202.11246                  23808181.1964
        13.0004         12.7504
  23622533.7554    5399089.84546   4108298.28546                  23622542.4194
        18.5004         17.7504
 02  7 11 17  1 45.0010000  0  9G26G29G 6G15G17G18G21G 3G23
  23059569.0054    3589729.92846   2746365.78146                  23059577.4934
        18.7504         17.5004
  24039004.7784    4080339.38146   3116230.86746                  24039013.6304
        13.2504         12.7504
  22973404.7004    5799984.84946   4408471.33846                  22973413.9744
        18.5004         18.5004
  20898452.0674    1354871.49848   1045381.37047                  20898459.5714
        30.5004         29.2504
  21120286.5914    2073272.96447   1587996.26947                  21120293.9784
        26.0004         26.2504
  20895852.7244     775812.36347    610343.49547                  20895858.7944
        24.5004         27.0004
  22633907.6384   -1123834.45947   -835938.70346                  22633916.5954
        23.5004         23.0004
  23804166.7944    -539671.32046   -366602.29346                  23804176.3844
        13.2504         12.5004
  23634763.0604    5463353.37546   4158373.73946                  23634771.6064
        18.2504         17.7504
 02  7 11 17  2  0.0010000  0  9G26G29G 6G15G17G18G21G 3G23
  23069018.0444    3639385.17046   2785058.16446                  23069026.4854
        18.5004         17.5004
  24049163.1304    4133719.75546   3157825.93446                  24049172.0054
        13.2504         12.7504
  22986815.7864    5870458.69346   4463385.93646                  22986825.8564
        18.0004         18.5004
  20902489.0444    1376085.05448   1061911.41247                  20902496.5484
        30.7504         29.0004
  21125746.9034    2101966.69247   1610354.99947                  21125754.2904
        26.2504         26.5004
  20899080.5054     792774.00347    623560.34947                  20899086.4934
        24.2504         26.7504
  22632843.5834   -1129426.18347   -840295.85446                  22632852.5754
        23.5004         23.2504
  23800183.1694    -560603.98546   -382913.42746                  23800192.3254
        13.5004         12.7504
  23647005.4194    5527689.21746   4208505.53946                  23647014.5284
        18.5004         17.5004
 02  7 11 17  2 15.0010000  0  9G26G29G 6G15G17G18G21G 3G23
  23078503.1224    3689229.14346   2823897.60646                  23078511.5874
        18.7504         17.5004
  24059350.3024    4187255.18546   3199541.84346                  24059359.4464
        13.2504         12.7504
  23000248.6384    5941049.30946   4518391.52946                  23000258.2864
        18.7504         18.7504
  20906547.3024    1397412.16948   1078529.94347                  20906554.8644
        30.2504         29.0004
  21131227.5134    2130766.55847   1632796.43647                  21131234.9234
        25.7504         26.5004
  20902337.6144     809890.16047    636897.60847                  20902343.7674
        24.5004         26.7504
  22631801.4894   -1134901.48147   -844562.29746                  22631810.5994
        23.5004         23.0004
  23796221.0754    -581425.28646   -399137.79346                  23796230.7124
        13.5004         13.2504
  23659261.4894    5592093.97946   4258691.02246                  23659270.5874
        18.2504         17.2504
 02  7 11 17  2 30.0010000  0  9G26G29G 6G15G17G18G21G 3G23
  23088024.7784    3739266.41646   2862887.68246                  23088033.5134
        18.5004         17.7504
  24069568.3964    4240950.24046   3241382.12046                  24069578.2084
        13.2504         13.0004
  23013704.6774    6011761.22946   4573491.65446                  23013714.1494
        18.7504         18.5004
  20910628.3964    1418857.65248   1095240.72447                  20910636.0284
        30.7504         29.0004
  21136728.9424    2159677.31147   1655324.27547                  21136736.5634
        25.5004         26.5004
  20905625.0054     827165.57847    650358.97247                  20905631.0874
        24.5004         26.7504
  22630782.8564   -1140255.53747   -848734.25546                  22630791.8724
        23.5004         23.0004
  23792281.2784    -602130.28046   -415271.52546                  23792290.2594
        14.0004         13.2504
  23671530.9114    5656572.22446   4308933.79546                  23671540.2204
        18.2504         17.2504
 02  7 11 17  2 45.0010000  0  9G26G29G 6G15G17G18G21G 3G23
  23097582.1384    3789491.88546   2902024.39746                  23097590.9194
        18.5004         17.5004
  24079815.6924    4294799.77346   3283342.77146                  24079825.4234
        13.5004         12.7504
  23027183.0284    6082589.30746   4628682.28446                  23027192.7824
        18.5004         18.2504
  20914730.8334    1440416.74448   1112040.02047                  20914738.2784
        30.2504         29.0004
  21142250.7394    2188694.20447   1677934.83447                  21142258.3134
        25.7504         26.2504
  20908941.7714     844595.32447    663940.58647                  20908947.7824
        24.2504         26.5004
  22629785.8334   -1145493.20547   -852815.53346                  22629794.5794
        23.7504         23.0004
  23788362.2164    -622723.43846   -431318.10946                  23788370.8924
        14.0004         13.2504
  23683814.0364    5721118.82846   4359229.81946                  23683823.3564
        17.7504         17.5004
 02  7 11 17  3  0.0020000  0  9G26G29G 6G15G17G18G21G 3G23
  23107176.4004    3839909.07046   2941310.48546                  23107185.1464
        18.2504         17.7504
  24090092.8774    4348807.54546   3325426.72646                  24090101.8574
        13.2504         12.7504
  23040684.0334    6153538.36646   4683967.19346                  23040693.7174
        18.2504         18.2504
  20918855.2994    1462091.33348   1128929.32047                  20918862.7564
        30.5004         28.7504
  21147793.0574    2217819.51947   1700629.88947                  21147800.6314
        26.0004         26.5004
  20912288.0494     862180.81647    677643.57047                  20912294.0374
        24.0004         26.5004
  22628811.4474   -1150614.42147   -856806.06046                  22628820.4164
        24.2504         23.2504
  23784464.4394    -643205.48846   -447278.13046                  23784474.0764
        14.0004         13.0004
  23696110.7524    5785738.22346   4409582.55846                  23696120.3304
        17.5004         17.5004
 02  7 11 17  3 15.0020000  0  9G26G29G 6G15G17G18G21G 3G23
  23116805.8224    3890511.24946   2980740.74346                  23116814.8384
        18.2504         17.2504
  24100398.9474    4402966.32246   3367628.34046                  24100407.5884
        13.2504         13.0004
  23054206.7054    6224599.04846   4739339.06346                  23054216.2134
        18.5004         18.2504
  20923001.3934    1483878.81848   1145906.58447                  20923008.7564
        30.7504         28.7504
  21153355.4244    2247049.73247   1723406.68247                  21153363.0574
        26.5004         26.5004
  20915663.7994     879919.81147    691466.16747                  20915669.9514
        24.2504         26.7504
  22627859.0804   -1155618.39647   -860705.23846                  22627868.0964
        23.7504         23.0004
  23780588.7604    -663573.11746   -463148.97746                  23780598.3504
        14.2504         13.5004
  23708419.3774    5850421.86546   4459985.35446                  23708429.0024
        17.0004         17.2504
 02  7 11 17  3 30.0020000  0  9G26G29G 6G15G17G18G21G 3G23
  23126470.5104    3941298.90046   3020315.51546                  23126479.6314
        18.5004         17.5004
  24110734.2054    4457276.84146   3409948.20446                  24110742.8694
        13.5004         12.5004
  23067750.5964    6295773.16546   4794799.34546                  23067760.6664
        17.7504         18.0004
  20927168.7604    1505778.07048   1162970.93147                  20927176.3224
        30.2504         28.7504
  21158937.6744    2276384.22447   1746264.72147                  21158945.0964
        26.5004         26.5004
  20919068.1434     897810.81647    705407.21047                  20919074.2134
        24.7504         26.7504
  22626928.8774   -1160508.07547   -864515.34946                  22626937.8464
        23.5004         22.5004
  23776733.9634    -683829.89646   -478933.46146                  23776743.4824
        14.2504         13.2504
  23720741.2604    5915171.18546   4510439.33246                  23720750.8734
        17.2504         17.2504
 02  7 11 17  3 45.0020000  0  9G26G29G 6G15G17G18G21G 3G23
  23136170.5574    3992273.63846   3060036.08546                  23136179.3384
        18.5004         17.0004
  24121098.3934    4511740.83346   3452387.65346                  24121107.8074
        13.5004         12.5004
  23081316.6664    6367062.32746   4850349.25546                  23081326.4204
        17.7504         17.7504
  20931357.5884    1527790.99348   1180123.85847                  20931365.0924
        30.5004         28.7504
  21164540.0574    2305824.86647   1769205.47047                  21164547.7604
        26.5004         26.2504
  20922502.2834     915855.68647    719468.14847                  20922508.4124
        24.7504         27.0004
  22626020.4554   -1165281.34747   -868234.75646                  22626029.3184
        23.7504         22.7504
  23772900.8384    -703973.69546   -494629.88946                  23772910.1354
        14.7504         13.7504
  23733075.3464    5979987.82546   4560945.75946                  23733085.2174
        17.5004         17.2504
 02  7 11 17  4  0.0020000  0  9G26G29G 6G15G17G18G21G 3G23
  23145906.3544    4043434.85546   3099901.94646                  23145915.1584
        18.2504         17.0004
  24131491.6044    4566357.54346   3494946.10346                  24131501.1114
        13.2504         12.7504
  23094904.4164    6438465.91046   4905988.33646                  23094914.3114
        17.5004         18.0004
  20935568.0494    1549917.20348   1197365.05747                  20935575.4944
        30.2504         28.7504
  21170162.5644    2335371.43747   1792228.76147                  21170170.2444
        26.2504         26.2504
  20925965.4394     934053.94147    733648.61647                  20925971.4634
        24.5004         26.7504
  22625134.1434   -1169938.49747   -871863.67946                  22625142.6434
        24.0004         23.0004
  23769088.9864    -724004.55546   -510238.34446                  23769098.5294
        14.2504         13.5004
  23745422.0334    6044871.27346   4611504.23846                  23745431.6464
        17.0004         17.0004
 02  7 11 17  4 15.0020000  0  9G26G29G 6G15G17G18G21G 3G23
  23155676.4864    4094778.20546   3139909.74046                  23155685.0214
        18.7504         17.2504
  24141912.6044    4621122.76246   3537620.27446                  24141921.9474
        13.0004         12.7504
  23108512.6664    6509979.56546   4961713.17846                  23108522.2684
        16.7504         17.5004
  20939799.3144    1572152.76248   1214691.45147                  20939806.6784
        30.7504         29.0004
  21175804.5024    2365019.83547   1815331.39347                  21175812.0884
        26.0004         26.2504
  20929456.6434     952401.35847    747945.30647                  20929462.6074
        24.5004         27.0004
  22624269.2684   -1174483.58247   -875405.27746                  22624278.0614
        24.2504         23.0004
  23765297.9474    -743926.29346   -525761.73146                  23765307.0804
        14.5004         13.0004
  23757780.9714    6109817.29646   4662111.48346                  23757790.1394
        17.0004         17.0004
 02  7 11 17  4 30.0020000  0  9G26G29G 6G15G17G18G21G 3G23
  23165482.8144    4146311.36246   3180065.43046                  23165491.4204
        18.5004         17.2504
  24152363.9554    4676044.02446   3580416.05546                  24152372.7364
        13.5004         13.2504
  23122144.0574    6581610.90846   5017529.71946                  23122153.4714
        17.0004         17.7504
  20944053.0334    1594505.67048   1232109.29547                  20944060.4904
        30.5004         29.2504
  21181467.3074    2394778.14747   1838519.67347                  21181474.6234
        26.5004         26.5004
  20932977.7214     970905.75147    762364.31347                  20932983.7794
        24.2504         27.0004
  22623427.1744   -1178909.00647   -878853.63546                  22623436.0374
        24.2504         23.2504
  23761529.2214    -763730.82946   -541193.82246                  23761538.3424
        14.7504         13.5004
  23770153.3224    6174833.52646   4712773.43546                  23770162.6194
        17.0004         16.7504
 02  7 11 17  4 45.0020000  0  9G26G29G 6G15G17G18G21G 3G23
  23175324.2054    4198026.81746   3220363.17746                  23175332.9514
        18.5004         17.2504
  24162843.3854    4731113.89946   3623327.63846                  24162852.8694
        13.0004         13.0004
  23135795.9944    6653352.36246   5073432.08646                  23135806.0764
        16.5004         17.7504
  20948327.6824    1616968.68748   1249612.95647                  20948335.1154
        30.2504         29.0004
  21187149.5574    2424638.92747   1861787.80247                  21187156.9794
        26.2504         26.2504
  20936527.4004     989559.68247    776899.84847                  20936533.6354
        24.5004         27.0004
  22622606.4084   -1183221.96147   -882214.34946                  22622615.0964
        24.2504         23.2504
  23757781.7054    -783424.96446   -556539.86546                  23757791.0844
        14.7504         13.7504
  23782537.2294    6239912.46346   4763484.25646                  23782546.9594
        16.7504         17.0004
 02  7 11 17  5  0.0020000  0  9G26G29G 6G15G17G18G21G 3G23
  23185200.2294    4249924.90546   3260803.23346                  23185209.1274
        18.7504         17.2504
  24173351.5104    4786332.75346   3666355.27446                  24173361.2994
        12.7504         12.7504
  23149468.8774    6725204.41846   5129420.59946                  23149478.6194
        17.2504         18.0004
  20952623.2754    1639542.48648   1267202.92947                  20952630.8034
        30.5004         29.0004
  21192851.4794    2454603.02547   1885136.42847                  21192858.8774
        26.2504         26.2504
  20940105.8934    1008363.80447    791552.41247                  20940112.0684
        25.0004         27.0004
  22621807.0254   -1187421.64147   -885486.80346                  22621815.7484
        24.2504         23.5004
  23754054.8614    -803007.77946   -571799.18046                  23754063.6434
        14.7504         13.7504
  23794933.3144    6305054.49446   4814244.24046                  23794942.9984
        16.5004         17.0004
 02  7 11 17  5 15.0020000  0  9G26G29G 6G15G17G18G21G 3G23
  23195111.4634    4302009.56946   3301388.66846                  23195119.9634
        18.2504         17.0004
  24183888.4634    4841704.45346   3709502.03646                  24183898.0294
        12.7504         13.0004
  23163163.8384    6797170.98046   5185498.36146                  23163173.6154
        16.7504         17.7504
  20956940.9394    1662231.27848   1284882.50847                  20956948.5724
        30.5004         29.0004
  21198574.1434    2484674.68347   1908568.86547                  21198581.6354
        26.2504         26.2504
  20943713.5884    1027322.34547    806325.30247                  20943719.6114
        24.7504         27.0004
  22621030.4004   -1191503.79947   -888667.67746                  22621039.1824
        24.5004         23.5004
  23750350.5494    -822474.70846   -586968.18746                  23750359.4594
        14.7504         13.2504
  23807342.4634    6370263.70946   4865056.57646                  23807352.4634
        17.0004         16.7504
 02  7 11 17  5 30.0020000  0  9G26G29G 6G15G17G18G21G 3G23
  23205057.5184    4354276.44646   3342116.08246                  23205066.2644
        18.0004         17.0004
  24194453.2754    4897224.67546   3752764.52546                  24194462.6894
        12.5004         12.5004
  23176879.5104    6869247.61946   5241661.88546                  23176889.3814
        16.7504         18.0004
  20961279.2294    1685031.00048   1302648.52547                  20961286.7564
        30.5004         29.0004
  21204316.0334    2514849.81447   1932081.94147                  21204323.5724
        26.7504         26.2504
  20947349.7364    1046430.99547    821215.15547                  20947355.9124
        24.7504         27.2504
  22620275.0884   -1195472.68547   -891760.29446                  22620283.9514
        24.2504         23.2504
  23746667.2054    -841829.70746   -602049.97346                  23746676.1154
        14.7504         13.7504
  23819763.5724    6435535.68646   4915917.81846                  23819773.4204
        16.7504         16.7504
 02  7 11 17  5 45.0020000  0  9G26G29G 6G15G17G18G21G 3G23
  23215038.2444    4406725.27246   3382985.29246                  23215047.0374
        18.7504         16.7504
  24205046.7364    4952893.11646   3796142.51446                  24205056.5254
        12.2504         12.7504
  23190616.2994    6941434.10646   5297911.00646                  23190626.2174
        17.0004         18.2504
  20965639.3144    1707941.84448   1320501.12147                  20965646.6894
        30.7504         29.0004
  21210078.0184    2545128.53547   1955675.73947                  21210085.4284
        26.5004         26.2504
  20951014.5574    1065689.56347    836221.82447                  20951020.6044
        24.5004         27.0004
  22619541.2214   -1199328.35947   -894764.68746                  22619550.0724
        24.2504         23.2504
  23743005.5184    -861072.41146   -617044.27546                  23743014.1004
        14.7504         13.5004
  23832196.0574    6500870.19046   4966827.77846                  23832205.9634
        16.7504         16.7504
 02  7 11 17  6  0.0020000  0  9G26G29G 6G15G17G18G21G 3G23
  23225053.0574    4459354.38446   3423994.96646                  23225061.5334
        18.2504         17.0004
  24215667.8464    5008708.17546   3839634.75146                  24215677.9394
        12.5004         13.0004
  23204373.8074    7013728.75446   5354244.41646                  23204383.2794
        17.2504         17.2504
  20970020.0024    1730962.38748   1338439.20447                  20970027.3184
        30.5004         29.0004
  21215859.5024    2575509.48547   1979349.20347                  21215866.9004
        26.2504         26.5004
  20954707.5024    1085096.59547    851344.18647                  20954713.5964
        24.5004         27.0004
  22618828.9794   -1203071.98747   -897681.78146                  22618837.7134
        24.2504         23.2504
  23739364.9554    -880203.86546   -631951.87946                  23739374.2294
        14.5004         13.7504
  23844640.3614    6566265.55446   5017785.16046                  23844649.9754
        16.5004         16.5004
 02  7 11 17  6 15.0020000  0  9G26G29G 6G15G17G18G21G 3G23
  23235103.6194    4512169.80446   3465149.83546                  23235112.0494
        18.2504         17.2504
  24226318.4554    5064675.98546   3883246.00146                  24226328.1974
        12.2504         12.5004
  23218152.7834    7086137.61946   5410666.82246                  23218162.6544
        16.7504         17.5004
  20974422.7604    1754098.96048   1356467.69647                  20974430.2054
        30.2504         29.0004
  21221661.3144    2605998.91847   2003107.20247                  21221668.7134
        26.5004         26.5004
  20958430.0024    1104658.31847    866587.08547                  20958436.1074
        24.7504         27.0004
  22618138.9634   -1206697.40047   -900506.75646                  22618147.7684
        24.2504         23.5004
  23735746.7754    -899217.51246   -646767.68546                  23735756.1544
        14.5004         13.7504
  23857097.5644    6631727.95546   5068794.78646                  23857107.0024
        17.2504         16.5004
 02  7 11 17  6 30.0020000  0  9G26G29G 6G15G17G18G21G 3G23
  23245189.2914    4565171.41246   3506449.77146                  23245197.8034
        18.5004         17.0004
  24236997.3854    5120796.28345   3926976.08346                  24237006.7404
        11.7504         12.5004
  23231953.4244    7158660.43346   5467178.01746                  23231963.3304
        16.7504         17.5004
  20978847.4084    1777351.59448   1374586.62847                  20978854.7364
        30.5004         29.0004
  21227483.8854    2636596.97247   2026949.83147                  21227491.2134
        26.2504         26.2504
  20962182.1274    1124374.64747    881950.45447                  20962188.1504
        24.7504         27.0004
  22617471.5574   -1210204.67847   -903239.67846                  22617480.2094
        24.7504         23.5004
  23732150.5494    -918113.10646   -661491.48846                  23732159.9984
        14.2504         14.0004
  23869567.3774    6697257.15446   5119856.45546                  23869577.3074
        17.0004         16.5004
 02  7 11 17  6 45.0020000  0  9G26G29G 6G15G17G18G21G 3G23
  23255309.6584    4618352.19846   3547889.32246                  23255318.1464
        18.0004         16.7504
  24247705.2524    5177062.12845   3970819.58146                  24247714.5254
        11.7504         12.7504
  23245774.2364    7231290.38546   5523772.70646                  23245784.3184
        16.5004         17.7504
  20983293.1274    1800713.79348   1392790.93147                  20983300.6194
        30.5004         29.2504
  21233325.9634    2667297.17547   2050872.05947                  21233333.4554
        26.2504         26.2504
  20965962.0254    1144238.85147    897429.04447                  20965967.9904
        24.7504         26.7504
  22616825.2444   -1213600.03447   -905885.39946                  22616834.0494
        24.7504         23.7504
  23728576.5184    -936896.87046   -676128.15446                  23728585.7444
        14.5004         14.0004
  23882048.7444    6762846.37946   5170964.90046                  23882058.5104
        16.7504         16.0004
 02  7 11 17  7  0.0020000  0  9G26G29G 6G15G17G18G21G 3G23
  23265463.1114    4671709.97346   3589466.78546                  23265471.5644
        18.0004         16.5004
  24258438.7364    5233471.23446   4014774.70346                  24258447.9164
        12.2504         12.2504
  23259615.5414    7304025.13946   5580449.03746                  23259625.9864
        16.2504         17.2504
  20987759.2914    1824183.59748   1411079.07247                  20987766.8424
        30.7504         29.2504
  21239186.9944    2698097.49447   2074872.28347                  21239194.4634
        26.2504         26.2504
  20969769.8304    1164248.88447    913021.26747                  20969775.9004
        24.7504         26.7504
  22616200.3544   -1216885.57547   -908445.54046                  22616209.2294
        24.7504         24.0004
  23725022.7994    -955570.47046   -690678.98746                  23725031.8384
        14.5004         14.0004
  23894540.7294    6828493.41446   5222118.38346                  23894550.1544
        16.7504         16.5004
 02  7 11 17  7 15.0020000  0  9G26G29G 6G15G17G18G21G 3G23
  23275650.4944    4725244.91746   3631182.32046                  23275659.1934
        18.2504         16.7504
  24269200.1584    5290023.89446   4058841.69646                  24269209.2324
        12.0004         12.5004
  23273476.3224    7376864.95946   5637207.24746                  23273486.4394
        16.0004         17.0004
  20992245.9864    1847761.56048   1429451.49947                  20992253.5144
        30.5004         29.0004
  21245067.3854    2728998.41747   2098950.90147                  21245074.9714
        26.5004         26.2504
  20973605.4864    1184405.28247    928727.55347                  20973611.5684
        24.7504         27.0004
  22615595.8614   -1220060.80947   -910919.72746                  22615604.6784
        24.0004         23.7504
  23721490.8304    -974133.13146   -705143.37046                  23721499.5414
        14.5004         14.2504
  23907044.1044    6894198.58446   5273317.18446                  23907053.2954
        16.5004         16.2504
 02  7 11 17  7 30.0020000  0  9G26G29G 6G15G17G18G21G 3G23
  23285871.7754    4778958.66746   3673037.16446                  23285880.2524
        18.2504         16.7504
  24279990.0104    5346721.64845   4103021.73746                  24279998.7444
        11.7504         12.7504
  23287357.7294    7449811.36646   5694048.51946                  23287367.4124
        16.5004         17.0004
  20996753.7294    1871449.54248   1447909.66147                  20996761.1044
        30.5004         29.0004
  21250967.0964    2760001.99347   2123109.50747                  21250974.5414
        26.5004         26.2504
  20977469.2444    1204709.58647    944549.10147                  20977475.2794
        24.7504         26.7504
  22615012.8144   -1223124.00247   -913306.60746                  22615021.9004
        24.0004         23.7504
  23717980.0104    -992582.66346   -719519.59746                  23717989.1314
        14.2504         13.7504
  23919559.0804    6959963.46646   5324562.51046                  23919568.6464
        16.7504         16.5004
 02  7 11 17  7 45.0020000  0  9G26G29G 6G15G17G18G21G 3G23
  23296128.5104    4832856.35546   3715035.34746                  23296137.2324
        18.0004         16.7504
  24290807.7754    5403569.84846   4147319.00946                  24290816.3694
        12.2504         12.5004
  23301260.3934    7522869.65346   5750976.97046                  23301270.0184
        16.7504         16.7504
  21001283.5024    1895253.09648   1466457.88147                  21001290.9124
        30.0004         29.0004
  21256887.5574    2791113.68347   2147352.36347                  21256895.1784
        26.2504         26.5004
  20981362.1044    1225167.20547    960490.10347                  20981368.0924
        24.7504         26.7504
  22614452.4244   -1226069.66047   -915601.90246                  22614461.4284
        23.7504         23.7504
  23714491.8464   -1010913.31046   -733803.19146                  23714501.0144
        14.7504         14.5004
  23932085.7054    7025793.26646   5375858.40946                  23932095.2364
        16.5004         16.0004
 02  7 11 17  8  0.0020000  0  9G26G29G 6G15G17G18G21G 3G23
  23306419.1664    4886935.04346   3757174.56446                  23306428.0294
        18.0004         16.7504
  24301653.1894    5460565.42945   4191731.11746                  24301662.5214
        11.7504         12.7504
  23315183.9474    7596036.86346   5807990.28746                  23315193.4554
        17.0004         17.2504
  21005834.6194    1919169.51848   1485094.04447                  21005842.0064
        30.0004         29.0004
  21262828.0334    2822330.92847   2171677.46647                  21262835.6434
        26.5004         26.2504
  20985283.8614    1245775.47247    976548.50447                  20985289.9434
        24.7504         26.5004
  22613913.7134   -1228900.30947   -917807.58546                  22613922.6464
        23.7504         23.5004
  23711025.6044   -1029127.38746   -747995.95746                  23711034.6434
        15.0004         14.7504
  23944624.8694    7091685.13746   5427202.66846                  23944634.4944
        16.0004         16.2504
 02  7 11 17  8 15.0020000  0  9G26G29G 6G15G17G18G21G 3G23
  23316743.6194    4941190.27846   3799451.35446                  23316752.5414
        17.7504         16.7504
  24312526.7524    5517703.92246   4236254.59346                  24312535.8144
        12.5004         12.5004
  23329126.9474    7669308.40846   5865084.90346                  23329136.8544
        16.2504         17.0004
  21010406.3144    1943194.58748   1503814.87547                  21010414.1004
        29.5004         29.0004
  21268787.9164    2853649.55147   2196081.57747                  21268795.4324
        26.2504         26.2504
  20989233.4084    1266529.86947    992720.75947                  20989239.4324
        25.0004         26.7504
  22613396.1434   -1231620.32547   -919927.05046                  22613404.8424
        23.5004         23.5004
  23707581.0184   -1047228.90746   -762101.00046                  23707590.2564
        15.7504         14.2504
  23957175.0334    7157634.65646   5478591.86146                  23957184.1074
        16.7504         16.2504
 02  7 11 17  8 30.0020000  0  9G26G29G 6G15G17G18G21G 3G23
  23327101.9004    4995624.25746   3841867.42746                  23327110.3184
        17.7504         16.2504
  24323427.5724    5574987.49546   4280891.12346                  24323437.7834
        12.5004         12.5004
  23343090.0884    7742686.53946   5922262.58046                  23343099.9474
        15.5004         16.7504
  21014999.3774    1967330.92948   1522622.40847                  21015007.2324
        29.7504         29.0004
  21274767.3934    2885071.96847   2220566.55947                  21274774.9324
        26.5004         26.5004
  20993210.9554    1287433.01347   1009008.92347                  20993216.9554
        24.5004         26.7504
  22612900.0804   -1234227.22647   -921958.37446                  22612909.1194
        23.7504         23.7504
  23704158.5804   -1065215.09246   -776116.18446                  23704167.3854
        16.0004         14.7504
  23969735.6974    7223644.13846   5530027.77446                  23969745.2524
        17.0004         16.2504
 02  7 11 17  8 45.0020000  0  9G26G29G 6G15G17G18G21G 3G23
  23337492.9864    5050230.20546   3884417.49346                  23337501.4984
        17.2504         16.2504
  24334354.5964    5632409.52446   4325635.52646                  24334363.3424
        12.2504         12.7504
  23357072.8384    7816164.54846   5979518.06346                  23357082.5574
        16.2504         16.7504
  21019612.1744    1991572.17048   1541511.68047                  21019620.1114
        29.5004         28.5004
  21280765.1974    2916591.89347   2245127.51247                  21280772.7834
        26.7504         26.5004
  20997215.8544    1308478.23447   1025407.80747                  20997222.0414
        24.2504         26.7504
  22612424.4944   -1236727.33247   -923906.48546                  22612433.3814
        24.2504         24.0004
  23700756.7054   -1083092.15346   -790046.33846                  23700765.2174
        16.0004         14.7504
  23982307.0804    7289706.84246   5581505.16446                  23982316.6584
        16.5004         16.0004
 02  7 11 17  9  0.0020000  0  9G26G29G 6G15G17G18G21G 3G23
  23347920.1584    5105023.25946   3927113.36946                  23347929.1394
        17.7504         16.5004
  24345310.9244    5689985.18946   4370499.66746                  24345319.9514
        12.2504         12.7504
  23371077.1744    7889757.54146   6036863.17146                  23371087.3384
        16.0004         16.5004
  21024247.8144    2015933.79248   1560494.75947                  21024255.5414
        29.7504         29.0004
  21286784.7294    2948224.75447   2269776.47047                  21286792.2444
        26.7504         26.5004
  21001250.5024    1329680.83647   1041929.32247                  21001256.7014
        24.2504         26.7504
  22611971.8384   -1239105.25847   -925759.39546                  22611980.5374
        24.5004         24.0004
  23697378.4714   -1100844.33246   -803879.17246                  23697387.4634
        16.5004         15.0004
  23994891.6114    7355838.01346   5633035.90346                  23994900.9554
        16.2504         16.0004
 02  7 11 17  9 15.0020000  0  9G26G29G 6G15G17G18G21G 3G23
  23358379.4794    5159987.98546   3969942.99846                  23358387.7214
        17.7504         16.5004
  24356293.2524    5747698.92046   4415471.37946                  24356302.6074
        12.2504         12.5004
  23385100.2604    7963450.03746   6094285.80346                  23385110.6114
        16.2504         16.7504
  21028904.0414    2040400.65348   1579559.84947                  21028911.4754
        30.0004         28.7504
  21292822.9474    2979955.36147   2294501.59747                  21292830.4864
        27.0004         26.5004
  21005312.4084    1351025.43247   1058561.47147                  21005318.5254
        24.5004         26.7504
  22611539.7054   -1241376.29947   -927529.01446                  22611548.2644
        25.0004         24.2504
  23694021.2684   -1118486.51146   -817626.30346                  23694030.4244
        16.2504         15.2504
  24007485.8464    7422022.20846   5684607.95046                  24007495.3774
        16.5004         16.0004
 02  7 11 17  9 30.0020000  0  9G26G29G 6G15G17G18G21G 3G23
  23368872.6114    5215130.46946   4012911.14246                  23368881.2754
        17.7504         16.2504
  24367303.8074    5805556.85346   4460555.45746                  24367312.8114
        12.2504         12.2504
  23399143.9714    8037248.26946   6151790.82046                  23399153.6894
        16.5004         16.5004
  21033581.1824    2064979.19748   1598711.95747                  21033588.5684
        29.7504         28.5004
  21298881.0804    3011790.26947   2319308.00547                  21298888.7364
        27.0004         26.7504
  21009402.1274    1372518.39847   1075309.22147                  21009408.1394
        24.7504         26.5004
  22611129.0184   -1243534.07447   -929210.38746                  22611137.7644
        24.5004         24.0004
  23690686.2134   -1136011.90546   -831282.43046                  23690695.1004
        16.2504         15.2504
  24020091.8544    7488265.67446   5736226.18446                  24020100.6934
        16.5004         15.5004
 02  7 11 17  9 45.0020000  0  9G26G29G 6G15G17G18G21G 3G23
  23379399.4004    5270447.85746   4056015.57646                  23379408.2524
        17.7504         16.0004
  24378340.4864    5863556.09546   4505749.64546                  24378349.9824
        12.2504         12.5004
  23413206.9394    8111149.21346   6209375.88046                  23413216.9044
        16.2504         16.7504
  21038278.9714    2089666.70848   1617948.97647                  21038286.3464
        30.0004         28.5004
  21304958.5184    3043726.77347   2344193.57847                  21304965.8464
        27.5004         26.7504
  21013519.9864    1394156.95647   1092170.42347                  21013526.0214
        24.7504         26.5004
  22610739.4634   -1245581.19347   -930805.51846                  22610748.1974
        24.2504         23.7504
  23687372.9324   -1153422.98246   -844849.47246                  23687381.6314
        16.5004         15.7504
  24032708.2214    7554565.49846   5787888.35046                  24032717.6824
        16.0004         16.0004
 02  7 11 17 10  0.0020000  0  9G26G29G 6G15G17G18G21G 3G23
  23389958.8224    5325938.35246   4099254.88546                  23389967.3694
        17.7504         16.0004
  24389403.7994    5921695.01446   4551052.67346                  24389413.7294
        13.0004         12.2504
  23427288.7684    8185151.28146   6267039.73846                  23427299.0254
        16.2504         16.5004
  21042997.3304    2114461.98348   1637269.96747                  21043004.6704
        29.7504         28.5004
  21311054.6824    3075763.57947   2369157.30147                  21311061.8224
        27.5004         26.2504
  21017665.0024    1415939.63647   1109143.94947                  21017671.0374
        24.5004         26.7504
  22610370.6044   -1247519.11947   -932315.57346                  22610379.4904
        24.5004         23.7504
  23684081.3224   -1170720.75146   -858328.23246                  23684090.1864
        16.5004         15.2504
  24045335.1744    7620920.07246   5839593.15946                  24045344.3074
        16.2504         15.5004
 02  7 11 17 10 15.0020000  0  9G26G29G 6G15G17G18G21G 3G23
  23400552.5964    5381607.89246   4142633.72746                  23400561.4714
        17.5004         16.0004
  24400494.9714    5979979.47246   4596469.10246                  24400504.1154
        12.7504         12.2504
  23441391.7994    8259260.37046   6324786.99246                  23441402.5254
        16.2504         16.5004
  21047737.6584    2139371.24648   1656679.77747                  21047745.1864
        30.2504         28.7504
  21317171.6504    3107906.94647   2394204.05747                  21317179.0614
        27.2504         26.5004
  21021838.8854    1437872.50347   1126234.51347                  21021844.9084
        25.0004         26.7504
  22610023.7684   -1249341.64247   -933735.69346                  22610032.3964
        24.2504         23.7504
  23680812.5644   -1187898.68746   -871713.61146                  23680821.7914
        16.5004         15.7504
  24057973.7444    7687335.37946   5891345.31246                  24057982.9364
        16.2504         15.5004
 02  7 11 17 10 30.0020000  0  9G26G29G 6G15G17G18G21G 3G23
  23411178.4554    5437447.74046   4186145.26846                  23411187.3184
        17.7504         16.0004
  24411612.2444    6038400.76846   4641992.17346                  24411620.9674
        12.5004         12.5004
  23455512.7294    8333467.65546   6382610.74746                  23455523.2444
        16.5004         16.7504
  21052497.7754    2164386.07848   1676171.84547                  21052505.2684
        30.5004         28.7504
  21323306.8854    3140148.35947   2419327.21647                  21323314.3774
        27.2504         26.2504
  21026039.3694    1459946.88347   1143435.34347                  21026045.4044
        25.0004         27.0004
  22609697.1664   -1251057.04747   -935072.36046                  22609705.9594
        24.2504         24.0004
  23677564.8614   -1204965.05546   -885012.04546                  23677574.1824
        16.5004         15.5004
  24070621.7604    7753802.70946   5943137.99346                  24070630.6704
        15.7504         15.2504
 02  7 11 17 10 45.0020000  0  9G26G29G 6G15G17G18G21G 3G23
  23421837.1044    5493459.95446   4229791.13346                  23421846.4364
        17.7504         16.2504
  24422755.7294    6096960.90246   4687623.40946                  24422764.7914
        12.2504         12.5004
  23469653.5254    8407775.32546   6440512.74746                  23469663.7834
        16.0004         16.0004
  21057278.4634    2189508.90148   1695748.05547                  21057285.9904
        30.7504         29.0004
  21329461.3464    3172490.39447   2444528.78047                  21329468.6624
        27.0004         26.5004
  21030267.3074    1482165.18047   1160748.31847                  21030273.2714
        25.2504         27.0004
  22609391.5724   -1252662.95147   -936323.68946                  22609400.4244
        24.2504         24.0004
  23674338.6824   -1221917.01346   -898221.34146                  23674347.6274
        16.2504         15.7504
  24083280.5644    7820324.29046   5994972.95346                  24083289.7914
        15.5004         15.7504
 02  7 11 17 11  0.0020000  0  9G26G29G 6G15G17G18G21G 3G23
  23432528.7444    5549643.64746   4273570.59546                  23432537.6664
        17.5004         16.0004
  24433925.7054    6155659.01246   4733362.15346                  24433933.9364
        12.0004         12.0004
  23483812.3854    8482182.38946   6498492.17046                  23483823.1234
        15.7504         16.5004
  21062079.6194    2214739.00948   1715407.85547                  21062086.9714
        31.0004         29.0004
  21335635.1114    3204932.38847   2469808.23647                  21335642.4164
        27.0004         26.2504
  21034522.6744    1504526.63147   1178172.82347                  21034528.6624
        25.0004         27.0004
  22609106.6974   -1254159.96547   -937490.17646                  22609115.5024
        24.7504         24.5004
  23671134.7524   -1238755.07046   -911341.87446                  23671143.8614
        16.5004         15.2504
  24095949.5724    7886899.28346   6046849.52346                  24095958.8694
        15.7504         15.0004
 02  7 11 17 11 15.0020000  0  9G26G29G 6G15G17G18G21G 3G23
  23443252.8224    5606000.50046   4317485.00446                  23443261.4754
        17.2504         15.7504
  24445122.3934    6214496.85845   4779209.79946                  24445131.0214
        11.7504         12.2504
  23497990.7294    8556690.57946   6556550.40346                  23498001.1974
        15.2504         16.0004
  21066901.6894    2240078.46348   1735152.86447                  21066909.1114
        31.0004         29.2504
  21341828.0254    3237476.37647   2495167.16447                  21341835.3304
        27.2504         26.2504
  21038805.2754    1527033.01347   1195710.26947                  21038811.4394
        25.0004         27.0004
  22608842.9474   -1255546.23147   -938570.36346                  22608851.8114
        25.0004         24.7504
  23667952.8544   -1255476.94346   -924371.88046                  23667961.8114
        16.5004         15.5004
  24108628.9634    7953529.45146   6098769.07046                  24108638.0724
        15.7504         15.0004
 02  7 11 17 11 30.0020000  0  9G26G29G 6G15G17G18G21G 3G23
  23454010.4634    5662531.89346   4361535.42746                  23454019.2564
        16.5004         15.7504
  24456345.7364    6273475.86445   4825167.43545                  24456355.3144
        11.7504         11.7504
  23512189.0574    8631301.35146   6614688.56746                  23512199.5964
        15.2504         16.2504
  21071744.6584    2265529.15248   1754984.55747                  21071751.9864
        31.0004         28.7504
  21348040.5644    3270124.18547   2520606.98747                  21348047.8464
        27.0004         26.2504
  21043116.2754    1549685.94247   1213361.89947                  21043122.3574
        25.2504         26.7504
  22608600.4004   -1256820.01647   -939562.90646                  22608609.0064
        25.2504         24.5004
  23664792.9244   -1272080.68946   -937309.84246                  23664801.3184
        16.5004         15.5004
  24121319.0414    8020216.25846   6150732.77346                  24121328.4084
        15.5004         15.0004
 02  7 11 17 11 45.0020000  0  9G26G29G 6G15G17G18G21G 3G23
  23464801.0024    5719235.05846   4405719.66746                  23464810.7444
        16.5004         16.0004
  24467595.5724    6332593.20245   4871232.84545                  24467604.7644
        11.5004         11.7504
  23526405.9244    8706011.89046   6672904.46546                  23526416.5214
        15.0004         15.7504
  21076608.6744    2291088.64048   1774901.03347                  21076615.8034
        30.7504         28.7504
  21354272.5494    3302873.26147   2546125.72047                  21354279.7834
        27.2504         26.2504
  21047454.2684    1572482.74947   1231125.63347                  21047460.2914
        24.7504         26.5004
  22608379.0804   -1257983.87747   -940469.78446                  22608387.9674
        25.0004         25.0004
  23661655.3384   -1288568.43446   -950157.40446                  23661664.2254
        16.5004         15.2504
  24134019.1504    8086956.97746   6202738.45646                  24134028.5184
        15.7504         15.2504
 02  7 11 17 12  0.0020000  0  9G26G29G 6G15G17G18G21G 3G23
  23475623.0254    5776106.15646   4450034.78146                  23475632.4634
        17.0004         15.7504
  24478870.5334    6391845.10545   4917403.14645                  24478879.2564
        11.7504         11.7504
  23540641.0964    8780818.41346   6731195.17646                  23540651.5534
        14.7504         15.5004
  21081492.3614    2316753.36748   1794899.50647                  21081499.5724
        30.7504         29.0004
  21360523.2134    3335720.24247   2571720.73347                  21360530.4244
        27.5004         26.5004
  21051818.8074    1595419.78247   1248998.63447                  21051824.9004
        24.5004         26.7504
  22608177.8774   -1259041.23247   -941293.67446                  22608186.9754
        25.2504         25.2504
  23658539.3934   -1304943.43446   -962917.11846                  23658548.3734
        16.2504         15.2504
  24146728.9864    8153747.88246   6254783.26846                  24146737.6154
        15.7504         15.0004
 02  7 11 17 12 15.0020000  0  9G26G29G 6G15G17G18G21G 3G23
  23486477.4474    5833147.70346   4494482.72146                  23486486.6394
        16.5004         15.7504
  24490172.2294    6451234.13345   4963680.25845                  24490180.3894
        11.7504         11.7504
  23554895.1894    8855723.42946   6789562.62346                  23554905.9514
        14.5004         15.5004
  21086396.7134    2342526.13448   1814982.17347                  21086403.9714
        30.7504         29.0004
  21366792.9944    3368667.83347   2597394.15247                  21366800.1114
        27.7504         26.2504
  21056210.9084    1618499.83247   1266983.08447                  21056217.0844
        24.2504         26.7504
  22607997.3934   -1259989.49347   -942032.56446                  22608006.1974
        25.7504         25.2504
  23655445.3774   -1321202.59846   -975586.56946                  23655454.6624
        16.0004         15.5004
  24159449.0334    8220591.62946   6306869.26546                  24159458.4714
        15.7504         15.2504
 02  7 11 17 12 30.0020000  0  9G26G29G 6G15G17G18G21G 3G23
  23497365.2524    5890362.79246   4539065.87246                  23497374.7364
        16.7504         15.7504
  24501499.9244    6510763.32745   5010066.62345                  24501508.5884
        11.5004         11.5004
  23569168.6504    8930730.13946   6848009.29446                  23569179.1784
        14.5004         15.7504
  21091322.2524    2368410.45048   1835151.75547                  21091329.5454
        30.7504         29.0004
  21373082.2914    3401719.60148   2623148.75947                  21373089.3854
        28.0004         26.2504
  21060630.5494    1641726.24347   1285081.57047                  21060636.8074
        24.5004         26.7504
  22607838.4004   -1260825.03647   -942683.61746                  22607847.2174
        25.7504         25.2504
  23652374.3774   -1337342.19646   -988162.85646                  23652383.5334
        16.0004         15.2504
  24172180.0574    8287491.45746   6358998.93346                  24172189.0844
        15.7504         15.0004
 02  7 11 17 12 45.0020000  0  9G26G29G 6G15G17G18G21G 3G23
  23508285.3224    5947745.99946   4583780.02246                  23508294.2324
        17.0004         15.7504
  24512854.2914    6570427.21545   5056557.93245                  24512863.8814
        11.5004         11.7504
  23583460.0184    9005833.00646   6906530.92046                  23583470.8734
        15.0004         15.5004
  21096268.2834    2394401.21848   1855404.29347                  21096275.7174
        30.7504         29.2504
  21379390.8774    3434870.50148   2648980.60247                  21379397.9824
        28.2504         26.5004
  21065077.5024    1665093.63547   1303289.90747                  21065083.6784
        24.5004         26.7504
  22607699.9864   -1261553.34047   -943251.11446                  22607708.7324
        25.5004         25.2504
  23649324.7994   -1353367.07346  -1000649.74846                  23649333.6864
        16.0004         15.0004
  24184920.1434    8354441.89646   6411168.06046                  24184929.3114
        16.0004         14.7504
 02  7 11 17 13  0.0020000  0  9G26G29G 6G15G17G18G21G 3G23
  23519237.0024    6005296.54146   4628624.57746                  23519245.7134
        17.0004         15.7504
  24524232.9864    6630225.18145   5103153.69345                  24524242.7174
        11.7504         11.7504
  23597770.2444    9081031.29446   6965126.87846                  23597781.6624
        14.5004         15.5004
  21101234.2604    2420498.07348   1875739.49647                  21101241.8114
        30.7504         29.2504
  21385718.0804    3468119.90348   2674889.21147                  21385725.3854
        28.0004         26.5004
  21069550.8224    1688601.30247   1321607.54947                  21069556.8694
        24.5004         26.5004
  22607581.7134   -1262174.67047   -943735.24546                  22607590.5644
        25.2504         25.0004
  23646296.9164   -1369277.40746  -1013047.39646                  23646306.4714
        15.7504         15.2504
  24197669.9944    8421442.29746   6463376.12846                  24197679.2214
        16.0004         14.7504
 02  7 11 17 13 15.0020000  0  9G26G29G 6G15G17G18G21G 3G23
  23530219.6894    6063012.99046   4673598.39346                  23530228.0724
        17.5004         15.7504
  24535637.5414    6690155.71145   5149852.78745                  24535646.1934
        11.7504         11.2504
  23612097.7684    9156323.51446   7023796.03146                  23612108.1074
        14.7504         16.0004
  21106220.3694    2446699.76048   1896156.38247                  21106228.0024
        30.7504         29.2504
  21392063.7684    3501466.87548   2700873.85447                  21392070.8384
        28.0004         26.5004
  21074050.5884    1712248.05547   1340033.56747                  21074056.6824
        24.5004         26.5004
  22607483.4324   -1262690.23047   -944136.95546                  22607492.0724
        25.5004         25.0004
  23643291.1354   -1385074.05546  -1025356.42746                  23643299.8934
        15.7504         15.0004
  24210428.9474    8488491.27946   6515622.04546                  24210438.3614
        16.0004         14.5004
 02  7 11 17 13 30.0020000  0  9G26G29G 6G15G17G18G21G 3G23
  23541234.8384    6120898.26846   4718703.76846                  23541243.1864
        17.2504         16.0004
  24547067.8074    6750221.79246   5196657.48345                  24547076.7174
        12.0004         11.7504
  23626443.8304    9231712.70646   7082540.75846                  23626455.3894
        14.5004         15.7504
  21111227.1354    2473009.60848   1916657.54647                  21111234.6624
        31.0004         29.0004
  21398428.6584    3534914.58947   2726936.99247                  21398435.5764
        27.7504         26.2504
  21078577.6894    1736037.04847   1358570.41347                  21078583.7364
        24.5004         26.2504
  22607406.1664   -1263096.83447   -944453.77046                  22607414.8894
        25.7504         25.0004
  23640306.9324   -1400753.54146  -1037574.18146                  23640316.4754
        15.5004         15.0004
  24223197.5414    8555591.82546   6567908.13146                  24223206.4394
        15.7504         14.7504
 02  7 11 17 13 45.0020000  0  9G26G29G 6G15G17G18G21G 3G23
  23552281.8384    6178948.75146   4763937.88546                  23552289.5644
        16.7504         15.5004
  24558523.0104    6810419.84246   5243565.03245                  24558531.2404
        12.2504         11.5004
  23640807.8774    9307195.26346   7141358.22046                  23640818.9794
        14.7504         15.5004
  21116253.6354    2499424.37548   1937240.46747                  21116261.3384
        30.7504         29.0004
  21404812.2214    3568459.97447   2753076.24147                  21404818.9714
        27.5004         26.2504
  21083130.9244    1759964.85647   1377215.43047                  21083136.9364
        24.5004         26.2504
  22607348.6974   -1263397.81647   -944688.28246                  22607357.4084
        25.5004         24.5004
  23637344.8304   -1416318.90746  -1049703.01546                  23637353.7644
        15.7504         15.2504
  24235975.7444    8622740.44246   6620231.69446                  24235984.5374
        15.5004         14.5004
 02  7 11 17 14  0.0020000  0  9G26G29G 6G15G17G18G21G 3G23
  23563360.4244    6237168.03746   4809303.50946                  23563368.9004
        17.0004         15.5004
  24570004.3144    6870753.50845   5290578.22645                  24570012.4634
        11.7504         11.5004
  23655190.7054    9382774.76246   7200251.23846                  23655201.2094
        14.5004         15.5004
  21121300.7754    2525947.94548   1957908.16047                  21121308.2444
        30.7504         29.2504
  21411214.9714    3602106.86347   2779294.57947                  21411221.9004
        27.5004         26.0004
  21087711.4004    1784035.26247   1395971.57347                  21087717.5184
        24.5004         26.5004
  22607312.4004   -1263589.11447   -944837.32046                  22607320.8894
        26.0004         24.7504
  23634405.6824   -1431765.94946  -1061739.63346                  23634414.8034
        16.0004         15.5004
  24248763.4394    8689940.83046   6672595.57246                  24248772.9364
        16.2504         14.7504
 02  7 11 17 14 15.0020000  0  9G26G29G 6G15G17G18G21G 3G23
  23574471.3614    6295555.91846   4854800.54846                  23574479.1824
        16.5004         15.5004
  24581511.2524    6931222.61046   5337696.97745                  24581519.5534
        12.0004         11.5004
  23669591.0804    9458451.06146   7259219.69546                  23669601.2214
        14.7504         15.5004
  21126368.8854    2552580.61048   1978660.87847                  21126376.3654
        30.2504         29.0004
  21417637.0254    3635855.41047   2805592.13947                  21417643.8854
        27.2504         26.2504
  21092318.8774    1808248.38747   1414838.93247                  21092324.8654
        24.7504         26.5004
  22607297.0644   -1263670.43847   -944900.66846                  22607305.6934
        26.0004         25.0004
  23631488.7834   -1447094.08546  -1073683.62446                  23631497.7404
        16.2504         15.2504
  24261561.3544    8757192.99446   6724999.81846                  24261570.6274
        16.0004         14.7504
 02  7 11 17 14 30.0020000  0  9G26G29G 6G15G17G18G21G 3G23
  23585613.8854    6354109.25246   4900426.48246                  23585622.2444
        17.0004         15.5004
  24593043.1824    6991823.95345   5384918.75545                  24593051.4364
        11.7504         11.0004
  23684009.5414    9534221.04946   7318261.12346                  23684019.9984
        14.2504         15.2504
  21131457.2134    2579319.50448   1999496.35847                  21131464.7644
        30.2504         29.0004
  21424078.2214    3669702.85547   2831966.76247                  21424085.2324
        27.0004         26.5004
  21096953.2754    1832601.07847   1433815.03547                  21096959.2524
        24.5004         26.7504
  22607301.8464   -1263644.99247   -944880.82046                  22607310.2524
        26.2504         25.0004
  23628593.7604   -1462305.91946  -1085536.98046                  23628602.6934
        16.2504         15.7504
  24274368.0574    8824493.84146   6777441.99746                  24274377.2834
        15.7504         15.0004
 02  7 11 17 14 45.0020000  0  9G26G29G 6G15G17G18G21G 3G23
  23596787.6434    6412828.35046   4946181.58846                  23596796.1664
        16.5004         15.2504
  24604600.4394    7052557.87645   5432243.86345                  24604609.7954
        11.7504         11.0004
  23698446.0644    9610085.05846   7377375.84946                  23698456.8264
        14.2504         15.2504
  21136565.8224    2606165.34348   2020415.18247                  21136573.5144
        30.2504         29.2504
  21430538.1114    3703649.93647   2858419.02147                  21430545.2524
        27.2504         26.2504
  21101614.0104    1857093.83247   1452900.28047                  21101620.0334
        24.5004         26.5004
  22607327.0964   -1263512.09047   -944777.23846                  22607335.4794
        26.2504         25.2504
  23625721.5254   -1477400.57346  -1097299.02246                  23625730.1314
        16.5004         15.2504
  24287184.5494    8891843.78246   6829922.42546                  24287193.6464
        15.5004         14.7504
 02  7 11 17 15  0.0020000  0  9G26G29G 6G15G17G18G21G 3G23
  23607994.1114    6471718.48346   4992069.96646                  23608002.8574
        16.5004         15.2504
  24616184.4004    7113429.70645   5479676.38945                  24616194.0024
        11.2504         11.2504
  23712901.8384    9686048.31646   7436567.88446                  23712913.3384
        13.5004         14.7504
  21141695.8074    2633123.61648   2041421.61847                  21141703.5924
        30.2504         29.2504
  21437017.9324    3737702.10747   2884953.16647                  21437025.2604
        27.2504         26.5004
  21106302.4394    1881732.07047   1472098.88447                  21106308.5334
        24.5004         26.5004
  22607373.8074   -1263266.23847   -944585.64346                  22607382.3774
        26.0004         25.0004
  23622872.7134   -1492372.27046  -1108965.26246                  23622881.5414
        16.5004         15.7504
  24300011.2364    8959248.07146   6882445.19946                  24300021.0614
        15.7504         14.7504
 02  7 11 17 15 15.0020000  0  9G26G29G 6G15G17G18G21G 3G23
  23619232.2684    6530776.12546   5038088.87346                  23619240.1704
        16.5004         15.5004
  24627793.5184    7174435.95145   5527213.69145                  24627802.2294
        11.2504         11.0004
  23727375.2364    9762107.48446   7495834.65646                  23727385.8814
        14.2504         15.5004
  21146846.5724    2660191.36248   2062513.35247                  21146854.3114
        30.7504         29.2504
  21443517.2524    3771856.25547   2911566.77547                  21443524.6624
        27.2504         26.2504
  21111018.0574    1906512.66647   1491408.43247                  21111023.9864
        24.5004         26.5004
  22607441.4864   -1262910.66647   -944308.54846                  22607450.1624
        25.5004         24.7504
  23620046.4634   -1507223.76646  -1120537.82046                  23620055.3854
        16.7504         15.7504
  24312847.3934    9026703.47246   6935007.81046                  24312856.3854
        15.7504         14.7504
 02  7 11 17 15 30.0020000  0  9G26G29G 6G15G17G18G21G 3G23
  23630503.0414    6590002.68446   5084239.41146                  23630511.1784
        16.2504         15.0004
  24639428.0724    7235577.85845   5574856.70245                  24639436.3614
        11.0004         11.2504
  23741868.1274    9838263.80746   7555177.13546                  23741878.8424
        14.5004         15.0004
  21152018.5024    2687370.17848   2083691.63847                  21152026.1464
        31.2504         29.5004
  21450036.2364    3806114.13747   2938261.22147                  21450043.7644
        27.5004         26.5004
  21115761.0804    1931437.02147   1510830.01147                  21115767.0684
        24.5004         26.7504
  22607529.9474   -1262443.65847   -943944.62046                  22607538.6234
        25.5004         24.5004
  23617243.5494   -1521953.13646  -1132015.23446                  23617252.3894
        17.0004         16.0004
  24325693.9634    9094211.37246   6987611.32046                  24325703.8694
        15.7504         14.7504
 02  7 11 17 15 45.0020000  0  9G26G29G 6G15G17G18G21G 3G23
  23641804.5644    6649394.92946   5130519.05746                  23641813.6154
        16.5004         15.5004
  24651088.2914    7296852.51545   5622603.14645                  24651098.0574
        11.2504         11.0004
  23756377.4794    9914514.05746   7614592.82046                  23756388.0184
        15.2504         15.5004
  21157211.3304    2714657.25248   2104954.28847                  21157219.0334
        31.2504         29.5004
  21456574.4714    3840473.05048   2965034.40047                  21456581.8814
        28.0004         26.5004
  21120530.8224    1956502.03847   1530361.19047                  21120537.0574
        24.7504         26.7504
  22607639.5804   -1261867.97447   -943496.00646                  22607648.0924
        25.5004         24.2504
  23614463.2914   -1536563.05546  -1143399.55346                  23614471.8384
        17.0004         16.5004
  24338549.7604    9161768.67846   7040253.33146                  24338560.0184
        15.7504         15.0004
 02  7 11 17 16  0.0020000  0  9G26G29G 6G15G17G18G21G 3G23
  23653138.9794    6708955.33646   5176929.72446                  23653147.9714
        16.2504         15.2504
  24662773.9554    7358262.32545   5670454.90445                  24662783.3934
        11.0004         11.5004
  23770905.8614    9990860.90946   7674083.77546                  23770916.8694
        14.2504         15.2504
  21162424.7754    2742055.52748   2126303.58747                  21162432.4084
        31.0004         29.5004
  21463132.7134    3874935.75148   2991888.43447                  21463139.9824
        28.0004         26.2504
  21125327.9394    1981710.55947   1550004.19947                  21125334.1624
        24.7504         27.0004
  22607770.5334   -1261181.00647   -942960.68046                  22607778.7644
        25.2504         24.2504
  23611706.2914   -1551050.29046  -1154688.28646                  23611715.3184
        16.7504         16.2504
  24351415.1824    9229378.08446   7092935.94246                  24351424.2914
        15.2504         14.5004
 02  7 11 17 16 15.0020000  0  9G26G29G 6G15G17G18G21G 3G23
  23664505.0574    6768684.48146   5223471.88246                  23664513.8734
        16.5004         15.0004
  24674486.1584    7419807.74045   5718412.31845                  24674494.7644
        11.0004         10.7504
  23785452.9864   10067304.76046   7733650.30746                  23785463.7254
        15.0004         15.2504
  21167659.7364    2769565.70348   2147740.08047                  21167667.2644
        31.0004         29.2504
  21469710.5884    3909503.02448   3018823.95347                  21469717.9634
        28.0004         26.5004
  21130152.2914    2007063.25447   1569759.54347                  21130158.3854
        24.7504         26.7504
  22607922.5494   -1260381.83147   -942337.92746                  22607931.0614
        25.2504         24.2504
  23608972.9944   -1565413.81046  -1165880.61146                  23608982.2794
        16.7504         16.0004
  24364290.9244    9297040.16046   7145659.61246                  24364299.9164
        15.2504         14.5004
 02  7 11 17 16 30.0020000  0  9G26G29G 6G15G17G18G21G 3G23
  23675901.2754    6828572.29846   5270137.67546                  23675910.0684
        16.5004         15.5004
  24686221.7834    7481478.91145   5766467.74845                  24686230.6824
        11.0004         11.0004
  23800016.1824   10143835.71646   7793284.70546                  23800027.1194
        14.2504         14.5004
  21172914.4244    2797178.19148   2169256.29547                  21172921.6464
        31.5004         29.2504
  21476306.5644    3944165.37448   3045833.55347                  21476313.7644
        28.0004         26.2504
  21135002.1584    2032550.18047   1589619.48147                  21135008.2174
        24.5004         26.7504
  22608094.1894   -1259480.16947   -941635.31246                  22608102.5254
        25.2504         24.2504
  23606261.2754   -1579663.02046  -1176983.87046                  23606269.8694
        16.5004         16.0004
  24377175.0574    9364744.99446   7198416.59046                  24377184.5184
        15.0004         14.2504
 02  7 11 17 16 45.0020000  0  9G26G29G 6G15G17G18G21G 3G23
  23687329.1824    6888625.92346   5316932.67546                  23687338.0214
        16.2504         15.5004
  24697982.6194    7543282.86845   5814626.61845                  24697992.0104
        10.7504         11.2504
  23814597.4714   10220460.91746   7852992.55646                  23814608.4904
        14.5004         15.0004
  21178189.7524    2824900.58948   2190858.15847                  21178196.9394
        31.2504         29.0004
  21482922.2294    3978930.26248   3072923.06847                  21482929.4164
        28.0004         26.5004
  21139879.2604    2058178.77447   1609589.80547                  21139885.3654
        24.2504         26.7504
  22608286.5884   -1258468.63847   -940847.07646                  22608294.9594
        25.2504         24.2504
  23603572.8304   -1593790.18946  -1187992.03646                  23603581.6824
        16.5004         16.0004
  24390068.2214    9432499.90046   7251212.57746                  24390077.5414
        14.7504         14.0004
 02  7 11 17 17  0.0020000  0  9G26G29G 6G15G17G18G21G 3G23
  23698787.8544    6948843.44046   5363855.37846                  23698796.6934
        16.0004         15.2504
  24709768.7214    7605217.87745   5862887.63445                  24709778.4284
        11.0004         10.7504
  23829196.6824   10297178.45846   7912772.34046                  23829207.7254
        14.0004         14.7504
  21183485.7054    2852731.30948   2212544.42747                  21183492.7644
        31.2504         29.0004
  21489557.0414    4013796.10248   3100091.24447                  21489564.2054
        28.0004         26.5004
  21144782.6894    2083947.20947   1629669.09647                  21144788.8424
        24.7504         27.0004
  22608499.6194   -1257348.83347   -939974.47846                  22608508.0144
        25.2504         24.2504
  23600908.0184   -1607796.60946  -1198906.09546                  23600917.2214
        16.7504         16.2504
  24402970.9164    9500303.03846   7304046.15646                  24402980.4944
        14.5004         14.0004
 02  7 11 17 17 15.0020000  0  9G26G29G 6G15G17G18G21G 3G23
  23710277.6274    7009221.04046   5410902.82946                  23710286.7604
        16.2504         15.0004
  24721578.4084    7667280.07445   5911247.73145                  24721587.6704
        11.0004         11.5004
  23843812.4394   10373984.66446   7972621.23746                  23843823.1434
        13.5004         14.2504
  21188801.7994    2880666.83148   2234312.36547                  21188808.9164
        30.5004         29.0004
  21496210.5184    4048759.41947   3127335.37847                  21496217.7524
        27.7504         26.5004
  21149712.1664    2109851.85047   1649854.52347                  21149718.4244
        24.7504         27.0004
  22608732.5334   -1256124.23247   -939020.23046                  22608741.1154
        25.2504         24.5004
  23598264.7444   -1621685.46346  -1209728.55646                  23598273.8074
        16.7504         16.2504
  24415881.6664    9568150.73646   7356914.44346                  24415891.4674
        14.0004         13.7504
 02  7 11 17 17 30.0020000  0  9G26G29G 6G15G17G18G21G 3G23
  23721796.8774    7069757.25646   5458073.87046                  23721805.6004
        16.0004         14.7504
  24733412.8464    7729467.83345   5959705.69045                  24733421.1934
        11.2504         11.2504
  23858444.8304   10450877.97446   8032537.99146                  23858455.6864
        13.0004         14.2504
  21194137.3614    2908705.97148   2256161.04247                  21194144.6894
        30.7504         29.0004
  21502881.7914    4083819.09747   3154654.60447                  21502889.0374
        27.7504         26.5004
  21154667.4004    2135891.45347   1670145.11947                  21154673.7994
        24.5004         27.0004
  22608985.3614   -1254795.93947   -937985.15946                  22608994.1194
        25.2504         24.5004
  23595644.3144   -1635457.62646  -1220460.09546                  23595653.1434
        16.7504         16.0004
  24428801.2294    9636041.51546   7409816.31146                  24428810.9244
        14.2504         14.0004
 02  7 11 17 17 45.0020000  0  9G26G29G 6G15G17G18G21G 3G23
  23733348.1194    7130457.34246   5505372.59446                  23733356.6074
        15.7504         15.0004
  24745271.6194    7791786.65546   6008265.74946                  24745280.4824
        12.0004         12.0004
  23873094.9474   10527863.83146   8092526.85546                  23873106.0844
        13.2504         14.2504
  21199493.8934    2936854.60148   2278095.04247                  21199501.4204
        30.5004         29.0004
  21509573.1194    4118980.95247   3182053.45847                  21509580.2954
        27.7504         26.5004
  21159649.1584    2162071.53347   1690545.18347                  21159655.5804
        24.2504         26.7504
  22609258.7134   -1253358.53347   -936865.07446                  22609267.3654
        25.5004         24.7504
  23593046.4864   -1649107.04846  -1231095.99146                  23593055.3144
        16.7504         16.2504
  24441729.5334    9703980.94546   7462756.07546                  24441739.7324
        14.2504         14.0004
 02  7 11 17 18  0.0020000  0  9G26G29G 6G15G17G18G21G 3G23
  23744929.7994    7191320.10246   5552798.07946                  23744938.5214
        16.0004         14.7504
  24757154.7134    7854235.37745   6056927.04845                  24757164.4554
        11.7504         11.0004
  23887762.4084   10604940.90046   8152586.80146                  23887773.7324
        13.5004         13.7504
  21204870.9794    2965111.73348   2300113.57547                  21204878.6584
        30.2504         29.0004
  21516283.3074    4154243.94448   3209531.10847                  21516290.5294
        28.0004         26.5004
  21164657.8774    2188390.96147   1711053.83247                  21164664.0764
        24.5004         26.7504
  22609552.9324   -1251812.96347   -935660.71246                  22609561.2914
        26.0004         24.5004
  23590472.4084   -1662634.48146  -1241636.81546                  23590481.2364
        16.7504         16.2504
  24454666.8614    9771967.84446   7515732.83346                  24454677.3304
        14.0004         13.7504
 02  7 11 17 18 15.0020000  0  9G26G29G 6G15G17G18G21G 3G23
  23756542.0334    7252341.85646   5600347.47146                  23756551.2364
        15.7504         14.7504
  24769062.9004    7916810.28145   6105686.67045                  24769072.7014
        11.5004         11.7504
  23902445.9164   10682105.56946   8212715.01146                  23902457.2054
        13.2504         14.0004
  21210268.3074    2993474.01348   2322214.05047                  21210275.9634
        30.5004         29.0004
  21523012.4084    4189604.95048   3237085.13247                  21523019.6544
        28.2504         26.7504
  21169691.9634    2214846.35747   1731668.41847                  21169698.1154
        24.5004         26.7504
  22609866.9634   -1250162.42447   -934374.56246                  22609875.5454
        25.5004         24.7504
  23587920.8224   -1676042.91446  -1252084.91946                  23587929.7794
        17.0004         16.2504
  24467612.9084    9839998.71546   7568743.85046                  24467623.2604
        13.7504         13.7504
 02  7 11 17 18 30.0020000  0  9G26G29G 6G15G17G18G21G 3G23
  23768184.2524    7313522.70146   5648020.81146                  23768193.4324
        16.0004         15.0004
  24780994.5494    7979511.43745   6154544.67745                  24781004.1864
        11.7504         11.7504
  23917146.8144   10759357.91046   8272911.53246                  23917157.7404
        13.2504         14.5004
  21215685.2754    3021941.97748   2344396.87847                  21215692.7914
        30.5004         29.0004
  21529759.8224    4225064.29248   3264715.77647                  21529767.2214
        28.0004         26.7504
  21174752.3224    2241437.94547   1752389.13447                  21174758.3114
        24.2504         26.7504
  22610201.2054   -1248406.51847   -933006.29246                  22610209.6004
        25.7504         25.0004
  23585391.9164   -1689331.72646  -1262439.81746                  23585400.8854
        16.7504         16.2504
  24480567.0964    9908073.69946   7621789.24646                  24480577.2604
        13.7504         13.7504
 02  7 11 17 18 45.0030000  0  9G26G29G 6G15G17G18G21G 3G23
  23779856.7574    7374861.49746   5695817.22746                  23779865.7964
        15.2504         15.0004
  24792950.1944    8042337.98845   6203500.37746                  24792959.4444
        11.2504         12.0004
  23931863.9134   10836697.96946   8333176.41346                  23931875.4014
        12.2504         13.7504
  21221122.2264    3050512.73048   2366659.80747                  21221129.6594
        30.7504         28.7504
  21536525.7654    4260619.53348   3292421.14847                  21536533.1164
        28.2504         26.5004
  21179837.7804    2268162.58547   1773213.53147                  21179843.9914
        24.2504         26.2504
  22610554.4054   -1246550.06347   -931559.68246                  22610562.9874
        25.7504         25.0004
  23582884.7964   -1702506.40846  -1272705.77046                  23582893.6474
        17.0004         16.5004
  24493529.7104    9976192.37846   7674868.70846                  24493540.4014
        13.7504         13.7504
 02  7 11 17 19  0.0030000  0  9G26G29G 6G15G17G18G21G 3G23
  23791558.1244    7436351.54346   5743731.50546                  23791566.9404
        15.7504         14.7504
  24804928.1794    8105282.96146   6252548.38646                  24804938.2264
        12.0004         12.0004
  23946596.7494   10914116.87146   8393502.69646                  23946608.7184
        12.7504         13.7504
  21226578.2964    3079184.24048   2389001.25347                  21226585.7884
        30.2504         28.7504
  21543309.5544    4296267.82248   3320199.02647                  21543316.8474
        28.0004         26.7504
  21184948.1634    2295018.16447   1794139.96247                  21184954.3624
        24.2504         26.5004
  22610927.0304   -1244591.77847   -930033.71946                  22610935.5544
        25.5004         25.0004
  23580400.1324   -1715563.08946  -1282879.78546                  23580408.8784
        17.0004         16.5004
  24506499.5154   10044347.13446   7727976.26446                  24506509.7614
        13.5004         13.2504
 02  7 11 17 19 15.0030000  0  9G26G29G 6G15G17G18G21G 3G23
  23803289.2104    7497999.75246   5791769.03446                  23803298.3314
        15.5004         14.7504
  24816929.8354    8168353.36245   6301694.06545                  24816939.3314
        11.7504         11.5004
  23961345.4764   10991622.66246   8453896.71646                  23961356.9874
        12.5004         13.7504
  21232054.4914    3107961.59548   2411425.16647                  21232061.9374
        30.5004         29.0004
  21550111.9294    4332014.62848   3348053.67647                  21550119.4564
        28.2504         27.0004
  21190084.5694    2322009.64147   1815172.27947                  21190090.7334
        24.5004         26.2504
  22611319.6244   -1242528.22847   -928425.73746                  22611328.2064
        25.2504         24.7504
  23577938.6474   -1728499.30946  -1292959.93546                  23577947.2654
        17.5004         16.2504
  24519477.0464   10112545.46146   7781117.79546                  24519487.1404
        13.7504         13.5004
 02  7 11 17 19 30.0030000  0  9G26G29G 6G15G17G18G21G 3G23
  23815050.7804    7559807.00046   5839930.47646                  23815059.5854
        15.2504         14.7504
  24828955.7654    8231550.17845   6350938.31745                  24828965.6834
        11.5004         11.5004
  23976111.5624   11069216.30146   8514359.17446                  23976122.9214
        13.5004         14.0004
  21237550.9604    3136846.15248   2433932.61147                  21237558.4404
        30.5004         29.0004
  21556933.4374    4367861.35348   3375986.17547                  21556940.8944
        28.0004         27.0004
  21195246.9374    2349138.07747   1836311.31247                  21195253.0424
        24.5004         26.0004
  22611732.4834   -1240358.24847   -926734.82246                  22611741.1594
        25.0004         24.7504
  23575500.4374   -1741313.50846  -1302945.00046                  23575509.4644
        17.2504         16.5004
  24532463.0074   10180788.48446   7834294.14346                  24532472.7144
        14.0004         13.5004
 02  7 11 17 19 45.0030000  0  9G26G29G 6G15G17G18G21G 3G23
  23826843.2884    7621777.78446   5888219.35046                  23826852.1044
        14.7504         14.5004
  24841007.0624    8294877.86145   6400284.51545                  24841016.3944
        11.2504         11.5004
  23990894.8664   11146902.25346   8574893.57246                  23990905.9334
        13.5004         14.2504
  21243068.8974    3165842.75248   2456527.35747                  21243076.5654
        30.0004         29.0004
  21563774.5694    4403812.81847   3404000.28247                  21563782.2024
        27.7504         27.0004
  21200436.0624    2376408.00347   1857560.60447                  21200442.1084
        24.5004         26.2504
  22612166.5384   -1238077.06547   -924957.25046                  22612175.3084
        25.2504         24.7504
  23573085.7724   -1754000.57846  -1312831.00346                  23573094.4604
        17.5004         16.5004
  24545458.5074   10249080.73046   7887508.85046                  24545468.6944
        13.5004         13.2504
 02  7 11 17 20  0.0030000  0  9G26G29G 6G15G17G18G21G 3G23
  23838664.9214    7683899.86946   5936626.11946                  23838673.9134
        15.0004         14.7504
  24853080.8194    8358324.25245   6449723.22746                  24853090.4794
        11.5004         12.0004
  24005693.1474   11224668.33746   8635490.41646                  24005704.4604
        13.5004         14.0004
  21248605.6874    3194939.51348   2479200.15147                  21248613.3904
        30.5004         29.2504
  21570633.7964    4439857.09547   3432086.70247                  21570641.3704
        27.7504         26.7504
  21205650.2264    2403807.60647   1878910.95047                  21205656.2724
        24.5004         26.0004
  22612619.7104   -1235696.55747   -923102.28646                  22612628.2924
        25.5004         25.0004
  23570693.7334   -1766572.14146  -1322627.01346                  23570702.7614
        17.7504         16.5004
  24558461.7104   10317410.16346   7940752.52146                  24558470.8904
        13.5004         13.2504
 02  7 11 17 20 15.0030000  0  9G26G29G 6G15G17G18G21G 3G23
  23850515.4444    7746175.52346   5985152.56746                  23850524.4254
        15.2504         14.7504
  24865176.8434    8421891.80945   6499256.33345                  24865186.4564
        11.5004         11.7504
  24020507.2884   11302516.97046   8696151.57446                  24020518.2614
        13.2504         13.7504
  21254162.2574    3224139.20148   2501953.14647                  21254170.0654
        30.5004         29.2504
  21577510.9444    4475997.11447   3460247.73547                  21577518.4724
        27.2504         26.7504
  21210889.3584    2431339.27747   1900364.20147                  21210895.4174
        24.5004         26.2504
  22613092.3194   -1233214.02747   -921167.82446                  22613100.8544
        25.5004         25.0004
  23568323.9914   -1779025.17546  -1332330.66446                  23568332.4444
        18.2504         17.0004
  24571471.7184   10385779.29946   7994027.13746                  24571482.0464
        13.5004         13.2504
 02  7 11 17 20 30.0030000  0  9G26G29G 6G15G17G18G21G 3G23
  23862395.6714    7808606.08646   6033799.71046                  23862405.4374
        15.0004         14.2504
  24877296.8434    8485581.56945   6548884.68445                  24877307.1124
        11.0004         11.2504
  24035337.7334   11380449.34546   8756877.99046                  24035348.9294
        13.5004         14.0004
  21259738.6014    3253443.25748   2524787.47447                  21259746.3274
        30.7504         29.2504
  21584406.7184    4512234.25947   3488484.45847                  21584414.4444
        27.5004         26.7504
  21216153.7804    2459004.33747   1921921.40747                  21216159.9214
        24.2504         26.2504
  22613584.1944   -1230627.98147   -919152.70546                  22613593.0814
        25.2504         24.7504
  23565977.3194   -1791357.87246  -1341940.53046                  23565985.9954
        18.2504         16.7504
  24584489.7494   10454189.39446   8047333.67946                  24584500.2294
        13.5004         13.2504
 02  7 11 17 20 45.0030000  0  9G26G29G 6G15G17G18G21G 3G23
  23874306.4994    7871196.83446   6082571.66646                  23874315.7374
        15.0004         14.5004
  24889440.6164    8549399.11745   6598612.59045                  24889451.2264
        10.7504         11.0004
  24050184.3044   11458470.89046   8817673.88046                  24050195.8274
        13.5004         13.7504
  21265336.1084    3282857.49248   2547707.65347                  21265343.8824
        30.7504         29.2504
  21591322.0544    4548574.39047   3516801.43647                  21591329.9094
        27.0004         26.7504
  21221444.7334    2486808.44447   1943586.95447                  21221450.7694
        24.2504         26.2504
  22614096.9524   -1227932.70147   -917052.46146                  22614105.2654
        25.2504         24.7504
  23563654.3664   -1803564.35646  -1351452.05946                  23563662.7614
        18.2504         16.7504
  24597516.7264   10522645.98646   8100676.46546                  24597527.1474
        13.5004         13.5004
 02  7 11 17 21  0.0030000  0  9G26G29G 6G15G17G18G21G 3G23
  23886246.4054    7933942.28446   6131464.19146                  23886255.9724
        15.0004         14.5004
  24901608.1874    8613338.81445   6648435.68145                  24901618.6084
        10.7504         11.5004
  24065047.5854   11536576.14646   8878535.02046                  24065059.0154
        13.2504         13.7504
  21270953.4444    3312376.85148   2570709.73347                  21270961.1124
        31.0004         29.2504
  21598255.8434    4585012.26747   3545194.57347                  21598263.6164
        27.2504         26.5004
  21226761.1084    2514746.18647   1965356.63347                  21226767.1554
        24.5004         26.2504
  22614629.5934   -1225133.52947   -914871.26446                  22614637.9174
        25.2504         24.5004
  23561354.0854   -1815649.36046  -1360868.91846                  23561362.9014
        18.0004         16.7504
  24610551.2494   10591143.64546   8154051.22446                  24610561.3784
        13.7504         13.0004
 02  7 11 17 21 15.0030000  0  9G26G29G 6G15G17G18G21G 3G23
  23898215.8194    7996840.92146   6180476.05946                  23898225.3154
        14.7504         14.5004
  24913798.6014    8677399.32245   6698352.89345                  24913808.8944
        10.7504         11.5004
  24079925.9834   11614763.62746   8939460.22146                  24079937.7414
        12.5004         13.5004
  21276590.5934    3342000.13348   2593792.79947                  21276598.2614
        30.7504         29.2504
  21605208.3194    4621546.71047   3573662.96247                  21605216.0694
        27.0004         26.7504
  21232102.5774    2542816.25247   1987229.42247                  21232108.6474
        24.5004         26.2504
  22615181.8514   -1222231.62747   -912610.01146                  22615190.3394
        25.2504         24.5004
  23559077.6634   -1827613.86346  -1370191.88246                  23559086.3624
        17.7504         16.7504
  24623593.2574   10659681.01346   8207456.91846                  24623604.3474
        13.5004         13.0004
 02  7 11 17 21 30.0030000  0  9G26G29G 6G15G17G18G21G 3G23
  23910213.7574    8059890.78446   6229605.78846                  23910223.4994
        14.5004         14.2504
  24926011.2884    8741578.65045   6748362.72345                  24926021.8624
        10.7504         11.2504
  24094819.7654   11693031.40946   9000447.97646                  24094831.1014
        12.5004         13.0004
  21282246.9524    3371725.78648   2616955.65647                  21282254.6204
        30.5004         29.5004
  21612178.3664    4658176.29247   3602205.47947                  21612186.3624
        27.0004         26.7504
  21237469.0074    2571016.95347   2009204.00947                  21237475.0654
        24.2504         26.5004
  22615753.3274   -1219228.63847   -910269.99746                  22615761.8044
        25.5004         24.7504
  23556823.7884   -1839459.10146  -1379421.91346                  23556832.5114
        18.0004         17.0004
  24636642.7574   10728256.33746   8260892.20046                  24636652.7574
        13.5004         13.5004
 02  7 11 17 21 45.0030000  0  9G26G29G 6G15G17G18G21G 3G23
  23922240.7574    8123093.88546   6278854.92246                  23922250.4294
        14.7504         14.5004
  24938247.0304    8805878.92145   6798466.78145                  24938257.0774
        10.7504         11.0004
  24109729.7334   11771381.55046   9061499.92346                  24109742.2884
        12.2504         13.2504
  21287923.4914    3401556.05848   2640200.02647                  21287930.9484
        31.2504         29.5004
  21619167.5224    4694903.36947   3630823.97047                  21619175.3314
        27.2504         26.7504
  21242860.5694    2599350.42047   2031282.04447                  21242866.9914
        24.0004         26.5004
  22616344.3124   -1216122.18047   -907849.36146                  22616352.8704
        25.7504         25.2504
  23554592.7104   -1851182.58746  -1388557.08346                  23554601.2924
        18.0004         16.7504
  24649699.9524   10796871.71146   8314358.69446                  24649709.7414
        13.2504         13.2504
 02  7 11 17 22  0.0030000  0  9G26G29G 6G15G17G18G21G 3G23
  23934297.6244    8186452.27446   6328225.04146                  23934307.1324
        14.5004         14.5004
  24950507.0934    8870302.13645   6848666.62045                  24950518.9444
        10.7504         11.0004
  24124655.3824   11849816.15346   9122617.68246                  24124666.8944
        12.2504         12.7504
  21293620.6474    3431493.53448   2663527.92847                  21293628.4094
        30.7504         29.5004
  21626175.5544    4731730.40147   3659520.34247                  21626183.3154
        27.5004         27.0004
  21248278.3354    2627818.98247   2053465.35647                  21248284.6404
        24.2504         26.7504
  22616955.8044   -1212909.93947   -905346.29046                  22616964.1284
        26.5004         25.2504
  23552385.5304   -1862781.48546  -1397595.15646                  23552394.0424
        18.2504         17.0004
  24662765.1084   10865529.45646   8367858.19846                  24662774.8394
        13.0004         13.2504
 02  7 11 17 22 15.0030000  0  9G26G29G 6G15G17G18G21G 3G23
  23946383.3354    8249964.53346   6377715.06346                  23946392.4334
        14.5004         14.5004
  24962789.3584    8934846.88345   6898961.19145                  24962800.1324
        10.0004         10.5004
  24139596.8354   11928333.76346   9183800.10946                  24139609.0264
        12.5004         13.2504
  21299337.7884    3461537.12348   2686938.51147                  21299345.5504
        30.7504         29.5004
  21633202.1944    4768656.22147   3688293.68347                  21633209.7924
        27.7504         26.5004
  21253720.9444    2656421.31147   2075752.89547                  21253727.0854
        24.2504         26.5004
  22617586.9524   -1209593.12447   -902761.73746                  22617595.2184
        26.7504         25.2504
  23550201.9684   -1874256.80746  -1406536.96546                  23550210.1284
        18.2504         17.0004
  24675838.3974   10934228.16646   8421389.61746                  24675848.7374
        12.7504         12.7504
 02  7 11 17 22 30.0030000  0  9G26G29G 6G15G17G18G21G 3G23
  23958498.5624    8313630.20746   6427324.62546                  23958507.1554
        14.7504         14.2504
  24975094.7184    8999512.85445   6949350.19645                  24975105.0344
         9.5004         10.7504
  24154554.2414   12006934.05646   9245046.97746                  24154565.1554
        12.2504         13.2504
  21305074.9374    3491686.79848   2710431.76347                  21305082.4764
        30.7504         29.5004
  21640247.8194    4805680.98647   3717144.11947                  21640255.4404
        27.7504         26.7504
  21259189.1874    2685157.29647   2098144.58247                  21259195.5504
        24.2504         26.7504
  22618237.9374   -1206171.62647   -900095.60746                  22618246.1554
        26.7504         25.5004
  23548041.5154   -1885608.21346  -1415382.18146                  23548049.7574
        18.0004         16.7504
  24688918.8124   11002967.56446   8474952.76846                  24688929.1754
        12.7504         13.0004
 02  7 11 17 22 45.0030000  0  9G26G29G 6G15G17G18G21G 3G23
  23970641.8824    8377441.22146   6477047.45446                  23970651.0154
        14.7504         14.0004
  24987421.3514    9064291.84345   6999827.27845                  24987431.6204
        10.0004         10.5004
  24169525.6014   12085608.89546   9306351.94746                  24169537.3824
        12.2504         12.7504
  21310830.9054    3521934.81448   2734001.63447                  21310838.5034
        31.2504         29.5004
  21647310.7334    4842796.87447   3746065.56747                  21647318.3194
        27.7504         26.7504
  21264681.3044    2714018.93347   2120634.18147                  21264687.5034
        23.7504         26.7504
  22618907.2414   -1202653.64547   -897354.29546                  22618915.5774
        26.7504         25.2504
  23545903.8124   -1896843.18846  -1424136.68346                  23545911.7024
        18.0004         16.7504
  24702005.9684   11071739.71746   8528541.42146                  24702016.4954
        12.5004         13.0004
 02  7 11 17 23  0.0030000  0  9G26G29G 6G15G17G18G21G 3G23
  23982814.1404    8441405.40746   6526889.62146                  23982822.9094
        15.0004         14.0004
  24999772.2804    9129191.90545   7050398.71545                  24999783.6164
         9.5004         10.2504
  24184512.4764   12164366.26145   9367721.20946                  24184523.7294
        11.7504         12.7504
  21316607.3434    3552289.46048   2757654.60347                  21316614.9644
        31.2504         29.5004
  21654392.3904    4880012.14448   3775064.47547                  21654399.9174
        28.0004         26.7504
  21270199.0154    2743014.31447   2143227.99647                  21270205.1904
        23.7504         26.5004
  22619596.6474   -1199030.93147   -894531.37646                  22619605.0654
        26.7504         25.2504
  23543789.4444   -1907953.34146  -1432793.93246                  23543797.5694
        18.0004         16.7504
  24715100.3664   11140552.63046   8582161.83346                  24715111.0224
        12.7504         12.7504
 02  7 11 17 23 15.0030000  0  9G26G29G 6G15G17G18G21G 3G23
  23995013.6554    8505517.05146   6576846.71546                  23995022.7884
        14.7504         14.0004
  25012143.7494    9194207.23645   7101059.96345                  25012153.8084
         9.5004         10.0004
  24199513.8044   12243200.48645   9429150.34146                  24199526.0424
        11.2504         12.7504
  21322402.6944    3582745.39348   2781386.49847                  21322410.3394
        31.0004         29.5004
  21661492.3434    4917321.42847   3804136.64447                  21661499.8584
        27.7504         26.7504
  21275740.9134    2772137.95147   2165921.75047                  21275747.0194
        24.2504         26.5004
  22620305.1084   -1195308.62747   -891630.85646                  22620313.2454
        26.7504         25.5004
  23541698.3124   -1918943.70346  -1441357.82346                  23541707.0934
        18.2504         16.7504
  24728201.8664   11209400.77546   8635809.69746                  24728212.7454
        12.5004         13.0004
 02  7 11 17 23 30.0030000  0  9G26G29G 6G15G17G18G21G 3G23
  24007243.1944    8569781.19046   6626922.61246                  24007252.5974
        14.7504         13.7504
  25024539.1324    9259343.07645   7151815.11645                  25024548.4644
         9.2504         10.2504
  24214531.4524   12322116.64645   9490643.34146                  24214543.5854
        11.0004         13.0004
  21328218.7024    3613308.06648   2805201.56847                  21328226.2764
        31.2504         29.5004
  21668610.9914    4954730.27347   3833286.38547                  21668618.5894
        27.5004         26.5004
  21281308.4444    2801394.97147   2188719.43347                  21281314.4334
        24.2504         26.2504
  22621033.3584   -1191481.38447   -888648.56846                  22621041.5654
        26.5004         25.5004
  23539630.4834   -1929808.60846  -1449823.96446                  23539639.2654
        18.0004         17.0004
  24741311.2104   11278289.31446   8689489.04346                  24741322.2414
        12.5004         13.0004
 02  7 11 17 23 45.0030000  0  9G26G29G 6G15G17G18G21G 3G23
  24019500.7964    8634195.80646   6677115.76946                  24019510.1754
        14.7504         14.2504
  25036956.2654    9324597.21645   7202662.44045                  25036966.6044
         9.5004         10.2504
  24229564.5774   12401112.76545   9552198.64146                  24229576.5934
        11.5004         12.5004
  21334054.5074    3643975.80348   2829098.50747                  21334061.8944
        31.0004         29.5004
  21675748.2574    4992236.89247   3862512.29447                  21675755.7494
        27.7504         26.7504
  21286900.8744    2830783.56147   2211619.63347                  21286907.0034
        24.5004         26.5004
  22621781.3514   -1187550.96347   -885585.87946                  22621789.5814
        26.7504         25.5004
  23537586.6084   -1940549.42946  -1458193.41746                  23537595.1904
        18.0004         17.0004
  24754427.7334   11347216.37446   8743198.38546                  24754438.7884
        12.5004         12.5004
 02  7 11 17 24  0.0030000  0  9G26G29G 6G15G17G18G21G 3G23
  24031787.3514    8698761.65346   6727426.79446                  24031797.3044
        14.2504         14.0004
  25049396.4764    9389970.62845   7253602.70845                  25049405.2924
         9.2504         10.0004
  24244611.8434   12480189.62646   9613816.83346                  24244623.9404
        12.0004         13.0004
  21339910.6474    3674749.69148   2853078.15047                  21339918.1514
        31.2504         29.5004
  21682904.3824    5029842.52447   3891815.36347                  21682911.9214
        27.7504         26.5004
  21292518.6874    2860304.80647   2234623.20747                  21292524.7334
        24.2504         26.2504
  22622549.0224   -1183516.40047   -882442.03546                  22622557.3584
        26.7504         25.5004
  23535566.6554   -1951164.77446  -1466465.09346                  23535575.4374
        18.2504         17.0004
  24767551.2184   11416182.85046   8796938.44646                  24767561.8974
        12.2504         12.5004
 02  7 11 17 24 15.0030000  0  9G26G29G 6G15G17G18G21G 3G23
  24044101.2724    8763471.87046   6777850.28646                  24044110.6754
        14.7504         14.5004
  25061858.4294    9455456.40445   7304630.54845                  25061868.3944
         9.5004          9.5004
  24259673.9764   12559340.44345   9675492.70346                  24259686.4374
        11.2504         12.0004
  21345785.7104    3705623.26148   2877135.46047                  21345793.2374
        31.0004         29.5004
  21690078.2804    5067540.68447   3921190.52547                  21690085.9604
        27.2504         26.7504
  21298160.2184    2889951.93147   2257724.87847                  21298166.4174
        24.2504         26.2504
  22623335.2024   -1179384.14647   -879222.07047                  22623343.5384
        26.5004         25.7504
  23533569.0624   -1961660.91446  -1474643.88346                  23533577.7724
        18.0004         17.2504
  24780681.3124   11485182.07546   8850704.02046                  24780691.7334
        12.0004         12.7504
 02  7 11 17 24 30.0030000  0  9G26G29G 6G15G17G18G21G 3G23
  24056443.7724    8828331.94946   6828390.58946                  24056452.2494
        14.7504         13.7504
  25074342.6084    9521060.01945   7355750.17945                  25074353.4524
        10.0004          9.5004
  24274751.0224   12638570.65646   9737230.39546                  24274763.1084
        12.2504         12.5004
  21351680.9444    3736602.48848   2901275.09747                  21351688.4014
        31.2504         29.7504
  21697270.4834    5105337.18047   3950642.30647                  21697278.1164
        27.2504         26.5004
  21303826.8664    2919730.52747   2280928.99047                  21303832.9484
        24.2504         26.2504
  22624141.1404   -1175148.65547   -875921.65546                  22624149.6754
        26.5004         25.2504
  23531596.0544   -1972031.75946  -1482725.03746                  23531604.6834
        18.0004         17.2504
  24793818.9294   11554219.66746   8904499.51346                  24793829.4444
        12.0004         12.7504
 02  7 11 17 24 45.0030000  0  9G26G29G 6G15G17G18G21G 3G23
  24068814.5224    8893341.80646   6879047.57646                  24068824.1014
        14.7504         14.0004
  25086848.4604    9586781.45845   7406961.64345                  25086858.6124
        10.2504          9.7504
  24289843.3274   12717880.24945   9799029.95946                  24289854.9684
        11.5004         12.2504
  21357596.1944    3767687.61848   2925497.26447                  21357603.6164
        31.7504         29.5004
  21704481.9214    5143232.50847   3980171.10247                  21704489.5544
        27.2504         26.5004
  21309518.7184    2949640.79947   2304235.70147                  21309524.6944
        24.2504         26.2504
  22624966.9524   -1170809.47147   -872540.45146                  22624975.3004
        26.5004         25.2504
  23529646.1554   -1982276.87446  -1490708.23046                  23529654.9374
        18.2504         17.0004
  24806963.2334   11623295.71946   8958324.96046                  24806973.9604
        12.2504         12.7504
 02  7 11 17 25  0.0030000  0  9G26G29G 6G15G17G18G21G 3G23
  24081214.5694    8958501.73546   6929821.49046                  24081223.4794
        15.2504         14.0004
  25099377.5074    9652621.17445   7458265.26645                  25099386.9444
        10.7504         10.2504
  24304951.0624   12797269.68545   9860891.73846                  24304963.2184
        11.7504         12.5004
  21363531.7724    3798879.46848   2949802.60047                  21363539.3124
        31.5004         29.5004
  21711712.0934    5181227.24647   4009777.37447                  21711719.7024
        27.0004         26.7504
  21315235.4914    2979683.26547   2327645.42847                  21315241.3624
        24.2504         26.0004
  22625812.4444   -1166366.00947   -869077.98446                  22625820.8274
        26.2504         25.5004
  23527720.6714   -1992395.07346  -1498592.51846                  23527728.8784
        18.2504         17.0004
  24820115.5694   11692410.78746   9012180.80946                  24820126.3904
        12.2504         12.5004
 02  7 11 17 25 15.0030000  0  9G26G29G 6G15G17G18G21G 3G23
  24093641.1794    9023803.77846   6980706.18246                  24093651.0154
        15.0004         13.7504
  25111927.9764    9718571.23045   7509654.87145                  25111938.1404
        10.5004          9.7504
  24320072.0384   12876730.98346   9922809.52046                  24320083.9834
        12.0004         12.5004
  21369486.3664    3830170.45448   2974185.17747                  21369493.8474
        31.5004         29.5004
  21718959.5854    5219313.98647   4039455.34247                  21718967.3474
        27.0004         26.7504
  21320976.2334    3009850.20747   2351152.15847                  21320982.2694
        24.2504         26.0004
  22626676.3974   -1161825.90647   -865540.21546                  22626684.6874
        26.5004         25.2504
  23525817.8904   -2002393.71746  -1506383.65246                  23525825.9334
        18.7504         17.2504
  24833273.9294   11761557.04046   9066060.94946                  24833284.8664
        12.2504         12.7504
 02  7 11 17 25 30.0030000  0  9G26G29G 6G15G17G18G21G 3G23
  24106094.2884    9089246.99646   7031700.85846                  24106103.3044
        14.7504         13.7504
  25124498.3124    9784630.56745   7561129.63745                  25124508.3234
        10.7504         10.5004
  24335206.4994   12956263.16846   9984782.51846                  24335218.5504
        12.2504         12.7504
  21375459.6244    3861559.92948   2998644.50747                  21375467.0114
        31.2504         29.2504
  21726224.7414    5257491.85647   4069204.31547                  21726232.3744
        26.7504         26.5004
  21326739.9834    3040140.74947   2374755.19147                  21326746.1944
        24.0004         26.2504
  22627558.6404   -1157189.82547   -861927.66446                  22627566.8354
        26.5004         25.2504
  23523937.8274   -2012273.21746  -1514081.93946                  23523946.0814
        18.7504         17.2504
  24846438.0934   11830733.57746   9119964.68846                  24846449.6754
        12.5004         12.5004
 02  7 11 17 25 45.0030000  0  9G26G29G 6G15G17G18G21G 3G23
  24118576.1554    9154838.24546   7082810.88546                  24118585.7334
        14.7504         13.7504
  25137091.2964    9850806.23145   7612695.02745                  25137100.8274
        11.0004         10.2504
  24350355.8434   13035873.16846  10046816.17246                  24350367.8704
        12.2504         12.7504
  21381452.8124    3893055.18948   3023186.26247                  21381460.3864
        31.5004         29.5004
  21733508.4374    5295768.35147   4099030.12947                  21733516.2104
        26.7504         26.7504
  21332529.0934    3070561.96847   2398460.05247                  21332535.5264
        24.0004         26.5004
  22628460.2414   -1152450.59647   -858234.73746                  22628468.6014
        26.2504         25.2504
  23522081.9444   -2022026.09546  -1521681.56646                  23522090.8084
        19.2504         17.5004
  24859608.5934   11899947.52146   9173897.57746                  24859619.1204
        12.5004         12.7504
 02  7 11 17 26  0.0030000  0  9G26G29G 6G15G17G18G21G 3G23
  24131084.8044    9220572.11846   7134032.04346                  24131094.4764
        14.5004         13.5004
  25149704.8194    9917092.82645   7664346.88245                  25149713.8474
        10.7504         10.0004
  24365519.4604   13115555.74745  10108906.38746                  24365531.1474
        11.2504         12.2504
  21387465.4994    3924651.21948   3047806.53547                  21387472.8514
        31.2504         29.2504
  21740809.9604    5334138.45547   4128928.89247                  21740817.7334
        27.0004         26.7504
  21338341.9524    3101108.76447   2422262.75547                  21338348.3154
        24.0004         26.5004
  22629380.8904   -1147613.13647   -854465.25746                  22629389.4834
        26.0004         25.2504
  23520249.4524   -2031657.17546  -1529186.28246                  23520258.1164
        19.2504         18.0004
  24872786.1554   11969193.69946   9227855.59246                  24872797.1754
        12.2504         13.0004
 02  7 11 17 26 15.0030000  0  9G26G29G 6G15G17G18G21G 3G23
  24143621.3044    9286449.73446   7185365.21946                  24143630.2614
        15.0004         13.7504
  25162340.4134    9983491.39345   7716085.97645                  25162350.6944
        11.0004         11.0004
  24380696.0304   13195311.91146  10171053.91146                  24380707.7534
        12.0004         12.7504
  21393497.2574    3956349.47248   3072506.45847                  21393504.6794
        30.7504         29.5004
  21748129.7804    5372603.51147   4158901.65147                  21748137.5304
        26.7504         26.5004
  21344179.1634    3131782.36047   2446164.26047                  21344185.3864
        23.7504         26.2504
  22630320.2184   -1142676.18447   -850618.24946                  22630328.6124
        26.2504         25.2504
  23518439.8744   -2041164.65746  -1536594.69146                  23518448.6554
        18.5004         17.7504
  24885969.3274   12038473.26746   9281839.61746                  24885979.6794
        12.5004         12.5004
 02  7 11 17 26 30.0030000  0  9G26G29G 6G15G17G18G21G 3G23
  24156184.9214    9352474.36046   7236812.95046                  24156194.7334
        14.7504         13.5004
  25174997.7804   10050005.37545   7767914.99845                  25175007.5114
        11.0004         10.0004
  24395888.2414   13275145.01246  10233261.41146                  24395900.2804
        12.0004         12.7504
  21399549.5544    3988153.71948   3097288.97747                  21399557.1634
        30.5004         29.2504
  21755468.2264    5411167.39647   4188951.41647                  21755476.1634
        27.0004         26.7504
  21350040.6554    3162586.25747   2470167.28647                  21350046.6794
        24.2504         26.2504
  22631279.4684   -1137636.33347   -846691.05846                  22631287.7924
        26.5004         25.5004
  23516655.2724   -2050544.56346  -1543903.68846                  23516663.7964
        18.7504         17.7504
  24899160.2804   12107789.71046   9335852.38046                  24899170.7144
        12.5004         12.5004
 02  7 11 17 26 45.0030000  0  9G26G29G 6G15G17G18G21G 3G23
  24168775.4604    9418637.31446   7288368.45246                  24168785.2144
        14.5004         13.7504
  25187675.1244   10116626.13845   7819827.25045                  25187685.6404
        11.2504         11.2504
  24411092.6474   13355046.50645  10295522.18546                  24411105.3084
        11.5004         12.5004
  21405620.1404    4020055.66748   3122147.63247                  21405627.5854
        30.7504         29.2504
  21762824.0074    5449821.79247   4219071.69747                  21762831.7924
        26.7504         26.7504
  21355925.6944    3193511.90247   2494265.18047                  21355931.8004
        24.2504         26.5004
  22632256.6084   -1132501.57547   -842689.92146                  22632264.6284
        27.0004         25.5004
  23514892.9604   -2059805.03246  -1551119.61146                  23514901.4834
        18.5004         18.0004
  24912356.0154   12177134.53046   9389887.25146                  24912366.2724
        12.5004         12.5004
 02  7 11 17 27  0.0030000  0  9G26G29G 6G15G17G18G21G 3G23
  24181394.3744    9484950.09646   7340040.73146                  24181403.7294
        14.5004         14.0004
  25200375.3434   10183365.08545   7871831.57845                  25200384.7224
        11.5004         11.0004
  24426312.8194   13435027.86945  10357845.21646                  24426325.3514
        11.2504         12.5004
  21411711.6874    4052067.17548   3147091.65247                  21411719.3194
        31.0004         29.5004
  21770199.2334    5488578.49147   4249271.69647                  21770207.2414
        27.2504         26.5004
  21361836.0154    3224570.97847   2518467.05547                  21361842.2494
        24.2504         26.5004
  22633253.9134   -1127260.23847   -838605.73147                  22633262.0384
        27.5004         25.7504
  23513155.6244   -2068933.98746  -1558233.06246                  23513163.8664
        18.7504         17.5004
  24925559.7804   12246519.39846   9443953.32446                  24925570.2724
        12.5004         12.2504
 02  7 11 17 27 15.0030000  0  9G26G29G 6G15G17G18G21G 3G23
  24194040.0154    9551403.54946   7391822.59446                  24194049.4404
        14.7504         13.5004
  25213095.9834   10250213.18245   7923920.93945                  25213104.7654
        11.2504         11.0004
  24441546.4994   13515079.96345  10420223.31746                  24441558.1984
        11.2504         12.0004
  21417822.7104    4084179.39348   3172114.15547                  21417830.4134
        30.7504         29.5004
  21777592.0934    5527428.84147   4279544.66947                  21777599.9724
        27.0004         26.5004
  21367769.9294    3255754.55947   2542765.93847                  21367776.1874
        24.2504         26.7504
  22634269.8824   -1121921.33647   -834445.52147                  22634277.9374
        27.2504         25.7504
  23511441.8904   -2077939.88146  -1565250.62146                  23511450.6944
        19.2504         18.2504
  24938768.7654   12315935.28346   9498043.57946                  24938778.6594
        12.7504         12.5004
 02  7 11 17 27 30.0030000  0  9G26G29G 6G15G17G18G21G 3G23
  24206712.0304    9617995.00646   7443712.00846                  24206721.1984
        14.2504         13.5004
  25225837.1794   10317167.79545   7976093.31645                  25225847.3784
        11.5004         11.0004
  24456792.9444   13595200.23245  10482654.58745                  24456805.5344
        11.5004         11.7504
  21423952.1634    4116390.11648   3197213.42047                  21423959.7024
        30.7504         29.5004
  21785002.6554    5566370.43647   4309888.75447                  21785010.6634
        27.0004         26.5004
  21373727.1944    3287060.15547   2567159.90947                  21373733.5584
        24.5004         27.0004
  22635304.0224   -1116487.05647   -830210.98347                  22635312.0074
        27.0004         25.7504
  23509751.1084   -2086824.83446  -1572173.93946                  23509759.5624
        19.5004         18.0004
  24951983.8514   12385379.64546   9552156.00146                  24951994.1084
        12.2504         12.0004
 02  7 11 17 27 45.0030000  0  9G26G29G 6G15G17G18G21G 3G23
  24219410.2654    9684723.51046   7495708.20946                  24219419.0814
        14.7504         13.5004
  25238598.2884   10384228.17045   8028348.11245                  25238607.1284
        11.5004         11.2504
  24472052.3584   13675387.89045  10545138.35446                  24472064.6204
        11.2504         12.2504
  21430100.2264    4148698.91248   3222389.09547                  21430107.7294
        30.7504         29.5004
  21792430.3434    5605402.99447   4340303.71847                  21792438.4334
        27.0004         26.5004
  21379707.6404    3318487.24047   2591648.54447                  21379713.6514
        24.5004         26.7504
  22636356.0384   -1110957.93047   -825902.53747                  22636364.4334
        26.7504         25.7504
  23508083.3274   -2095589.01246  -1579003.15646                  23508091.9334
        19.5004         18.2504
  24965203.8124   12454851.91246   9606290.17846                  24965213.4484
        12.5004         12.2504
 02  7 11 17 28  0.0030000  0  9G26G29G 6G15G17G18G21G 3G23
  24232135.1164    9751593.48846   7547814.64646                  24232144.6714
        14.5004         13.5004
  25251380.4054   10451398.59645   8080688.64945                  25251389.2334
        11.5004         11.2504
  24487325.1714   13755647.21846  10607677.97446                  24487337.5034
        12.2504         12.5004
  21436268.0624    4181110.36548   3247644.75547                  21436275.4724
        31.2504         29.2504
  21799875.8514    5644531.03947   4370793.08447                  21799883.7534
        27.0004         26.5004
  21385712.1244    3350040.14947   2616235.23047                  21385718.1834
        24.5004         26.7504
  22637427.0224   -1105329.51547   -821516.72646                  22637435.4174
        26.7504         25.5004
  23506439.4914   -2104227.54246  -1585734.45846                  23506448.0034
        19.7504         18.0004
  24978430.5544   12524356.47846   9660449.53346                  24978441.0694
        12.5004         12.5004
 02  7 11 17 28 15.0030000  0  9G26G29G 6G15G17G18G21G 3G23
  24244886.8824    9818605.99446   7600032.15446                  24244896.2374
        14.5004         13.7504
  25264183.6634   10518680.34945   8133115.96545                  25264193.1944
        11.2504         11.0004
  24502611.9834   13835979.48645  10670274.41945                  24502623.5774
        11.5004         11.2504
  21442455.7414    4213626.21248   3272981.77547                  21442463.1514
        31.0004         29.5004
  21807340.2654    5683756.35947   4401358.24747                  21807348.2264
        27.0004         26.5004
  21391740.6474    3381720.29547   2640921.05747                  21391746.7534
        24.2504         26.7504
  22638517.1714   -1099600.16947   -817052.27246                  22638525.4954
        26.5004         25.5004
  23504819.9764   -2112738.55446  -1592366.38846                  23504828.7574
        19.7504         18.5004
  24991663.1714   12593894.75446   9714635.14845                  24991673.2184
        12.5004         11.7504
 02  7 11 17 28 30.0030000  0  9G26G29G 6G15G17G18G21G 3G23
  24257666.2104    9885761.41346   7652361.00646                  24257675.2964
        13.7504         13.5004
  25277008.6474   10586073.63345   8185630.14845                  25277018.4014
        10.5004         10.7504
  24517912.5624   13916385.02045  10732927.97846                  24517924.0034
        11.7504         12.0004
  21448663.2574    4246247.08248   3298400.63247                  21448670.7964
        30.7504         29.5004
  21814823.1714    5723079.51747   4431999.65447                  21814830.9444
        27.0004         26.5004
  21397793.3904    3413528.17047   2665706.42247                  21397799.5654
        24.0004         26.7504
  22639626.7494   -1093769.40947   -812508.79446                  22639635.0384
        27.0004         25.5004
  23503224.5304   -2121121.06647  -1598898.20346                  23503232.9254
        20.0004         18.2504
  25004902.2724   12663467.19246   9768847.37845                  25004912.6124
        12.2504         11.5004
 02  7 11 17 28 45.0030000  0  9G26G29G 6G15G17G18G21G 3G23
  24270472.5774    9953057.96046   7704799.84346                  24270482.0384
        14.2504         13.7504
  25289853.8974   10653576.78445   8238229.96245                  25289863.1014
        10.5004         10.5004
  24533227.0854   13996862.06045  10795637.22946                  24533239.2414
        11.5004         12.2504
  21454890.5304    4278971.50448   3323900.17647                  21454898.1284
        31.2504         29.5004
  21822324.5464    5762499.11047   4462716.21047                  21822332.3314
        26.7504         26.2504
  21403870.1554    3445462.14147   2690590.03947                  21403876.3434
        23.7504         26.5004
  22640755.4374   -1087838.74047   -807887.46046                  22640763.5504
        27.0004         25.5004
  23501653.6014   -2129376.40946  -1605330.92046                  23501662.1474
        19.7504         18.5004
  25018147.6244   12733072.17546   9823084.98746                  25018158.5154
        12.2504         12.2504
 02  7 11 17 29  0.0030000  0  9G26G29G 6G15G17G18G21G 3G23
  24283305.2804   10020494.83246   7757348.01146                  24283314.9524
        13.7504         13.2504
  25302719.9134   10721189.11045   8290914.84945                  25302729.7724
        10.0004         10.7504
  24548555.3274   14077410.04145  10858401.75945                  24548567.0504
        11.0004         11.5004
  21461137.2884    4311799.28748   3349480.26247                  21461144.8514
        31.2504         29.5004
  21829844.0854    5802014.88847   4493507.71747                  21829852.0694
        26.7504         26.5004
  21409970.9444    3477521.78947   2715571.58947                  21409977.2144
        23.7504         26.5004
  22641902.9764   -1081808.38347   -803188.45746                  22641911.1834
        27.2504         25.5004
  23500107.1244   -2137504.53046  -1611664.50046                  23500115.5194
        19.5004         18.2504
  25031399.1634   12802709.22546   9877347.55845                  25031408.7884
        12.5004         11.5004
 02  7 11 17 29 15.0030000  0  9G26G29G 6G15G17G18G21G 3G23
  24296164.6324   10088070.78946   7810004.56346                  24296174.0464
        13.5004         13.2504
  25315606.4054   10788909.24145   8343683.72245                  25315616.6984
         9.7504         10.2504
  24563896.1794   14158027.54945  10921220.47645                  24563907.6904
        11.0004         11.0004
  21467403.6944    4344729.40148   3375140.08147                  21467411.2454
        31.5004         29.7504
  21837381.8194    5841625.80147   4524373.35247                  21837389.8044
        26.5004         26.5004
  21416095.5074    3509705.89647   2740650.10747                  21416101.7064
        23.7504         26.5004
  22643069.2104   -1075679.33547   -798412.54746                  22643077.1244
        27.0004         25.2504
  23498584.2804   -2145506.15846  -1617899.51746                  23498592.7224
        19.5004         18.2504
  25044657.1474   12872377.10145   9931634.18245                  25044667.4644
        11.7504         11.2504
 02  7 11 17 29 30.0030000  0  9G26G29G 6G15G17G18G21G 3G23
  24309050.3584   10155786.82046   7862770.26146                  24309060.1834
        13.0004         13.0004
  25328514.0854   10856738.36645   8396537.56745                  25328524.9994
         9.2504          9.5004
  24579250.5774   14238715.75345  10984094.28945                  24579263.0854
        10.5004         10.7504
  21473689.8124    4377763.35948   3400880.80747                  21473697.4334
        31.2504         29.7504
  21844937.7654    5881333.49847   4555314.39847                  21844945.7264
        26.5004         26.2504
  21422243.7494    3542015.69247   2765826.56547                  21422249.9014
        23.7504         26.2504
  22644254.5464   -1069450.42347   -793558.82246                  22644262.6244
        26.2504         25.2504
  23497085.8664   -2153379.70446  -1624034.73146                  23497094.4134
        19.5004         18.2504
  25057920.2184   12942077.09545   9985945.84245                  25057930.4644
        11.5004         11.2504
 02  7 11 17 29 45.0030000  0  9G26G29G 6G15G17G18G21G 3G23
  24321962.4834   10223639.79846   7915642.68546                  24321971.6044
        12.7504         12.7504
  25341441.5854   10924673.34845   8449473.84745                  25341451.4684
         9.0004         10.2504
  24594617.8434   14319471.57945  11047020.77145                  24594629.9994
        11.0004         10.7504
  21479995.2654    4410898.39348   3426700.31747                  21480003.0974
        30.7504         29.5004
  21852512.0224    5921135.11647   4586328.64347                  21852520.0304
        26.5004         26.5004
  21428415.4134    3574448.25947   2791098.69147                  21428421.4724
        23.7504         26.2504
  22645458.2884   -1063124.27547   -788629.32746                  22645466.4134
        26.2504         25.0004
  23495611.7104   -2161127.51146  -1630071.95646                  23495620.4094
        19.5004         18.5004
  25071189.4524   13011806.23845  10040280.18045                  25071199.9214
        11.5004         11.5004
 02  7 11 17 30  0.0030000  0  9G26G29G 6G15G17G18G21G 3G23
  24334900.4604   10291628.87046   7968621.16546                  24334910.4374
        12.7504         13.5004
  25354389.1404   10992713.50745   8502492.10845                  25354399.4334
         8.7504          9.5004
  24609998.0544   14400294.19745  11109999.31045                  24610009.9644
        11.0004         11.0004
  21486319.7804    4444133.99548   3452598.20347                  21486327.3904
        30.5004         29.7504
  21860103.7724    5961030.25647   4617415.75547                  21860111.8394
        26.2504         26.2504
  21434610.2334    3607002.91047   2816465.95847                  21434616.3864
        23.7504         26.2504
  22646680.3044   -1056701.48547   -783624.51546                  22646688.4874
        26.7504         25.5004
  23494161.2574   -2168749.89446  -1636011.45746                  23494169.7924
        19.5004         18.5004
  25084463.7264   13081563.85845  10094636.73346                  25084474.0654
        11.7504         12.0004
 02  7 11 17 30 15.0030000  0  9G26G29G 6G15G17G18G21G 3G23
  24347864.2104   10359754.16446   8021705.75846                  24347873.9994
        12.7504         13.7504
  25367356.9994   11060858.91845   8555592.36845                  25367367.2574
         8.7504         11.0004
  24625391.2024   14481183.82645  11173030.08145                  24625402.7614
        11.0004         11.2504
  21492663.4214    4477470.77048   3478574.91247                  21492671.1364
        30.5004         29.5004
  21867713.4914    6001019.43347   4648576.15447                  21867721.7224
        26.2504         26.5004
  21440828.6944    3639680.00547   2841928.62447                  21440834.7534
        24.0004         26.2504
  22647921.1554   -1050181.88347   -778544.27746                  22647929.3044
        27.0004         25.5004
  23492734.8044   -2176246.10947  -1641852.64546                  23492743.5504
        20.0004         18.2504
  25097743.4214   13151350.21945  10149015.68045                  25097753.8544
        11.7504         11.2504
 02  7 11 17 30 30.0030000  0  9G26G29G 6G15G17G18G21G 3G23
  24360851.9604   10428003.46546   8074886.99346                  24360861.7964
        12.7504         13.2504
  25380342.4134   11129097.45345   8608765.26345                  25380354.2184
         8.7504         10.0004
  24640794.6244   14562128.33245  11236103.57945                  24640807.3664
        11.2504         11.5004
  21499024.1634    4510896.83448   3504621.20047                  21499031.8784
        30.7504         29.5004
  21875338.6084    6041090.83047   4679800.60947                  21875346.7454
        26.5004         26.5004
  21447067.8274    3672467.71347   2867477.48047                  21447073.9334
        24.2504         26.2504
  22649177.9994   -1043577.01847   -773397.60046                  22649186.0544
        27.2504         25.5004
  23491329.9764   -2183627.61646  -1647604.45046                  23491338.2764
        19.7504         18.5004
  25111026.4444   13221153.34546  10203407.68845                  25111035.9294
        12.0004         11.5004
 02  7 11 17 30 45.0030000  0  9G26G29G 6G15G17G18G21G 3G23
  24373865.2494   10496390.08646   8128175.23046                  24373875.1904
        12.5004         12.7504
  25393346.7724   11197442.41845   8662020.99245                  25393355.7764
         8.0004          9.2504
  24656210.7264   14643141.07945  11299230.27845                  24656223.5504
        11.2504         11.5004
  21505404.6554    4544426.06448   3530747.87847                  21505412.4404
        30.2504         29.7504
  21882982.4524    6081258.32047   4711099.94047                  21882990.6244
        26.5004         26.5004
  21453330.8744    3705379.42447   2893122.96347                  21453337.0504
        24.5004         26.5004
  22650453.6014   -1036873.27647   -768173.88247                  22650461.8084
        27.2504         26.0004
  23489949.5854   -2190880.40646  -1653255.95246                  23489958.2374
        19.5004         18.2504
  25124315.8824   13290986.80645  10257823.31645                  25124325.8234
        11.7504         11.0004
 02  7 11 17 31  0.0030000  0  9G26G29G 6G15G17G18G21G 3G23
  24386906.9294   10564924.69546   8181578.80646                  24386916.1324
        12.7504         13.0004
  25406376.1554   11265904.37145   8715367.91845                  25406386.4374
         8.0004          9.2504
  24671642.1554   14724232.63245  11362418.38245                  24671655.3544
        11.2504         11.2504
  21511806.6634    4578069.37048   3556963.45147                  21511814.5774
        30.0004         29.7504
  21890646.3824    6121532.65847   4742482.52847                  21890654.5544
        26.2504         26.2504
  21459619.5154    3738425.76847   2918873.35847                  21459625.5504
        24.7504         26.5004
  22651750.2264   -1030059.92847   -762864.76547                  22651758.4094
        27.7504         25.7504
  23488596.2264   -2197993.43646  -1658798.55846                  23488604.5504
        19.5004         18.2504
  25137612.3194   13360861.30446  10312270.93645                  25137622.9874
        12.2504         11.2504
 02  7 11 17 31 15.0030000  0  9G26G29G 6G15G17G18G21G 3G23
  24399973.8514   10633590.56546   8235084.64346                  24399983.3354
        13.5004         13.0004
  25419422.7184   11334466.90845   8768793.22845                  25419433.9134
         8.0004          9.5004
  24687085.2494   14805386.50645  11425655.03545                  24687097.1244
        11.7504         11.7504
  21518227.4834    4611810.54148   3583255.28647                  21518235.2574
        30.2504         29.7504
  21898327.7414    6161897.75347   4773935.84347                  21898335.9134
        26.0004         26.2504
  21465930.6474    3771590.42247   2944715.94347                  21465936.7064
        24.5004         26.7504
  22653064.4834   -1023153.31347   -757482.96846                  22653072.5974
        27.2504         25.5004
  23487266.2104   -2204982.69846  -1664244.70846                  23487274.6634
        19.5004         18.5004
  25150913.5934   13430760.41845  10366737.73445                  25150924.2494
        11.7504         11.0004
 02  7 11 17 31 30.0030000  0  9G26G29G 6G15G17G18G21G 3G23
  24413066.3124   10702392.07246   8288696.16746                  24413075.4444
        13.2504         13.0004
  25432489.9294   11403134.35045   8822300.30445                  25432498.7104
         8.5004          9.0004
  24702540.9834   14886607.10245  11488943.69645                  24702553.7494
        11.5004         11.5004
  21524667.6714    4645654.37748   3609627.11947                  21524675.4794
        30.7504         29.5004
  21906026.9444    6202358.40647   4805463.61647                  21906035.0114
        26.0004         26.2504
  21472264.8354    3804877.98247   2970654.29347                  21472270.8824
        24.2504         26.5004
  22654397.3434   -1016148.63647   -752024.76946                  22654405.2224
        27.2504         25.5004
  23485960.6014   -2211843.22446  -1669590.55146                  23485968.9484
        19.2504         18.0004
  25164220.5464   13500688.70945  10421227.28045                  25164229.6204
        11.7504         10.7504
 02  7 11 17 31 45.0030000  0  9G26G29G 6G15G17G18G21G 3G23
  24426185.1944   10771331.82146   8342415.42046                  24426194.0584
        13.0004         13.2504
  25445577.5074   11471909.43745   8875891.24245                  25445586.4524
         8.7504          9.0004
  24718010.1014   14967897.13946  11552286.45046                  24718023.2414
        12.0004         12.0004
  21531128.0854    4679603.90048   3636081.30547                  21531135.9174
        30.5004         29.7504
  21913745.3584    6242917.71047   4837068.26647                  21913753.6714
        25.5004         26.2504
  21478623.1404    3838291.26747   2996690.61547                  21478629.1874
        24.5004         26.5004
  22655749.4764   -1009042.84247   -746487.76946                  22655757.3544
        27.2504         25.5004
  23484680.3824   -2218571.68846  -1674833.48346                  23484688.7294
        19.2504         18.0004
  25177533.8354   13570649.06646  10475741.76945                  25177544.2104
        12.7504         11.7504
